[[{"header":{"parameterUnit":"m.s-1","parameterCategory":1,"la1":30.6,"la2":29.2853,"lo1":-89.7004,"lo2":-87.6739,"dy":0.0162,"dx":0.0183,"nx":112,"ny":82,"refTime":"2023-05-02T00:00:00:Z","depth":0,"parameterNumber":2,"parameterNumberName":"U-component_of_WINDS"},"data":[0.0,0.0,0.0,0.0,0.0,0.0,0.0,0.0,0.0,0.0,0.0,0.0,0.0,0.0,0.0,0.0,0.0,0.0,0.0,0.0,0.0,0.0,0.0,0.0,0.0,0.0,0.0,0.0,0.0,0.0,0.0,0.0,0.0,0.0,0.0,0.0,0.0,0.0,0.0,0.0,0.0,0.0,0.0,0.0,0.0,0.0,0.0,0.0,0.0,0.0,0.0,0.0,0.0,0.0,0.0,0.0,0.0,0.0,0.0,0.0,0.0,0.0,0.0,0.0,0.0,0.0,0.0,0.0,0.0,0.0,0.0,0.0,0.0,0.0,0.0,0.0,0.0,0.0,0.0,0.0,0.0,0.0,0.0,0.0,0.0,0.0,0.0,0.0,0.0,0.0,0.0,-3.0348,-3.0486,-3.0593,-3.0598,-3.0595,-3.0597,-3.0606,0.0,0.0,0.0,0.0,0.0,0.0,0.0,0.0,0.0,0.0,0.0,0.0,0.0,0.0,0.0,0.0,0.0,0.0,0.0,0.0,0.0,0.0,0.0,0.0,0.0,0.0,0.0,0.0,0.0,0.0,0.0,0.0,0.0,0.0,0.0,0.0,0.0,0.0,0.0,0.0,0.0,0.0,0.0,0.0,0.0,0.0,0.0,0.0,0.0,0.0,0.0,0.0,0.0,0.0,0.0,0.0,0.0,0.0,0.0,0.0,0.0,0.0,0.0,0.0,0.0,0.0,0.0,0.0,0.0,0.0,0.0,0.0,0.0,0.0,0.0,0.0,0.0,0.0,0.0,0.0,0.0,0.0,0.0,0.0,0.0,0.0,0.0,0.0,0.0,0.0,0.0,0.0,0.0,0.0,0.0,0.0,0.0,0.0,0.0,0.0,0.0,0.0,0.0,0.0,-3.0384,-3.055,-3.0525,-3.053,-3.0598,-3.0602,-3.0606,-3.0602,0.0,0.0,0.0,0.0,0.0,0.0,0.0,0.0,0.0,0.0,0.0,0.0,0.0,0.0,0.0,0.0,0.0,0.0,0.0,0.0,0.0,0.0,0.0,0.0,0.0,0.0,0.0,0.0,0.0,0.0,0.0,0.0,0.0,0.0,0.0,0.0,0.0,0.0,0.0,0.0,0.0,0.0,0.0,0.0,0.0,0.0,0.0,0.0,0.0,0.0,0.0,0.0,0.0,0.0,0.0,0.0,0.0,0.0,0.0,0.0,0.0,0.0,0.0,0.0,0.0,0.0,0.0,0.0,0.0,0.0,0.0,0.0,0.0,0.0,0.0,0.0,0.0,0.0,0.0,0.0,0.0,0.0,0.0,0.0,0.0,0.0,0.0,0.0,0.0,0.0,0.0,0.0,0.0,0.0,0.0,0.0,0.0,0.0,0.0,0.0,0.0,0.0,0.0,-3.1447,-3.1667,-3.1284,-3.1226,-3.1221,-3.125,-3.0853,-3.0604,-3.0602,-3.0668,0.0,0.0,0.0,0.0,0.0,0.0,0.0,0.0,0.0,0.0,0.0,0.0,0.0,0.0,0.0,0.0,0.0,0.0,0.0,0.0,0.0,0.0,0.0,0.0,0.0,0.0,0.0,0.0,0.0,0.0,0.0,0.0,0.0,0.0,0.0,0.0,0.0,0.0,0.0,0.0,0.0,0.0,0.0,0.0,0.0,0.0,0.0,0.0,0.0,0.0,0.0,0.0,0.0,0.0,0.0,0.0,0.0,0.0,0.0,0.0,0.0,0.0,0.0,0.0,0.0,0.0,0.0,0.0,0.0,0.0,0.0,0.0,0.0,0.0,0.0,0.0,0.0,0.0,0.0,0.0,0.0,0.0,0.0,0.0,0.0,0.0,0.0,0.0,0.0,0.0,0.0,0.0,0.0,0.0,0.0,0.0,0.0,0.0,0.0,0.0,0.0,0.0,-3.2615,-3.2844,-3.2174,-3.2115,-3.211,-3.2121,-3.137,-3.0989,-3.1207,-3.0898,0.0,0.0,0.0,0.0,0.0,0.0,0.0,0.0,0.0,0.0,0.0,0.0,0.0,0.0,0.0,0.0,0.0,0.0,0.0,0.0,0.0,0.0,0.0,0.0,0.0,0.0,0.0,0.0,0.0,0.0,0.0,0.0,0.0,0.0,0.0,0.0,0.0,0.0,0.0,0.0,0.0,0.0,0.0,0.0,0.0,0.0,0.0,0.0,0.0,0.0,0.0,0.0,0.0,0.0,0.0,0.0,0.0,0.0,0.0,0.0,0.0,0.0,0.0,0.0,0.0,0.0,0.0,0.0,0.0,0.0,0.0,0.0,0.0,0.0,0.0,0.0,0.0,0.0,0.0,0.0,0.0,0.0,0.0,0.0,0.0,0.0,0.0,0.0,0.0,0.0,0.0,0.0,0.0,0.0,0.0,0.0,0.0,0.0,0.0,0.0,0.0,0.0,-3.2976,-3.3086,-3.3024,-3.3009,-3.3009,-3.3005,-3.2266,-3.2154,-3.2971,-3.1561,0.0,0.0,0.0,0.0,0.0,0.0,0.0,0.0,0.0,0.0,0.0,0.0,0.0,0.0,0.0,0.0,0.0,0.0,0.0,0.0,0.0,0.0,0.0,0.0,0.0,0.0,0.0,0.0,0.0,0.0,0.0,0.0,0.0,0.0,0.0,0.0,0.0,0.0,0.0,0.0,0.0,0.0,0.0,0.0,0.0,0.0,0.0,0.0,0.0,0.0,0.0,0.0,0.0,0.0,0.0,0.0,0.0,0.0,0.0,0.0,0.0,0.0,0.0,0.0,0.0,0.0,0.0,0.0,0.0,0.0,0.0,0.0,0.0,0.0,0.0,0.0,0.0,0.0,0.0,0.0,0.0,0.0,0.0,0.0,0.0,0.0,0.0,0.0,0.0,0.0,0.0,0.0,0.0,0.0,0.0,0.0,0.0,0.0,0.0,0.0,0.0,0.0,-3.4193,-3.4478,0.0,-3.3865,-3.3879,-3.3905,-3.3171,-3.2807,-3.3054,0.0,0.0,0.0,0.0,0.0,0.0,0.0,0.0,0.0,0.0,0.0,0.0,0.0,0.0,0.0,0.0,0.0,0.0,0.0,0.0,0.0,0.0,0.0,0.0,0.0,0.0,0.0,0.0,0.0,0.0,0.0,0.0,0.0,0.0,0.0,0.0,0.0,0.0,0.0,0.0,0.0,0.0,0.0,0.0,0.0,0.0,0.0,0.0,0.0,0.0,0.0,0.0,0.0,0.0,0.0,0.0,0.0,0.0,0.0,0.0,0.0,0.0,0.0,0.0,0.0,0.0,0.0,0.0,0.0,0.0,0.0,0.0,0.0,0.0,0.0,0.0,0.0,0.0,0.0,0.0,0.0,0.0,0.0,0.0,0.0,0.0,0.0,0.0,0.0,0.0,0.0,0.0,0.0,0.0,0.0,0.0,0.0,0.0,0.0,0.0,0.0,0.0,-3.4238,-3.5078,-3.5411,0.0,-3.4759,-3.4759,-3.4814,-3.4086,-3.3674,-3.3823,0.0,0.0,0.0,0.0,0.0,0.0,0.0,0.0,0.0,0.0,0.0,0.0,0.0,0.0,0.0,0.0,0.0,0.0,0.0,0.0,0.0,0.0,0.0,0.0,0.0,0.0,0.0,0.0,0.0,0.0,0.0,0.0,0.0,0.0,0.0,0.0,0.0,0.0,0.0,0.0,0.0,0.0,0.0,0.0,0.0,0.0,0.0,0.0,0.0,0.0,0.0,0.0,0.0,0.0,0.0,0.0,0.0,0.0,0.0,0.0,0.0,0.0,0.0,0.0,0.0,0.0,0.0,0.0,0.0,0.0,0.0,0.0,0.0,0.0,0.0,0.0,0.0,0.0,0.0,0.0,0.0,0.0,0.0,0.0,0.0,0.0,0.0,0.0,0.0,0.0,0.0,0.0,0.0,0.0,0.0,0.0,0.0,0.0,0.0,0.0,0.0,0.0,-3.4991,-3.5444,-3.5704,-3.5704,-3.5704,-3.5704,-3.5709,-3.4977,-3.4817,0.0,0.0,0.0,0.0,0.0,0.0,0.0,0.0,0.0,0.0,0.0,0.0,0.0,0.0,0.0,0.0,0.0,0.0,0.0,0.0,0.0,0.0,0.0,0.0,0.0,0.0,0.0,0.0,0.0,0.0,0.0,0.0,0.0,0.0,0.0,0.0,0.0,0.0,0.0,0.0,0.0,0.0,0.0,0.0,0.0,0.0,0.0,0.0,0.0,0.0,0.0,0.0,0.0,0.0,0.0,0.0,0.0,0.0,0.0,0.0,0.0,0.0,0.0,0.0,0.0,0.0,0.0,0.0,0.0,0.0,0.0,0.0,0.0,0.0,0.0,0.0,0.0,0.0,0.0,0.0,0.0,0.0,0.0,0.0,0.0,0.0,0.0,0.0,0.0,0.0,0.0,0.0,0.0,0.0,0.0,0.0,0.0,0.0,0.0,0.0,0.0,0.0,0.0,-3.5068,-3.5444,-3.5704,-3.5704,-3.5704,-3.5695,-3.5692,-3.5438,-3.5342,-3.5521,0.0,0.0,0.0,0.0,0.0,0.0,0.0,0.0,0.0,0.0,0.0,0.0,0.0,0.0,0.0,0.0,0.0,0.0,0.0,0.0,0.0,0.0,0.0,0.0,0.0,0.0,0.0,0.0,0.0,0.0,0.0,0.0,0.0,0.0,0.0,0.0,0.0,0.0,0.0,0.0,0.0,0.0,0.0,0.0,0.0,0.0,0.0,0.0,0.0,0.0,0.0,0.0,0.0,0.0,0.0,0.0,0.0,0.0,0.0,0.0,0.0,0.0,0.0,0.0,0.0,0.0,0.0,0.0,0.0,0.0,0.0,0.0,0.0,0.0,0.0,0.0,0.0,0.0,0.0,0.0,0.0,0.0,0.0,0.0,0.0,0.0,0.0,0.0,0.0,0.0,0.0,0.0,0.0,0.0,0.0,0.0,0.0,0.0,0.0,0.0,0.0,0.0,-3.5106,-3.5444,-3.5704,-3.5704,-3.5704,-3.5684,-3.566,-3.5618,-3.554,-3.543,0.0,0.0,0.0,0.0,0.0,0.0,0.0,0.0,0.0,0.0,0.0,0.0,0.0,0.0,0.0,0.0,0.0,0.0,0.0,0.0,0.0,0.0,0.0,0.0,0.0,0.0,0.0,0.0,0.0,0.0,0.0,0.0,0.0,0.0,0.0,0.0,0.0,0.0,0.0,0.0,0.0,0.0,0.0,0.0,0.0,0.0,0.0,0.0,0.0,0.0,0.0,0.0,0.0,0.0,0.0,0.0,0.0,0.0,0.0,0.0,0.0,0.0,0.0,0.0,0.0,0.0,0.0,0.0,0.0,0.0,0.0,0.0,0.0,0.0,0.0,0.0,0.0,0.0,0.0,0.0,0.0,0.0,0.0,0.0,0.0,0.0,0.0,0.0,0.0,0.0,0.0,0.0,0.0,0.0,0.0,0.0,0.0,0.0,0.0,0.0,0.0,0.0,-3.5106,-3.5444,-3.5704,-3.5704,-3.5684,-3.5676,-3.5604,-3.5577,-3.5496,-3.5323,0.0,0.0,0.0,0.0,0.0,0.0,0.0,0.0,0.0,0.0,0.0,0.0,0.0,0.0,0.0,0.0,0.0,0.0,0.0,0.0,0.0,0.0,0.0,0.0,0.0,0.0,0.0,0.0,0.0,0.0,0.0,0.0,0.0,0.0,0.0,0.0,0.0,0.0,0.0,0.0,0.0,0.0,0.0,0.0,0.0,0.0,0.0,0.0,0.0,0.0,0.0,0.0,0.0,0.0,0.0,0.0,0.0,0.0,0.0,0.0,-2.9932,0.0,0.0,0.0,0.0,0.0,0.0,0.0,0.0,0.0,0.0,0.0,0.0,0.0,0.0,0.0,0.0,0.0,0.0,0.0,0.0,0.0,0.0,0.0,0.0,0.0,0.0,0.0,0.0,0.0,0.0,0.0,0.0,0.0,0.0,0.0,0.0,0.0,0.0,0.0,0.0,0.0,-3.5106,-3.5444,-3.5704,-3.5704,-3.5645,-3.5622,-3.5595,-3.5457,-3.5367,-3.5372,0.0,0.0,0.0,0.0,0.0,0.0,0.0,0.0,0.0,0.0,0.0,0.0,0.0,0.0,0.0,0.0,0.0,0.0,0.0,0.0,0.0,0.0,0.0,0.0,0.0,0.0,0.0,0.0,0.0,0.0,0.0,0.0,0.0,0.0,0.0,0.0,0.0,0.0,0.0,0.0,0.0,0.0,0.0,0.0,0.0,0.0,0.0,0.0,0.0,0.0,0.0,0.0,0.0,0.0,0.0,0.0,0.0,0.0,0.0,0.0,0.0,-2.982,0.0,0.0,0.0,0.0,0.0,0.0,0.0,0.0,0.0,0.0,0.0,0.0,0.0,0.0,0.0,0.0,0.0,0.0,0.0,0.0,0.0,0.0,0.0,0.0,0.0,0.0,0.0,0.0,0.0,0.0,0.0,0.0,0.0,0.0,0.0,0.0,0.0,0.0,0.0,0.0,-3.5106,-3.5444,-3.5668,-3.5565,-3.5578,-3.5547,-3.5416,-3.5345,-3.53,-3.5304,-3.5266,0.0,0.0,0.0,0.0,0.0,0.0,0.0,0.0,0.0,0.0,0.0,0.0,0.0,0.0,0.0,0.0,0.0,0.0,0.0,0.0,0.0,0.0,0.0,0.0,0.0,0.0,0.0,0.0,0.0,0.0,0.0,0.0,0.0,0.0,0.0,0.0,0.0,0.0,0.0,0.0,0.0,0.0,0.0,0.0,0.0,0.0,0.0,0.0,0.0,0.0,0.0,0.0,0.0,-2.9177,-2.9177,-2.9177,-2.9177,-2.918,-2.9175,-2.9246,-2.9398,-2.9635,0.0,0.0,0.0,0.0,0.0,0.0,0.0,0.0,0.0,0.0,0.0,0.0,0.0,0.0,0.0,0.0,0.0,0.0,0.0,0.0,0.0,0.0,0.0,0.0,0.0,-3.3628,-3.3655,0.0,0.0,0.0,0.0,0.0,0.0,0.0,0.0,0.0,0.0,0.0,0.0,-3.5143,-3.5457,-3.5608,-3.5412,-3.5496,-3.5442,-3.5226,-3.5246,-3.5262,-3.519,-3.5209,-3.4944,0.0,0.0,0.0,0.0,0.0,0.0,0.0,0.0,0.0,0.0,0.0,0.0,0.0,0.0,0.0,0.0,0.0,0.0,0.0,0.0,0.0,0.0,0.0,0.0,0.0,0.0,0.0,0.0,0.0,0.0,0.0,0.0,-3.3408,-3.3452,0.0,0.0,0.0,0.0,0.0,0.0,0.0,0.0,0.0,0.0,0.0,0.0,0.0,-3.0412,-2.9652,-2.9717,-2.9379,-2.8682,-2.8682,-2.8682,-2.8682,-2.8682,-2.8694,-2.8694,-2.8706,0.0,-2.9349,-2.9349,0.0,0.0,0.0,0.0,0.0,0.0,0.0,0.0,0.0,0.0,0.0,0.0,0.0,0.0,0.0,0.0,0.0,0.0,0.0,0.0,0.0,0.0,-3.3589,-3.4353,-3.4525,-3.4727,0.0,-3.4967,-3.4439,-3.4435,-3.5084,0.0,0.0,0.0,0.0,0.0,0.0,0.0,-3.5354,-3.5509,-3.556,-3.5424,-3.5362,-3.53,-3.5218,-3.5218,-3.5218,-3.5209,-3.5242,-3.5243,-3.5155,-3.4462,0.0,0.0,0.0,0.0,0.0,0.0,0.0,0.0,0.0,0.0,0.0,0.0,0.0,0.0,0.0,0.0,0.0,0.0,0.0,0.0,0.0,0.0,0.0,0.0,0.0,0.0,0.0,0.0,0.0,-3.3393,-3.3393,-3.3393,-3.3393,-3.3252,0.0,0.0,0.0,0.0,0.0,0.0,0.0,0.0,0.0,-3.0961,-3.0948,-3.0785,-3.0437,-3.0446,-3.031,-2.9952,-2.9952,-2.9952,-2.9952,-2.9952,-2.9952,-2.9952,-2.9952,-3.0059,-3.0198,-2.9447,-2.9266,-2.9476,0.0,0.0,0.0,0.0,-3.0015,-3.0157,-3.0187,-3.0202,0.0,0.0,0.0,0.0,0.0,0.0,0.0,0.0,0.0,0.0,0.0,0.0,0.0,-3.5341,-3.5408,-3.5472,-3.5821,-3.5596,-3.5311,0.0,-3.5558,-3.5806,-3.5803,0.0,0.0,0.0,0.0,0.0,-3.5399,-3.5552,-3.5601,-3.5419,-3.5417,-3.5348,-3.5211,-3.5198,-3.5209,-3.5209,-3.5226,-3.525,-3.5297,-3.4951,-3.4573,0.0,0.0,0.0,0.0,0.0,0.0,0.0,0.0,0.0,0.0,0.0,0.0,0.0,0.0,0.0,0.0,0.0,0.0,0.0,0.0,0.0,0.0,0.0,0.0,0.0,0.0,0.0,0.0,-3.3393,-3.3393,-3.3393,-3.3393,-3.3382,0.0,0.0,0.0,0.0,0.0,0.0,-3.2408,-3.1802,-3.1488,-3.1544,-3.152,-3.1444,-3.1283,-3.1292,-3.1197,-3.0998,-3.0998,-3.0998,-3.0998,-3.0998,-3.0998,-3.0998,-3.0998,-3.0998,-3.0921,-2.9929,-2.963,-2.9837,-2.9837,-3.0044,-3.0337,-3.0337,-3.0513,-3.0746,-3.0742,-3.0764,-3.0833,-3.101,0.0,-3.2582,-3.2898,0.0,0.0,0.0,0.0,-3.5175,-3.5823,-3.5992,-3.5991,-3.5988,-3.5933,-3.5897,-3.589,-3.5888,-3.5861,0.0,-3.5803,-3.5786,-3.578,0.0,0.0,0.0,0.0,-3.5477,-3.5483,-3.5587,-3.5604,-3.5419,-3.547,-3.543,-3.5224,-3.5239,-3.5242,-3.5209,-3.5209,-3.5226,-3.5304,-3.5297,-3.5028,-3.4419,0.0,0.0,0.0,0.0,0.0,0.0,0.0,0.0,0.0,0.0,0.0,0.0,0.0,0.0,0.0,0.0,0.0,0.0,0.0,0.0,0.0,0.0,0.0,0.0,0.0,0.0,0.0,0.0,0.0,-3.3393,-3.3393,0.0,0.0,0.0,0.0,-3.3396,-3.3301,-3.3238,-3.3238,-3.3075,-3.2975,-3.2991,-3.3103,-3.2805,-3.2047,-3.2115,-3.1763,-3.0998,-3.0998,-3.0998,-3.0998,-3.0998,-3.0998,-3.0998,-3.0998,-3.0998,-3.0998,-3.0939,-3.1065,-3.1286,-3.1286,-3.1611,-3.2072,-3.2072,-3.2239,-3.2469,-3.2469,-3.2483,-3.252,-3.2779,-3.3591,-3.4617,-3.5457,-3.5733,0.0,0.0,-3.5933,-3.5936,-3.5983,-3.5992,-3.5988,-3.5914,-3.589,-3.5903,-3.5895,-3.5853,-3.5811,0.0,-3.5846,-3.5782,-3.5718,0.0,-3.5689,-3.5683,-3.5676,-3.569,-3.5672,-3.5631,-3.5553,-3.5412,-3.547,-3.543,-3.5224,-3.5315,-3.5327,-3.5218,-3.5209,-3.5226,-3.5304,-3.5293,-3.527,-3.5231,-3.4496,0.0,0.0,0.0,0.0,0.0,0.0,0.0,0.0,0.0,0.0,0.0,0.0,0.0,0.0,0.0,0.0,0.0,0.0,0.0,0.0,0.0,0.0,0.0,0.0,0.0,0.0,0.0,0.0,-3.3393,-3.3393,0.0,0.0,-3.3337,-3.3307,-3.3211,-3.318,-3.3214,-3.331,-3.3651,-3.3921,-3.4063,-3.4571,-3.4731,-3.4488,-3.4501,-3.4356,-3.4099,-3.4099,-3.4099,-3.4081,-3.3556,-3.3321,-3.3284,-3.2777,-3.2542,-3.2542,-3.2542,-3.1978,-3.1136,-3.1136,-3.1347,-3.1633,-3.1818,-3.2077,-3.2371,-3.2539,-3.2605,-3.2737,-3.3562,-3.4119,-3.4656,-3.5618,-3.5908,-3.5902,-3.5926,-3.5964,-3.5994,-3.5993,-3.5977,-3.5935,-3.5908,-3.5897,-3.5895,-3.5905,-3.585,-3.5818,-3.5838,-3.5826,-3.5786,-3.5775,-3.5737,-3.5699,-3.5693,-3.5706,-3.569,-3.5701,-3.567,-3.564,-3.559,-3.5575,-3.554,-3.5451,-3.5383,-3.5323,-3.5327,-3.525,-3.5209,-3.5226,-3.5277,-3.5293,-3.5289,-3.5069,-3.4697,0.0,0.0,0.0,0.0,0.0,0.0,0.0,0.0,0.0,0.0,0.0,0.0,0.0,0.0,0.0,0.0,0.0,0.0,0.0,0.0,0.0,0.0,0.0,0.0,0.0,0.0,-3.3393,-3.3393,-3.3393,-3.3472,-3.3653,-3.3704,-3.3782,-3.3908,-3.391,-3.3944,-3.3993,-3.4399,-3.4684,-3.4864,-3.5369,-3.564,-3.5706,-3.5772,-3.577,-3.572,-3.577,-3.5804,-3.5768,-3.5243,-3.4989,-3.4971,-3.4443,-3.4208,-3.419,-3.3918,-3.3176,-3.218,-3.1908,-3.196,-3.2186,-3.245,-3.2745,-3.3061,-3.3323,-3.344,-3.3616,-3.4411,-3.4747,-3.4969,-3.5674,-3.5903,-3.5897,-3.5894,-3.596,-3.5993,-3.5996,-3.594,-3.5908,-3.5908,-3.5908,-3.5901,-3.5901,-3.585,-3.5795,-3.5795,-3.5795,-3.5806,-3.5803,-3.577,-3.5728,-3.5693,-3.5692,-3.5695,-3.5709,-3.5701,-3.5697,-3.5707,-3.5657,-3.5615,-3.5596,-3.5477,-3.5409,-3.5429,-3.5357,-3.53,-3.5296,-3.5338,-3.5372,-3.5372,-3.545,-3.5245,-3.4689,0.0,0.0,0.0,0.0,0.0,0.0,0.0,0.0,0.0,0.0,0.0,0.0,0.0,0.0,0.0,0.0,0.0,0.0,0.0,0.0,0.0,0.0,0.0,-3.3556,-3.3447,-3.3447,-3.3429,-3.3447,-3.371,-3.4359,-3.4563,-3.4873,-3.5454,-3.5491,-3.5476,-3.5427,-3.5308,-3.5308,-3.5463,-3.553,-3.558,-3.558,-3.5778,-3.581,-3.5676,-3.5808,-3.5858,-3.5858,-3.584,-3.584,-3.584,-3.5804,-3.5804,-3.5731,-3.4953,-3.4627,-3.457,-3.3719,-3.3563,-3.3815,-3.4086,-3.4351,-3.4636,-3.4917,-3.5079,-3.5212,-3.536,-3.5532,-3.5711,-3.5861,-3.5905,-3.5897,-3.5892,-3.5958,-3.5992,-3.5996,-3.5941,-3.5908,-3.5906,-3.5908,-3.5901,-3.5901,-3.5846,-3.5795,-3.5795,-3.5795,-3.5806,-3.5808,-3.5803,-3.5785,-3.5718,-3.5707,0.0,-3.569,-3.5709,-3.5695,-3.5702,-3.5707,-3.5667,-3.5612,-3.5606,-3.5577,-3.5515,-3.549,-3.5502,-3.5495,-3.5501,-3.5501,-3.5501,-3.5634,-3.5708,-3.5693,0.0,0.0,0.0,0.0,0.0,0.0,0.0,0.0,0.0,0.0,0.0,0.0,0.0,0.0,0.0,0.0,0.0,0.0,0.0,0.0,0.0,0.0,-3.5188,-3.4389,-3.428,-3.4232,-3.4135,-3.4643,-3.5076,-3.5243,-3.5235,-3.5343,-3.5688,-3.5526,-3.5493,-3.5674,-3.613,-3.642,-3.6555,-3.7131,-3.7455,-3.7455,-3.7505,-3.7522,-3.7489,-3.7522,-3.754,-3.7522,-3.6941,-3.6669,-3.6651,-3.6055,-3.5804,-3.5768,-3.555,-3.546,-3.5333,-3.3954,-3.3452,-3.3534,-3.382,-3.4196,-3.4651,-3.4955,-3.511,-3.5157,-3.5339,-3.5444,-3.5532,-3.5819,-3.5908,-3.5905,-3.5897,-3.5912,-3.5938,-3.5992,-3.5955,-3.5892,-3.5892,-3.5891,-3.5895,-3.5842,-3.5803,-3.5795,-3.5795,-3.5795,-3.5795,-3.5806,-3.5793,-3.5794,-3.5785,-3.5733,0.0,-3.5697,-3.5701,-3.5709,-3.5695,-3.5701,-3.5681,-3.5667,-3.5626,-3.5583,-3.5568,-3.5527,-3.5502,-3.5495,-3.5501,-3.5526,-3.557,-3.5604,-3.5655,0.0,0.0,0.0,0.0,0.0,0.0,0.0,0.0,0.0,0.0,0.0,0.0,0.0,0.0,0.0,0.0,0.0,0.0,0.0,0.0,0.0,0.0,-3.6309,-3.6112,-3.5593,-3.5281,-3.5049,-3.4918,-3.5365,-3.5874,-3.6425,-3.6531,-3.6836,-3.7467,-3.7451,-3.7433,-3.7521,-3.7899,-3.8133,-3.8204,-3.876,-3.9012,-3.8995,-3.9118,-3.8972,-3.8611,-3.8681,-3.8535,-3.8191,-3.772,-3.7502,0.0,-3.6997,-3.6816,-3.6779,-3.6435,-3.6309,0.0,0.0,0.0,0.0,0.0,-3.4239,-3.463,-3.4917,-3.5011,-3.5037,-3.522,-3.5325,-3.5457,-3.5708,-3.583,-3.5908,-3.59,-3.5897,-3.5905,-3.5958,-3.5937,-3.5905,-3.5892,-3.5902,-3.5882,-3.5801,-3.5807,-3.5795,-3.5795,-3.5795,0.0,-3.5795,-3.5806,-3.5793,-3.5803,-3.5776,-3.5737,-3.5703,-3.5693,-3.5697,-3.5706,-3.5706,-3.5706,-3.5692,-3.5668,0.0,0.0,0.0,-3.5604,-3.5629,-3.5629,0.0,0.0,0.0,-3.5749,-3.5788,0.0,0.0,0.0,-3.4628,-3.4166,0.0,0.0,0.0,0.0,0.0,0.0,0.0,0.0,0.0,0.0,0.0,0.0,0.0,0.0,0.0,0.0,-3.714,-3.7125,-3.7098,-3.657,-3.6116,-3.5892,-3.6031,-3.665,-3.7882,-3.8238,-3.8851,-3.9884,-4.0124,-4.0143,-3.9972,0.0,0.0,0.0,0.0,-4.0199,-4.0142,-4.0384,-4.0112,-3.9354,-3.9461,-3.9097,-3.8354,-3.8354,-3.8299,-3.8209,-3.8209,-3.8209,-3.8154,-3.743,-3.714,-3.7049,-3.6164,-3.5351,-3.4718,-3.4534,-3.4619,-3.4864,-3.5095,0.0,0.0,-3.5224,-3.5377,-3.5534,-3.5577,-3.573,-3.5882,-3.5897,-3.5892,-3.5898,-3.5901,-3.5895,-3.5895,-3.5898,-3.589,-3.588,-3.5814,-3.5807,-3.5807,-3.5803,-3.5815,-3.5811,-3.5811,-3.5803,-3.581,-3.5808,-3.5803,-3.5775,-3.5713,-3.5708,-3.5699,-3.5693,0.0,0.0,-3.5695,-3.5709,-3.5692,-3.5704,-3.5713,-3.5732,-3.5795,-3.5795,-3.5799,-3.5803,-3.5879,-3.5897,-3.5892,-3.597,-3.6002,-3.5982,-3.5931,-3.5504,0.0,0.0,0.0,0.0,0.0,0.0,0.0,0.0,0.0,0.0,0.0,0.0,0.0,0.0,0.0,-3.7973,-3.7973,-3.8192,-3.8809,-3.879,-3.8394,-3.7538,-3.8042,-3.8833,-3.9788,-3.9787,-3.9894,-4.0347,-4.0384,-4.0365,-4.0384,-4.0384,0.0,-4.0384,-4.042,-4.0438,-4.042,-4.0474,-4.042,-4.0257,0.0,0.0,-3.9187,-3.9187,-3.8808,-3.8209,-3.8209,-3.8209,-3.8191,-3.8028,-3.7973,-3.7828,-3.6381,-3.5695,-3.561,-3.5992,-3.6173,-3.6267,-3.6745,-3.6917,-3.6833,-3.631,-3.6209,-3.6185,-3.5681,-3.566,0.0,-3.5882,-3.5897,-3.5909,-3.5896,-3.5892,-3.5906,-3.5898,-3.5897,-3.5891,-3.5883,-3.5874,-3.5885,-3.5877,-3.5883,-3.5872,-3.5872,-3.5841,-3.5795,-3.581,-3.5793,-3.5799,-3.5775,-3.5737,-3.5704,-3.5699,-3.5698,-3.5707,-3.5702,-3.5701,-3.5692,-3.5704,-3.5741,-3.5786,-3.5795,-3.5795,-3.5834,-3.5887,-3.5891,-3.5902,-3.5903,-3.598,-3.5963,-3.5917,-3.5955,-3.5899,0.0,0.0,0.0,0.0,0.0,0.0,0.0,0.0,0.0,0.0,0.0,-3.8209,0.0,0.0,-3.8336,-3.8752,-3.8807,-3.9061,-3.9805,-3.9913,-3.9751,-3.9211,-3.9536,-4.0095,-4.0833,-4.0905,-4.1085,-4.152,-4.1574,-4.1593,-4.1538,-4.1538,-4.1538,-4.1538,-4.1612,-4.1649,-4.1649,-4.1668,-4.1506,-4.1089,-4.1089,-4.0691,-3.9948,-3.9948,-3.9532,-3.8807,-3.8807,-3.8554,-3.8209,-3.8209,-3.8209,-3.8118,-3.7305,-3.6761,-3.6409,-3.6401,-3.648,-3.6663,-3.7051,-3.7297,-3.7354,-3.7053,-3.7029,-3.7067,-3.6826,-3.6864,-3.7025,-3.715,-3.7202,-3.72,-3.7198,-3.7197,-3.7193,-3.7201,-3.6869,-3.6543,-3.6543,-3.6208,-3.5906,-3.5902,-3.5905,-3.5908,-3.5908,-3.5866,-3.5846,-3.5807,-3.5806,-3.5797,-3.5797,-3.5769,-3.5756,-3.5747,-3.5752,-3.5737,-3.5688,-3.5707,-3.5703,-3.5742,-3.5778,-3.5795,-3.5795,-3.5795,-3.5827,-3.5905,-3.5902,-3.5896,-3.5901,-3.597,-3.5972,-3.5948,-3.5973,-3.5987,0.0,0.0,0.0,0.0,0.0,0.0,0.0,0.0,-3.8209,-3.8209,-3.8209,-3.8209,-3.8209,-3.8336,-3.8662,-3.9278,-3.9514,-3.9858,-4.0546,-4.0709,-4.0764,-4.0872,-4.0763,-4.098,-4.1643,-4.1828,-4.2118,-4.2614,-4.2746,-4.2765,-4.265,-4.265,-4.265,-4.265,-4.2765,-4.2822,-4.2822,-4.2862,-4.2574,-4.1922,-4.1922,-4.1506,-4.0727,-4.0727,-4.0329,-3.9604,-3.946,-3.9025,-3.8426,-3.8263,-3.8209,-3.8209,-3.8209,-3.781,-3.7191,-3.6796,-3.6842,-3.7115,-3.7386,-3.766,-3.7874,-3.7763,-3.7823,-3.7929,-3.7968,-3.8063,-3.821,-3.8422,-3.8494,-3.85,-3.85,-3.8505,-3.8502,-3.8508,-3.7954,-3.7454,-3.7442,-3.6891,-3.6366,-3.6209,-3.6165,-3.61,-3.5923,-3.5899,-3.5873,-3.5822,-3.5823,-3.5815,-3.5799,-3.5795,-3.5806,-3.5808,-3.5803,-3.5766,-3.5718,-3.5694,-3.5727,-3.5806,-3.5811,-3.5827,-3.5822,-3.5822,-3.5837,-3.5892,-3.5901,-3.5905,-3.5917,-3.5956,-3.5974,-3.5976,-3.5976,-3.5955,-3.8274,-3.8209,-3.8209,-3.8209,-3.8209,-3.8209,0.0,0.0,-3.8209,-3.8209,-3.8209,-3.8209,-3.8209,-3.8788,-3.9297,-3.9387,-3.9948,-4.0655,-4.1433,-4.156,-4.1831,-4.2538,-4.1938,-4.1811,-4.2645,-4.2697,-4.2733,-4.2844,-4.2881,-4.2881,-4.2881,-4.2881,-4.2881,-4.2881,-4.2881,-4.29,-4.29,-4.29,-4.2865,-4.2755,-4.2755,-4.2339,-4.156,-4.156,-4.1126,-4.0329,-3.9677,-3.9351,-3.9206,-3.8499,-3.8209,-3.8209,-3.8209,-3.8154,-3.8097,-3.8256,-3.8516,-3.8789,-3.9114,-3.9406,-3.9502,-3.8803,-3.8669,-3.8659,-3.8086,-3.7996,-3.8155,-3.835,-3.8458,-3.85,-3.85,-3.8503,-3.8505,-3.85,-3.843,-3.8344,-3.8351,-3.828,-3.7999,-3.7274,-3.7101,-3.6816,-3.6035,-3.5909,-3.5901,-3.5889,-3.59,-3.5876,-3.5807,-3.5795,-3.5795,-3.5791,-3.5793,-3.577,-3.5704,-3.5704,-3.5735,-3.5791,-3.5852,-3.5883,-3.5882,-3.5884,-3.5893,-3.5908,-3.5894,-3.5937,-3.5995,-3.5937,-3.5918,-3.5917,-3.5917,-3.5937,-3.8224,-3.8209,0.0,0.0,-3.8209,-3.8209,-3.8209,-3.8209,-3.8209,-3.8209,-3.8209,-3.8354,-3.8808,-3.917,-3.9695,0.0,-4.0999,-4.1469,-4.2285,-4.2393,-4.252,-4.2846,-4.2592,-4.25,-4.2846,-4.2881,-4.2862,-4.29,-4.2901,-4.2901,-4.2901,-4.2901,-4.2901,-4.2901,-4.2901,-4.2901,-4.2901,-4.2901,-4.2901,-4.2901,-4.2901,-4.2719,-4.2393,-4.2393,-4.1959,-4.1162,-4.0383,-4.0039,-3.9985,-3.9206,-3.8915,-3.8861,-3.839,-3.8209,-3.8225,-3.8322,-3.8643,-3.9022,-3.9163,-3.9501,-3.9854,-3.9556,-3.9494,-3.9518,-3.9352,-3.942,-3.9584,-3.9743,-3.991,-4.0019,-4.0019,-4.0019,-4.0019,-4.0019,-3.963,-3.926,-3.9265,-3.8865,-3.8405,-3.8064,-3.7975,-3.7698,-3.6861,-3.6714,-3.6523,-3.5985,-3.5907,-3.5886,-3.5863,-3.586,-3.586,-3.586,-3.5869,-3.5841,-3.5825,-3.5816,-3.5828,-3.5864,-3.5871,-3.59,-3.5893,-3.5895,-3.5905,-3.5897,-3.5898,-3.5935,-3.6,-3.5979,-3.5961,-3.5963,-3.5966,-3.5964,-3.8209,0.0,0.0,-3.8209,-3.8209,-3.8209,-3.8209,-3.8209,-3.8263,-3.8499,-3.8535,-3.8753,-3.955,-3.9876,0.0,-4.1524,-4.1886,-4.223,-4.2829,-4.2901,-4.2901,-4.2901,-4.2901,-4.2901,-4.2901,-4.2901,-4.2901,-4.2901,-4.2901,-4.2901,-4.2901,-4.2901,-4.2901,-4.2901,-4.2901,-4.2901,-4.2901,-4.2901,-4.2901,-4.2901,-4.2901,-4.2901,-4.2901,-4.2901,-4.2574,-4.1995,-4.118,-4.0836,-4.0764,-4.0021,-3.9695,-3.9641,-3.9061,-3.8826,-3.8808,-3.8625,-3.8677,-3.89,-3.8966,-3.9345,-3.9804,-3.9933,-3.9975,-4.0008,-4.0212,-4.038,-4.0544,-4.069,-4.0882,-4.1041,-4.1041,-4.1075,-4.1107,-4.1107,-4.062,-4.0156,-4.0156,-3.9655,-3.9157,-3.8909,-3.8865,-3.8608,-3.7773,-3.7448,-3.7071,-3.6384,-3.6074,-3.593,-3.5896,-3.5895,-3.5895,-3.5895,-3.5907,-3.5905,-3.5893,-3.5907,-3.591,-3.5905,-3.5906,-3.5908,-3.5933,-3.5933,-3.5936,-3.5936,-3.5933,-3.5944,-3.5999,-3.6009,-3.6005,-3.6009,-3.5997,-3.5997,0.0,0.0,-3.8209,-3.8209,-3.8209,-3.8209,-3.8209,-3.8209,-3.8426,-3.9188,-3.9351,-3.9586,-4.0329,-4.1089,-4.165,-4.1687,-4.2357,-4.2883,-4.2901,-4.2901,-4.2901,-4.2901,-4.2901,-4.2901,0.0,-4.2901,-4.2901,-4.2901,-4.2901,-4.2901,-4.2901,-4.2901,-4.2901,-4.2901,-4.2901,-4.2901,-4.2901,-4.2901,-4.2901,-4.2901,-4.2901,-4.2901,-4.2901,-4.2901,-4.2901,-4.2829,-4.1994,-4.165,-4.1596,-4.08,-4.0456,-4.0456,-4.0438,-4.042,-4.0329,-3.9623,-3.9026,-3.8643,-3.8915,-3.9216,-3.9563,-3.9834,-3.99,-3.9935,-4.0138,-4.0255,-4.034,-4.0556,-4.0746,-4.0912,-4.0912,-4.0996,-4.1107,-4.1107,-4.1088,-4.1049,-4.1049,-4.1033,-4.0763,-3.992,-3.9767,-3.9482,-3.8612,-3.7814,-3.729,-3.7262,-3.6542,-3.5971,-3.5901,-3.5895,-3.5895,-3.5895,-3.5907,-3.5905,-3.5893,-3.5907,-3.59,-3.5898,-3.5898,-3.5936,-3.5996,-3.5995,-3.5995,-3.5994,-3.6006,-3.6001,-3.5999,-3.6009,-3.6009,-3.5999,-3.5999,-3.6004,0.0,0.0,-3.8209,-3.8209,-3.8209,-3.8354,-3.8862,-3.9006,-3.9206,-3.9967,-4.013,-4.0383,-4.1144,-4.1524,-4.1868,-4.2411,-4.2719,-4.2901,-4.2901,-4.2901,-4.2901,-4.2901,-4.2901,0.0,0.0,0.0,0.0,-4.2901,-4.2901,-4.2901,-4.2901,-4.2901,-4.2901,-4.2901,-4.2901,-4.2901,-4.2901,-4.2901,-4.2901,-4.2901,-4.2901,-4.2901,-4.2901,-4.2901,-4.2901,-4.2883,-4.2611,-4.2502,-4.2429,-4.1614,-4.1288,-4.1234,-4.0709,-4.0492,-4.0474,-4.022,-4.0019,-3.9771,-3.9198,-3.9216,-3.9551,-3.9804,-3.99,-3.9922,-4.003,-4.0186,-4.0326,-4.0442,-4.061,-4.0796,-4.0869,-4.093,-4.0988,-4.1078,-4.1107,-4.1107,-4.1107,-4.1107,-4.1013,-4.0724,-4.0658,-4.0396,-3.9507,-3.915,-3.8578,-3.7476,-3.6558,-3.5999,-3.5973,-3.5974,-3.5974,-3.5974,-3.5975,-3.5975,-3.5974,-3.5975,-3.5973,-3.5967,-3.5966,-3.5983,-3.5992,-3.5992,-3.5992,-3.5992,-3.6009,-3.6007,-3.6007,-3.6006,-3.6002,-3.5999,-3.6006,-3.6006,-3.8587,-3.8644,-3.8681,-3.8952,-3.9025,-3.9152,-3.9677,-3.9786,-4.0003,-4.0764,-4.0926,-4.1162,-4.1976,-4.214,-4.2303,-4.2829,-4.2901,-4.2901,-4.2901,-4.2901,-4.2901,-4.2901,-4.2901,0.0,0.0,0.0,0.0,-4.2901,-4.2901,-4.2901,-4.2901,-4.2901,-4.2901,-4.2901,-4.2901,-4.2901,-4.2901,-4.2901,-4.2901,-4.2901,-4.2901,-4.2901,-4.2901,-4.2901,-4.2901,-4.2901,-4.2901,-4.2901,-4.2846,-4.2339,-4.214,-4.2085,-4.156,-4.1361,-4.1325,-4.1017,-4.0926,-4.0834,-4.0129,-4.0044,-4.0276,-4.0669,-4.0601,-4.0366,-4.0428,-4.0318,-4.0204,-4.0269,-4.0446,-4.0629,-4.0724,-4.0782,-4.0849,-4.0935,-4.0992,-4.103,-4.103,-4.1071,-4.1107,-4.1107,-4.1103,-4.0922,-4.0357,-4.001,-3.9343,-3.7965,-3.7251,-3.6659,-3.6069,-3.5992,-3.5992,-3.5992,-3.5992,-3.5992,-3.5992,-3.5992,-3.5988,-3.5974,-3.5955,-3.5947,-3.589,-3.589,-3.589,-3.589,-3.589,-3.589,-3.589,-3.5947,-3.5951,-3.5964,-3.5985,-3.6009,-3.9305,-3.9457,-3.9657,-4.0347,-4.051,-4.051,-4.0546,-4.0564,-4.0782,-4.1596,-4.1759,-4.1976,0.0,0.0,-4.2901,-4.2901,-4.2901,-4.2901,-4.2901,-4.2901,-4.2901,0.0,0.0,0.0,0.0,0.0,0.0,-4.2901,0.0,-4.2901,-4.2901,-4.2901,-4.2901,-4.2901,-4.2901,-4.2901,-4.2901,-4.2901,-4.2901,-4.2901,-4.2901,-4.2901,-4.2901,-4.2901,-4.2901,-4.2901,-4.2901,-4.2901,-4.2901,-4.2901,-4.2901,-4.2901,-4.2901,-4.2901,-4.281,-4.2049,-4.1759,-4.1742,-4.1646,-4.1542,-4.157,-4.2184,-4.1859,-4.1234,-4.1256,-4.0732,-4.014,-4.021,-4.0348,-4.0482,-4.0538,-4.0619,-4.0687,-4.0694,-4.0807,-4.0898,-4.0898,-4.0988,-4.1078,-4.1078,-4.1075,-4.107,-4.1083,-4.0405,-3.9579,-3.8761,-3.8546,-3.7887,-3.6261,-3.6069,-3.6048,-3.6009,-3.5989,-3.5989,-3.5988,-3.5988,-3.5953,-3.5889,-3.5886,-3.5837,-3.5702,-3.5698,-3.5698,-3.5698,-3.5698,-3.5698,-3.5698,-3.5833,-3.5886,-3.5892,-3.5974,-3.5991,-4.0045,-4.0344,-4.0646,-4.0813,-4.0684,-4.0655,-4.1252,-4.1397,-4.1614,-4.2429,-4.2592,-4.2647,0.0,0.0,0.0,-4.2901,-4.2901,0.0,-4.2901,-4.2901,0.0,0.0,0.0,-4.2901,-4.2901,-4.2901,0.0,0.0,-4.2901,-4.2901,-4.2901,-4.2901,-4.2901,-4.2901,-4.2901,-4.2901,-4.2901,-4.2901,-4.2901,-4.2901,-4.2901,-4.2901,-4.2901,-4.2901,-4.2901,-4.2901,-4.2901,-4.2901,-4.2901,-4.2901,-4.2901,-4.2901,-4.2901,-4.2901,-4.2883,-4.2665,-4.2592,-4.2631,-4.2839,-4.2126,-4.1224,-4.1831,-4.1901,-4.1782,-4.209,-4.2036,-4.1887,-4.1931,-4.1578,-4.116,-4.1294,-4.0939,-4.0586,-4.0675,-4.0724,-4.0742,-4.0742,-4.079,-4.0812,-4.0812,-4.0789,-4.0796,-4.0806,-4.0663,-4.026,-3.9396,-3.9241,-3.8675,-3.7157,-3.6885,-3.6587,-3.5987,-3.5929,-3.5892,-3.5785,-3.5778,-3.5771,-3.5753,-3.5749,-3.5741,-3.5698,-3.5698,-3.5698,-3.5698,-3.5698,-3.5698,-3.5698,-3.5741,-3.5801,-3.5908,-3.5924,-3.5942,-4.0416,-4.0958,-4.1572,-4.1787,-4.1687,-4.1669,-4.2122,-4.223,-4.2357,-4.281,-4.2901,0.0,0.0,0.0,0.0,0.0,0.0,0.0,-4.2901,-4.2901,-4.2901,0.0,-4.2901,0.0,-4.2901,-4.2901,-4.2901,0.0,-4.2901,-4.2901,-4.2901,-4.2901,-4.2901,-4.2901,-4.2901,-4.2901,-4.2901,-4.2901,-4.2901,-4.2901,-4.2901,-4.2901,-4.2901,-4.2901,-4.2901,-4.2901,0.0,-4.2901,-4.2901,-4.2901,-4.2901,-4.2901,-4.2901,-4.2901,-4.2901,-4.2901,-4.2901,-4.292,-4.3124,-4.2594,-4.1948,-4.2743,-4.2755,-4.254,-4.2908,-4.2762,-4.2469,-4.2544,-4.2227,-4.1909,-4.2001,-4.1752,-4.1383,-4.108,-4.1077,-4.1045,-4.0679,-4.0655,-4.07,-4.0693,-4.0705,-4.0715,-4.074,-4.0786,-4.0626,-4.0131,-4.0014,-3.9573,-3.8403,-3.7881,-3.7315,-3.6462,-3.6388,-3.6195,-3.5741,-3.5698,-3.5681,-3.566,-3.5655,-3.5636,-3.5604,-3.5604,-3.5604,-3.5604,-3.5604,-3.5604,-3.5604,-3.5636,-3.5687,-3.578,-3.5862,-3.5921,-4.0718,-4.1494,-4.2457,-4.285,-4.2939,-4.2901,-4.2901,-4.2901,-4.2901,-4.2901,0.0,0.0,-4.2901,0.0,-4.2901,-4.2901,0.0,-4.2901,-4.2901,-4.2901,-4.2901,-4.2901,-4.2901,-4.2901,-4.2901,-4.2901,-4.2901,-4.2901,-4.2901,-4.2901,-4.2901,-4.2882,-4.29,-4.2901,-4.2901,-4.2901,-4.2901,-4.2901,-4.2901,-4.2901,-4.2901,-4.2901,-4.2901,-4.2901,-4.2901,-4.2901,0.0,0.0,-4.2901,-4.2901,-4.2901,-4.2901,-4.2901,-4.2901,-4.2901,-4.2901,-4.2901,-4.2901,-4.2901,-4.2901,-4.3069,-4.4016,-4.3858,-4.3369,-4.3737,-4.3341,-4.2746,-4.2792,-4.2739,-4.2685,-4.2748,-4.2726,-4.2502,-4.1739,-4.1704,-4.1613,-4.0795,-4.0622,-4.0649,-4.0655,-4.0642,-4.0667,-4.0726,-4.0743,-4.0743,-4.0743,-4.0649,-4.0333,-3.9708,-3.8917,-3.8108,-3.7244,-3.7147,-3.6832,-3.6066,-3.5891,-3.582,-3.5745,-3.5643,-3.5552,-3.5507,-3.55,-3.55,-3.55,-3.55,-3.55,-3.55,-3.5565,-3.559,-3.5593,-3.5784,-3.5872,-4.1665,-4.2418,-4.3205,-4.3282,-4.3087,-4.2901,-4.2901,-4.2901,0.0,0.0,0.0,-4.2901,-4.2901,-4.2901,0.0,-4.2901,0.0,0.0,0.0,0.0,-4.2901,0.0,0.0,0.0,0.0,0.0,0.0,0.0,0.0,-4.2901,-4.2901,-4.2842,-4.2842,-4.29,-4.2901,-4.2901,-4.2901,-4.2901,-4.2901,-4.2901,-4.2901,-4.2901,-4.2901,-4.2901,-4.2901,-4.2901,-4.2901,0.0,-4.2901,-4.2901,-4.2901,-4.2901,-4.2901,-4.2901,-4.2901,-4.2901,-4.2901,-4.2901,-4.2901,-4.2901,-4.3014,-4.3754,-4.3896,-4.389,-4.4518,-4.4592,-4.4478,-4.4471,-4.4045,-4.3567,-4.3578,-4.311,-4.2572,-4.2419,-4.2455,-4.2297,-4.1418,-4.0777,-4.0372,-4.0381,-4.0377,-4.0372,-4.0389,-4.0433,-4.0476,-4.0476,-4.0444,-4.0397,-4.0249,-3.959,-3.88,-3.7998,-3.7901,-3.7827,-3.7629,-3.6941,-3.6523,-3.6503,-3.5887,-3.5508,-3.55,-3.55,-3.55,-3.55,-3.55,-3.55,-3.55,-3.5508,-3.554,-3.5607,-3.5649,-3.5704,-4.1392,-4.2218,-4.3041,-4.3122,-4.2705,-4.2285,-4.2285,0.0,0.0,0.0,0.0,-4.2901,-4.2901,0.0,0.0,0.0,0.0,0.0,0.0,0.0,0.0,0.0,0.0,0.0,0.0,0.0,0.0,0.0,0.0,-4.2786,-4.2882,-4.2862,-4.2862,-4.2901,-4.2901,-4.2901,-4.2901,-4.2901,-4.2901,-4.2901,-4.2901,-4.2901,-4.2901,-4.2901,-4.2901,-4.2901,-4.2901,0.0,-4.2901,-4.2901,-4.2901,-4.2901,-4.2901,-4.2901,-4.2901,-4.2901,-4.2901,-4.2901,-4.2901,-4.2901,-4.2976,-4.3473,-4.364,-4.3751,-4.4443,-4.4636,-4.4681,-4.4858,-4.4654,-4.4374,-4.4374,-4.4106,-4.3734,-4.3316,-4.2922,-4.2423,-4.1578,-4.1121,-4.0769,-4.0377,-4.031,-4.029,-4.0298,-4.0325,-4.0353,-4.0353,-4.0353,-4.0353,-4.0353,-4.0044,-3.9527,-3.8758,-3.8709,-3.8521,-3.8034,-3.7623,-3.7373,-3.7373,-3.7007,-3.6596,-3.6135,-3.6115,-3.5923,-3.5519,-3.55,-3.55,-3.55,-3.55,-3.5515,-3.5547,-3.5579,-3.564,-4.0782,-4.1575,-4.2332,-4.2378,-4.1922,-4.1433,-4.1433,-4.1433,0.0,0.0,-4.2212,-4.2701,-4.2883,0.0,0.0,0.0,0.0,0.0,0.0,0.0,0.0,0.0,0.0,0.0,0.0,0.0,0.0,0.0,0.0,0.0,-4.2805,-4.2862,-4.2881,-4.2881,-4.2882,-4.2901,-4.2901,-4.2901,-4.2901,-4.2901,-4.2939,-4.2939,-4.2901,-4.2939,-4.2939,-4.2901,-4.2901,0.0,0.0,-4.2901,-4.2901,-4.2901,-4.2901,-4.2901,-4.2901,-4.2901,-4.2901,-4.2901,-4.2901,-4.2901,-4.2939,-4.3213,-4.3336,-4.3507,-4.4106,-4.4299,-4.4355,-4.4694,-4.4789,-4.4802,-4.4883,-4.4931,-4.4827,-4.4193,-4.3449,-4.2694,-4.2063,-4.1787,-4.1464,-4.0693,-4.0559,-4.0492,-4.0318,-4.0308,-4.0308,-4.0308,-4.0308,-4.0308,-4.0308,-4.0298,-4.0085,-3.9501,-3.95,-3.9288,-3.8589,-3.8385,-3.8277,-3.8277,-3.8104,-3.77,-3.7,-3.6981,-3.6673,-3.6058,-3.5846,-3.575,-3.575,-3.5577,-3.55,-3.55,-3.5559,-3.5585,-4.0273,-4.0708,-4.1082,-4.0798,-4.0655,-4.0601,-4.0601,0.0,0.0,-4.1542,-4.1759,-4.2012,-4.2755,-4.2901,0.0,0.0,0.0,0.0,0.0,0.0,0.0,0.0,0.0,0.0,0.0,0.0,0.0,0.0,0.0,0.0,-4.2544,-4.2724,-4.2803,-4.2803,-4.2862,-4.2901,-4.2901,-4.2901,-4.2901,-4.2901,-4.3087,-4.3068,-4.2919,-4.3087,-4.3068,-4.2901,-4.2901,0.0,0.0,-4.2901,-4.2901,-4.2901,-4.2901,-4.2901,-4.2901,-4.2901,-4.2901,-4.2901,-4.2901,-4.2901,-4.2901,-4.2939,-4.3142,-4.3456,-4.3833,-4.3943,-4.402,-4.4341,-4.4457,-4.453,-4.4814,-4.4895,-4.4919,-4.4884,-4.4281,-4.3677,-4.3672,-4.3103,-4.2342,-4.1542,-4.138,-4.1151,-4.0425,-4.0291,-4.0291,-4.0291,-4.0291,-4.0291,-4.0291,-4.0299,-4.0269,-4.0201,-4.0307,-4.0356,-4.0279,-3.9608,-3.9188,-3.9188,-3.843,-3.7969,-3.7873,-3.7873,-3.7853,-3.7777,-3.6981,-3.6596,-3.6596,-3.5865,-3.55,-3.55,-3.5514,-3.5534,-3.9829,-4.0123,-4.0317,-4.0454,-4.0184,-3.984,-3.984,0.0,0.0,-4.0256,-4.1035,-4.1795,-4.2122,-4.2574,-4.2901,0.0,0.0,0.0,0.0,0.0,0.0,0.0,0.0,0.0,0.0,0.0,0.0,0.0,0.0,0.0,-4.2387,-4.2568,-4.2668,-4.2668,-4.2785,-4.2842,-4.2842,-4.2881,-4.2975,-4.3087,-4.305,-4.305,-4.3087,-4.305,-4.2994,-4.2901,-4.2901,0.0,0.0,-4.2901,-4.2901,-4.2901,-4.2901,-4.2901,-4.29,-4.2843,-4.2842,-4.2823,-4.2765,-4.2785,-4.2842,-4.2842,-4.2975,-4.316,-4.3508,-4.359,-4.3673,-4.4001,-4.4242,-4.443,-4.457,-4.4764,-4.4907,-4.4931,-4.4704,-4.4348,-4.3916,-4.3596,-4.3134,-4.2361,-4.1809,-4.1341,-4.1065,-4.0616,-4.0301,-4.0301,-4.0301,-4.0244,-4.0087,-4.0049,-4.0,-3.9832,-4.0187,-4.0441,-4.0441,-4.0036,-3.979,-3.979,-3.9337,-3.8926,-3.8561,-3.8542,-3.8361,-3.8007,-3.7661,-3.7488,-3.7488,-3.6635,-3.6224,-3.6202,-3.5724,-3.5482,-3.9323,-3.9457,-3.9511,-3.9764,-3.9423,-3.906,0.0,0.0,-3.9097,-3.9351,-4.0256,-4.1144,-4.1614,-4.2158,-4.2611,-4.2846,0.0,0.0,0.0,0.0,0.0,0.0,0.0,0.0,0.0,0.0,0.0,0.0,0.0,0.0,0.0,-4.243,-4.253,-4.2568,-4.2686,-4.2745,-4.2745,-4.2938,-4.305,-4.3142,-4.3196,-4.325,-4.3268,-4.3087,-4.2995,-4.292,0.0,0.0,0.0,-4.2843,-4.2862,-4.2862,-4.2882,-4.2901,-4.2882,-4.2842,-4.2822,-4.2783,-4.2707,-4.2707,-4.2745,-4.2783,-4.2804,-4.2863,-4.3142,-4.3231,-4.3319,-4.3656,-4.4061,-4.4397,-4.4397,-4.4655,-4.4895,-4.4895,-4.4895,-4.4756,-4.4258,-4.4155,-4.3943,-4.3156,-4.254,-4.2065,-4.1866,-4.1082,-4.0519,-4.0519,-4.021,-3.9946,-3.9796,-3.9785,-3.9717,-3.9526,-3.9876,-4.012,-4.0139,-4.0012,-3.9943,-3.9943,-3.9819,-3.9553,-3.9108,-3.9128,-3.8965,-3.8637,-3.8385,-3.8301,-3.8373,-3.7507,-3.6947,-3.668,-3.6126,-3.5684,-3.8718,-3.8658,-3.8541,-3.8292,-3.8227,-3.8209,0.0,0.0,-3.8444,-3.9224,-3.9405,-3.9894,-4.1415,-4.1705,-4.1958,-4.2755,-4.2901,0.0,0.0,0.0,0.0,0.0,0.0,0.0,0.0,0.0,0.0,0.0,0.0,0.0,0.0,-4.2308,-4.2366,-4.2503,-4.2568,-4.2609,-4.2609,-4.305,-4.3196,-4.2995,-4.3662,-4.3814,-4.3479,-4.3356,-4.3178,0.0,0.0,0.0,0.0,-4.2745,-4.2803,-4.2803,-4.2881,-4.2901,-4.2901,-4.2901,-4.2861,-4.2803,-4.2881,-4.2767,-4.2629,-4.2764,-4.2725,-4.2629,-4.2764,-4.2861,-4.2976,-4.3301,-4.3878,-4.4397,-4.4397,-4.4655,-4.4895,-4.4895,-4.4895,-4.4907,-4.4979,-4.4991,-4.4748,-4.3931,-4.3833,-4.3596,-4.2743,-4.1699,-4.098,-4.0988,-4.0026,-3.9371,-3.9483,-3.9495,-3.9495,-3.9514,-3.9514,-3.9501,-3.9524,-3.9564,-3.9611,-3.9611,-3.9599,-3.9599,-3.9592,-3.9656,-3.9819,-4.0081,-3.9308,-3.9031,-3.9284,-3.8411,-3.7543,-3.6699,-3.668,-3.6238,-3.8507,-3.8446,-3.837,-3.829,-3.8224,-3.8209,-3.8209,0.0,-3.8281,-3.8535,-3.9024,-3.955,-4.0039,-4.0981,-4.1777,-4.2049,-4.2538,0.0,0.0,0.0,0.0,0.0,0.0,0.0,0.0,0.0,0.0,0.0,0.0,0.0,0.0,-4.2308,-4.2308,-4.2366,-4.2486,-4.2526,-4.2526,-4.2709,-4.2844,-4.2939,-4.3196,-4.3232,-4.3087,-4.3087,0.0,0.0,0.0,0.0,0.0,-4.2649,-4.2668,-4.2668,-4.2688,-4.2689,-4.2689,-4.2647,-4.2606,-4.2586,-4.251,-4.2508,-4.2526,-4.2566,-4.2588,-4.2649,-4.2881,-4.2899,-4.29,-4.3284,-4.3557,-4.3767,-4.4004,-4.4299,-4.4557,-4.4557,-4.472,-4.4914,-4.4919,-4.4931,-4.4868,-4.4672,-4.4011,-4.3391,-4.3132,-4.2146,-4.1419,-4.1419,-4.0641,-4.0024,-3.9919,-3.9416,-3.9059,-3.8946,-3.895,-3.9178,-3.9732,-3.9675,-3.9686,-3.9873,-3.9573,-3.9543,-3.9851,-3.9769,-3.9802,-4.0032,-3.9966,-3.9877,-3.9775,-3.912,-3.809,-3.6699,-3.6608,-3.6113,0.0,-3.8134,-3.7925,-3.8216,-3.8241,0.0,0.0,0.0,-3.8209,-3.8209,-3.8607,-3.9025,-3.9333,-4.0184,-4.1017,-4.1614,-4.2122,0.0,0.0,0.0,0.0,0.0,0.0,0.0,0.0,0.0,0.0,0.0,0.0,0.0,0.0,-4.2308,-4.2308,-4.2308,-4.2366,-4.2425,-4.2425,-4.2631,-4.2844,-4.2995,-4.3105,-4.3214,-4.3303,-4.3014,0.0,0.0,0.0,0.0,0.0,-4.2548,-4.2568,-4.2568,-4.2589,-4.2609,-4.2589,-4.2548,-4.2506,-4.2503,-4.2447,-4.2427,-4.2425,-4.2483,-4.2526,-4.2588,-4.2765,-4.2842,-4.2919,-4.3105,-4.3267,-4.3406,-4.3656,-4.3974,-4.4213,-4.4213,-4.4374,-4.453,-4.453,-4.453,-4.4544,-4.4584,-4.403,-4.3563,-4.354,-4.2588,-4.1876,-4.1898,-4.1104,-4.048,-4.0375,-3.9688,-3.9178,-3.9082,-3.8841,-3.8935,-3.9551,-3.9389,-3.9324,-3.9502,-3.9251,-3.9253,-3.9648,-3.9549,-3.9644,-3.9972,-4.0158,-4.0224,-4.0139,-3.9491,-3.8629,-3.7594,-3.6851,-3.623,0.0,-3.7717,0.0,0.0,0.0,0.0,0.0,0.0,0.0,-3.8209,-3.8209,-3.8444,-3.917,-3.9351,-3.9858,-4.1288,-4.1632,0.0,0.0,0.0,0.0,0.0,0.0,0.0,0.0,0.0,0.0,0.0,0.0,0.0,0.0,-4.2308,-4.2308,-4.2308,-4.2308,-4.2308,-4.2308,-4.2731,-4.3014,-4.3123,-4.332,-4.3577,-4.3876,-4.3123,0.0,0.0,0.0,0.0,0.0,-4.2425,-4.2483,-4.2503,-4.255,-4.2589,-4.2589,-4.2589,-4.2528,-4.2503,-4.2568,-4.245,-4.2308,-4.2463,-4.2503,-4.2524,-4.2483,-4.2707,-4.2939,-4.2822,-4.3013,-4.3285,-4.3336,-4.3607,-4.3849,-4.3849,-4.3881,-4.3896,-4.3896,-4.3896,-4.3896,-4.3896,-4.3924,-4.394,-4.3881,-4.3026,-4.2349,-4.2441,-4.1495,-4.0813,-4.0864,-4.0238,-3.9776,-3.9776,-3.9161,-3.8869,-3.9124,-3.8888,-3.8753,-3.875,-3.8735,-3.8851,-3.9129,-3.9197,-3.9433,-3.9859,-3.9922,-4.0101,-4.0379,-3.9569,-3.9131,-3.9052,-3.7424,-3.6602,-3.7194,0.0,-3.7144,-3.7326,-3.7787,0.0,0.0,0.0,0.0,0.0,0.0,0.0,0.0,-3.8989,-3.9514,-3.9876,0.0,0.0,0.0,0.0,0.0,0.0,0.0,0.0,0.0,0.0,0.0,0.0,0.0,0.0,0.0,-4.2308,-4.2308,-4.2308,-4.2308,-4.2308,-4.2308,-4.2412,-4.2492,-4.2512,-4.3013,-4.316,-4.3014,-4.3267,0.0,0.0,0.0,0.0,-4.2308,-4.2328,-4.2346,-4.2346,-4.2369,-4.2369,-4.2369,-4.2369,-4.2348,-4.2346,-4.2369,-4.2348,-4.2308,-4.2346,-4.249,-4.2613,-4.2409,-4.251,-4.2689,-4.2668,-4.2785,-4.2918,-4.2937,-4.3178,-4.3441,-4.3441,-4.3642,-4.3818,-4.3818,-4.3865,-4.3896,-4.3896,-4.3705,-4.354,-4.3507,-4.3102,-4.2759,-4.2778,-4.2032,-4.1506,-4.1632,-4.0958,-4.0483,-4.0551,-3.9904,-3.9491,-3.9551,-3.9228,-3.9101,-3.9298,-3.9129,-3.9129,-3.9383,-3.9427,-3.9471,-3.9592,-3.9616,-3.9854,-4.0325,-3.9919,-3.95,-3.9091,-3.8637,-3.7731,-3.639,-3.6531,-3.6653,-3.6999,-3.7642,-3.8209,0.0,0.0,0.0,0.0,0.0,0.0,0.0,0.0,0.0,0.0,0.0,0.0,0.0,0.0,0.0,0.0,0.0,0.0,0.0,0.0,0.0,0.0,0.0,0.0,0.0,-4.2308,-4.2308,-4.2308,-4.2308,-4.2308,-4.2308,-4.2308,-4.245,-4.2709,-4.2882,-4.3087,-4.3302,-4.3373,-4.3321,0.0,0.0,0.0,-4.2474,-4.2474,-4.2412,-4.2308,-4.2308,-4.2308,-4.2308,-4.2308,-4.2308,-4.2308,-4.2308,-4.2308,-4.2308,-4.2308,-4.2391,-4.2494,-4.2331,-4.2389,-4.247,-4.2528,-4.2706,-4.2861,-4.2881,-4.3124,-4.3356,-4.3196,-4.3302,-4.3406,-4.3284,-4.3319,-4.344,-4.3592,-4.3371,-4.3231,-4.3371,-4.3123,-4.2901,-4.2901,-4.252,-4.2285,-4.2341,-4.1705,-4.125,-4.1303,-4.0643,-4.0072,-3.9737,-3.9504,-3.9305,-3.9147,-3.9007,-3.9031,-3.9311,-3.9421,-3.9623,-3.9859,-3.9859,-4.0017,-4.0309,-4.0157,-3.9929,-3.9649,-3.9192,-3.8304,-3.5804,-3.5789,-3.5957,-3.6708,-3.7461,-3.8064,-3.8172,0.0,0.0,0.0,0.0,0.0,0.0,0.0,0.0,0.0,0.0,0.0,0.0,0.0,0.0,0.0,0.0,0.0,0.0,0.0,0.0,0.0,0.0,0.0,0.0,-4.2308,-4.2308,-4.2308,-4.2308,-4.2308,-4.2308,-4.2308,-4.2552,-4.305,-4.2825,-4.3105,-4.386,-4.3462,-4.3392,0.0,0.0,0.0,-4.2711,-4.2711,-4.2554,-4.2308,-4.2308,-4.2308,-4.2308,-4.2308,-4.2308,-4.2308,-4.2308,-4.2308,-4.2308,-4.2308,-4.2308,-4.2308,-4.2308,-4.2308,-4.2308,-4.2445,-4.2647,-4.2862,-4.2901,-4.3124,-4.3268,-4.2976,-4.292,-4.2844,-4.2629,-4.2686,-4.2861,-4.316,-4.3032,-4.2976,-4.3266,-4.3087,-4.2901,-4.2901,-4.2901,-4.2901,-4.2901,-4.2395,-4.205,-4.205,-4.1395,-4.0716,-4.009,-3.9814,-3.9443,-3.8881,-3.8747,-3.8807,-3.9087,-3.9363,-3.9728,-4.0234,-4.0244,-4.0244,-4.0244,-4.0244,-4.0244,-4.0225,-3.9528,-3.8725,-3.5804,-3.5493,-3.5279,-3.5862,-3.6596,-3.7357,0.0,0.0,0.0,0.0,0.0,0.0,0.0,0.0,0.0,0.0,0.0,0.0,0.0,0.0,0.0,0.0,0.0,0.0,0.0,0.0,0.0,0.0,0.0,0.0,0.0,-4.2308,-4.2308,-4.2308,-4.2308,-4.2308,-4.2308,-4.2308,-4.2348,-4.245,-4.2632,-4.292,-4.3322,-4.3478,-4.3563,0.0,0.0,-4.3232,-4.2711,-4.2711,-4.2554,-4.2308,-4.2308,-4.2308,-4.2308,-4.2308,-4.2308,-4.2308,-4.2308,-4.2308,-4.2308,-4.2308,-4.2308,-4.2308,-4.2308,-4.2308,-4.2308,-4.2308,-4.2427,-4.2566,-4.2566,-4.2606,-4.2645,-4.2586,-4.2566,-4.2566,-4.2506,-4.2568,-4.2668,-4.2842,-4.2841,-4.2842,-4.2957,-4.2939,-4.2901,-4.2901,-4.2901,-4.2901,-4.2901,-4.281,-4.2757,-4.2757,-4.2141,-4.1705,-4.1559,-4.0372,-3.9566,-3.9473,-3.8978,-3.8807,-3.9087,-3.9363,-3.9647,-3.9965,-3.9956,-3.9956,-3.9956,-3.9956,-3.9956,-3.9956,-4.0053,-3.9642,-3.5804,-3.4988,-3.4338,-3.5173,-3.6402,-3.7636,0.0,0.0,0.0,0.0,0.0,0.0,0.0,0.0,0.0,0.0,0.0,0.0,0.0,0.0,0.0,0.0,0.0,0.0,0.0,0.0,0.0,0.0,0.0,0.0,0.0,0.0,-4.2308,-4.2308,-4.2308,-4.2308,-4.2308,-4.2308,-4.2371,-4.2514,-4.2825,-4.3124,-4.3426,-4.3697,-4.3812,-4.3812,0.0,-4.3355,-4.2957,-4.2769,-4.2554,-4.2308,-4.2308,-4.2308,-4.2308,-4.2308,-4.2308,-4.2308,-4.2308,-4.2308,-4.2308,-4.2308,-4.2308,-4.2308,-4.2308,-4.2308,-4.2308,-4.2308,-4.245,-4.2609,-4.2609,-4.2746,-4.2823,-4.2649,-4.2609,-4.257,-4.2427,-4.2468,-4.2627,-4.2901,-4.2862,-4.2879,-4.3087,-4.2995,-4.29,-4.2861,-4.2881,-4.2901,-4.2901,-4.2901,-4.2901,-4.2901,-4.263,-4.2286,-4.1923,-4.125,-4.0301,-3.9021,-3.8682,-3.868,-3.8975,-3.9095,-3.9338,-3.9682,-3.9837,-3.9818,-3.9693,-3.9975,-4.0038,-3.9914,-4.0176,-3.9823,-3.5569,-3.4525,-3.3749,-3.4761,-3.6177,0.0,0.0,0.0,0.0,0.0,0.0,0.0,0.0,0.0,0.0,0.0,0.0,0.0,0.0,0.0,0.0,0.0,0.0,0.0,0.0,0.0,0.0,0.0,0.0,0.0,0.0,0.0,-4.2308,-4.2308,-4.2308,-4.2328,-4.2391,-4.2391,-4.2472,-4.2595,-4.292,-4.3232,-4.3512,-4.3779,-4.3939,-4.3989,-4.373,-4.3443,-4.316,-4.2826,-4.2554,-4.2308,-4.2308,-4.2308,-4.2308,-4.2308,-4.2308,-4.2308,-4.2308,-4.2308,-4.2308,-4.2308,-4.2308,-4.2308,-4.2308,-4.2308,-4.2308,-4.2308,-4.2452,-4.2613,-4.2613,-4.2787,-4.2919,-4.2671,-4.2613,-4.2554,-4.2331,-4.2366,-4.2548,-4.2902,-4.2824,-4.2822,-4.3087,-4.2976,-4.2824,-4.2803,-4.2842,-4.2881,-4.29,-4.2901,-4.2901,-4.2901,-4.2901,-4.2612,-4.1923,-4.1851,-4.0924,-3.8771,-3.8476,-3.8523,-3.877,-3.8839,-3.904,-3.9351,-3.9686,-3.9698,-3.9414,-4.0015,-4.0137,-3.9807,-4.0157,-3.9938,-3.4881,-3.4233,-3.3977,-3.4789,-3.5473,0.0,-3.7271,-3.8098,0.0,-3.86,0.0,0.0,0.0,0.0,0.0,0.0,0.0,0.0,0.0,0.0,0.0,0.0,0.0,0.0,0.0,0.0,0.0,0.0,0.0,0.0,0.0,0.0,0.0,-4.2308,-4.2308,-4.2432,-4.2673,-4.2673,-4.2554,-4.2328,-4.2613,-4.2902,-4.3232,-4.3512,-4.3763,-4.3989,-4.373,-4.3443,-4.316,-4.2826,-4.2554,-4.2308,-4.2308,-4.2308,-4.2308,-4.2308,-4.2308,-4.2308,-4.2308,-4.2308,-4.2308,-4.2308,-4.2308,-4.2308,-4.2308,-4.2308,-4.2308,-4.2308,-4.2308,-4.2328,-4.2328,-4.2348,-4.2369,-4.2328,-4.2328,-4.2328,-4.2308,-4.2308,-4.2366,-4.2506,-4.2524,-4.2546,-4.2629,-4.2631,-4.2668,-4.2783,-4.2803,-4.2823,-4.2882,-4.2901,-4.2901,-4.2901,-4.2901,-4.2574,-4.1796,-4.1723,-4.1035,-3.9423,-3.8738,-3.8415,-3.8428,-3.867,-3.8843,-3.8938,-3.9445,-3.9519,-3.9142,-3.9922,-4.0017,-3.9551,-4.0057,-4.0263,-3.4824,-3.4211,-3.3862,-3.4169,-3.5158,0.0,0.0,-3.8423,-3.89,-3.9114,0.0,0.0,0.0,0.0,0.0,0.0,0.0,0.0,0.0,0.0,0.0,0.0,0.0,0.0,0.0,0.0,0.0,0.0,0.0,0.0,0.0,0.0,0.0,-4.2308,-4.2308,-4.2348,-4.2452,-4.2434,-4.2474,-4.2536,-4.3032,-4.325,-4.3196,-4.3478,-4.3563,-4.3496,-4.316,-4.2977,-4.2882,-4.2573,-4.2391,-4.2308,-4.2308,-4.2308,-4.2308,-4.2308,-4.2308,-4.2308,-4.2308,-4.2308,-4.2308,-4.2308,-4.2308,-4.2308,-4.2308,-4.2308,-4.2308,-4.2308,-4.2308,-4.2308,-4.2308,-4.2308,-4.2308,-4.2308,-4.2308,-4.2308,-4.2308,-4.2308,-4.2346,-4.2483,-4.2503,-4.2503,-4.2526,-4.2568,-4.2589,-4.2606,-4.2647,-4.2688,-4.2709,-4.2709,-4.2765,-4.2823,-4.2881,-4.2774,-4.2466,-4.1976,-4.1234,-4.0148,-3.942,-3.8816,-3.8356,-3.8449,-3.8523,-3.8597,-3.9152,-3.921,-3.8722,-3.9616,-3.9859,-3.9514,-3.9881,-4.0147,-3.4443,-3.3938,-3.3671,-3.3671,0.0,0.0,-3.7018,-3.8106,-3.8929,0.0,0.0,0.0,0.0,0.0,0.0,0.0,0.0,0.0,0.0,0.0,0.0,0.0,0.0,0.0,0.0,0.0,0.0,0.0,0.0,0.0,0.0,0.0,0.0,0.0,-4.2308,-4.2348,-4.2432,-4.2432,-4.2573,-4.2864,-4.3355,-4.3461,-4.3196,-4.3478,-4.3461,-4.3178,-4.2863,-4.2711,-4.2692,-4.2412,-4.2308,-4.2308,-4.2308,-4.2308,-4.2308,-4.2308,-4.2308,-4.2308,-4.2308,-4.2308,-4.2308,-4.2308,-4.2308,-4.2308,-4.2308,-4.2308,-4.2308,-4.2308,-4.2308,-4.2308,-4.2308,-4.2308,-4.2308,-4.2308,-4.2308,-4.2308,-4.2308,-4.2308,-4.2346,-4.2425,-4.2445,-4.2445,-4.2445,-4.2468,-4.249,-4.2503,-4.2546,-4.2588,-4.2609,-4.2609,-4.2649,-4.2783,-4.2842,-4.2881,-4.29,-4.2393,-4.1741,-4.0926,-4.0166,-3.9313,-3.8312,-3.8274,-3.8289,-3.8368,-3.8857,-3.89,-3.8478,-3.9281,-3.9537,-3.9287,-3.9651,-3.9935,-3.3628,-3.3393,-3.3393,0.0,0.0,0.0,-3.4954,-3.6868,-3.8618,0.0,0.0,0.0,0.0,0.0,0.0,0.0,0.0,0.0,0.0,0.0,0.0,0.0,0.0,0.0,0.0,0.0,0.0,0.0,0.0,0.0,0.0,0.0,0.0,0.0,-4.2308,-4.2432,-4.2692,-4.2711,-4.2864,-4.3214,-4.3461,-4.3461,-4.3196,-4.3478,-4.3443,-4.316,-4.2845,-4.2711,-4.2673,-4.2412,-4.2308,-4.2308,-4.2287,-4.2287,-4.2287,-4.2287,-4.2287,-4.2287,-4.2287,-4.2287,-4.2287,-4.2308,-4.2308,-4.2287,-4.2287,-4.2287,-4.2287,-4.2287,-4.2287,-4.2287,-4.2308,-4.2308,-4.2287,-4.2308,-4.2308,-4.2308,-4.2308,-4.2308,-4.2308,-4.2308,-4.2308,-4.2308,-4.2308,-4.2308,-4.2346,-4.2483,-4.2503,-4.2506,-4.2589,-4.2609,-4.2649,-4.2783,-4.2802,-4.2804,-4.2882,-4.29,-4.2556,-4.1741,-4.0945,-3.9822,-3.8281,-3.8209,-3.8242,-3.8307,-3.8569,-3.8597,-3.8399,-3.8938,-3.9063,-3.8818,-3.9414,-3.9709,-3.3628,-3.3534,0.0,0.0,0.0,0.0,0.0,-3.6757,0.0,0.0,0.0,0.0,0.0,0.0,0.0,0.0,0.0,0.0,0.0,0.0,0.0,0.0,0.0,0.0,0.0,0.0,0.0,0.0,0.0,0.0,0.0,0.0,0.0,0.0,-4.2308,-4.2348,-4.2412,-4.2432,-4.2554,-4.2845,-4.2939,-4.2939,-4.2845,-4.3178,-4.3032,-4.2552,-4.2452,-4.2432,-4.2391,-4.2124,-4.2124,-4.2287,-4.2082,-4.2019,-4.2019,-4.2019,-4.1934,-4.1845,-4.1977,-4.2019,-4.2061,-4.2246,-4.2166,-4.2019,-4.2019,-4.1913,-4.1845,-4.1977,-4.2019,-4.2061,-4.2246,-4.2145,-4.2061,-4.2267,-4.2308,-4.2308,-4.2308,-4.2308,-4.2308,-4.2308,-4.2308,-4.2308,-4.2308,-4.2308,-4.2308,-4.2346,-4.2366,-4.2366,-4.2389,-4.2468,-4.2546,-4.2566,-4.2627,-4.2668,-4.2689,-4.2689,-4.2365,-4.1535,-4.0816,-4.0004,-3.9079,-3.8517,-3.8209,-3.8242,-3.8538,-3.8566,-3.8322,-3.873,-3.8872,-3.8818,-3.924,-3.952,-3.3538,0.0,0.0,0.0,0.0,0.0,0.0,0.0,0.0,0.0,0.0,0.0,0.0,0.0,0.0,0.0,0.0,0.0,0.0,0.0,0.0,0.0,0.0,0.0,0.0,0.0,0.0,0.0,0.0,0.0,0.0,0.0,0.0,0.0,-4.2308,-4.2308,-4.2308,-4.2308,-4.2371,-4.2554,-4.2653,-4.2653,-4.2554,-4.2863,-4.2729,-4.2308,-4.2308,-4.2308,-4.2287,-4.2019,-4.1998,-4.2103,-4.187,-4.1784,-4.1784,-4.1784,-4.1697,-4.1626,-4.174,-4.1784,-4.1805,-4.1956,-4.1913,-4.1784,-4.1784,-4.1714,-4.1626,-4.174,-4.1784,-4.1827,-4.1995,-4.1892,-4.187,-4.2225,-4.2225,-4.2166,-4.2287,-4.2308,-4.2308,-4.2308,-4.2308,-4.2308,-4.2308,-4.2308,-4.2308,-4.2308,-4.2308,-4.2308,-4.2308,-4.2366,-4.2445,-4.2483,-4.2526,-4.2568,-4.2609,-4.2609,-4.2393,-4.1926,-4.0903,-4.013,-3.9716,-3.8685,-3.8122,-3.8122,-3.8316,-3.8348,-3.8189,-3.8446,-3.8569,-3.8569,-3.888,-3.9181,-3.3393,0.0,0.0,0.0,0.0,0.0,0.0,0.0,0.0,0.0,0.0,0.0,0.0,0.0,0.0,0.0,0.0,0.0,0.0,0.0,0.0,0.0,0.0,0.0,0.0,0.0,0.0,0.0,0.0,0.0,0.0,0.0,0.0,-4.2308,-4.2308,-4.2308,-4.2308,-4.2308,-4.2308,0.0,-4.2554,-4.2534,-4.2308,-4.2593,-4.2536,-4.2308,-4.2308,-4.2287,-4.2246,-4.1977,-4.1874,-4.1831,-4.1631,-4.1542,-4.1542,-4.1542,-4.156,-4.1538,-4.156,-4.1542,-4.156,-4.1604,-4.1582,-4.1542,-4.1542,-4.156,-4.1538,-4.156,-4.1542,-4.1582,-4.1604,-4.1582,-4.1692,-4.2142,-4.2061,-4.1977,-4.2205,-4.2246,-4.2267,-4.2267,-4.2267,-4.2267,-4.2287,-4.2308,-4.2308,-4.2308,-4.2308,-4.2308,-4.2308,-4.2308,-4.2346,-4.2463,-4.2483,-4.2506,-4.257,-4.257,-4.257,-4.257,-4.1133,-4.0271,-4.0181,-3.8761,-3.7984,-3.7984,-3.7984,-3.7984,-3.8001,-3.8122,-3.8192,-3.8209,-3.8481,-3.8774,0.0,-3.3393,0.0,0.0,0.0,0.0,0.0,0.0,0.0,0.0,0.0,0.0,0.0,0.0,0.0,0.0,0.0,0.0,0.0,0.0,0.0,0.0,0.0,0.0,0.0,0.0,0.0,0.0,0.0,0.0,0.0,0.0,0.0,-4.2308,-4.2308,-4.2308,-4.2308,-4.2308,-4.2308,0.0,-4.2369,-4.2369,-4.2308,-4.2593,-4.2536,-4.2308,-4.2308,-4.2166,-4.1977,-4.174,-4.1653,-4.1648,-4.1386,-4.1277,-4.1277,-4.1277,-4.118,-4.1082,-4.1226,-4.1277,-4.1323,-4.152,-4.1453,-4.1277,-4.1277,-4.118,-4.1082,-4.1232,-4.1277,-4.1323,-4.156,-4.1453,-4.1368,-4.1692,-4.1827,-4.187,-4.1762,-4.187,-4.1998,-4.1998,-4.1998,-4.2061,-4.2267,-4.2308,-4.2308,-4.2308,-4.2308,-4.2308,-4.2308,-4.2308,-4.2308,-4.2346,-4.2346,-4.2366,-4.2369,-4.2369,-4.2369,-4.2369,-4.1552,-4.0785,-4.0158,-3.8708,-3.7916,-3.7916,-3.7916,-3.7951,-3.8001,-3.8036,-3.8105,-3.8209,-3.8481,-3.8646,0.0,0.0,0.0,0.0,0.0,0.0,0.0,0.0,0.0,0.0,0.0,0.0,0.0,0.0,0.0,0.0,0.0,0.0,0.0,0.0,0.0,0.0,0.0,0.0,0.0,0.0,0.0,0.0,0.0,0.0,0.0,-4.2308,-4.2308,-4.2308,-4.2308,-4.2308,-4.2308,-4.2308,-4.2351,-4.2494,-4.2351,-4.2308,-4.2308,-4.2434,-4.2353,-4.2103,-4.2103,-4.1977,-4.174,-4.1498,-4.1408,-4.1386,-4.1157,-4.1065,-4.1065,-4.1065,-4.0989,-4.0894,-4.1018,-4.1065,-4.1111,-4.1436,-4.1463,-4.1333,-4.1333,-4.126,-4.1163,-4.1088,-4.1065,-4.1088,-4.1244,-4.1157,-4.1088,-4.1244,-4.1431,-4.1569,-4.1604,-4.1675,-4.1762,-4.1762,-4.1762,-4.1805,-4.1952,-4.204,-4.2103,-4.2103,-4.2225,-4.2308,-4.2308,-4.2308,-4.2308,-4.2308,-4.2308,-4.2308,-4.2308,-4.2308,-4.2308,-4.2308,-4.1616,-4.0849,-4.0043,-3.892,-3.8151,-3.781,-3.7792,-3.7828,-3.7862,-3.7915,-3.7984,-3.8105,-3.8221,-3.8366,0.0,0.0,0.0,0.0,0.0,0.0,0.0,0.0,0.0,0.0,0.0,0.0,0.0,0.0,0.0,0.0,0.0,0.0,0.0,0.0,0.0,0.0,0.0,0.0,0.0,0.0,0.0,0.0,0.0,0.0,-4.2308,-4.2308,-4.2308,-4.2308,-4.2308,-4.2308,-4.2308,-4.2308,-4.2412,-4.2634,-4.2412,-4.2287,-4.2228,-4.2287,-4.2145,-4.1895,-4.1852,-4.1719,-4.1498,-4.13,-4.1186,-4.1117,-4.0965,-4.0912,-4.0912,-4.0912,-4.0912,-4.0912,-4.0912,-4.0912,-4.0965,-4.1356,-4.1494,-4.1534,-4.1604,-4.1561,-4.1423,-4.1111,-4.0942,-4.0912,-4.0912,-4.0912,-4.0912,-4.0912,-4.1018,-4.1209,-4.1426,-4.1515,-4.152,-4.152,-4.156,-4.1604,-4.1604,-4.174,-4.1849,-4.1849,-4.204,-4.2205,-4.2225,-4.2205,-4.2205,-4.2225,-4.2205,-4.2205,-4.2246,-4.2246,-4.2246,-4.2287,-4.1622,-4.0856,-3.993,-3.9287,-3.854,-3.7685,-3.7685,-3.7685,-3.7703,-3.781,-3.7898,-3.7984,-3.7934,-3.8088,0.0,0.0,0.0,0.0,0.0,0.0,0.0,0.0,0.0,0.0,0.0,0.0,0.0,0.0,0.0,0.0,0.0,0.0,0.0,0.0,0.0,0.0,0.0,0.0,0.0,0.0,0.0,0.0,0.0,0.0,-4.2308,-4.2308,-4.2308,-4.2308,-4.2308,-4.2308,-4.2308,-4.2308,-4.2328,-4.2351,-4.2328,-4.2166,-4.1977,-4.2187,-4.2145,-4.1874,-4.1719,-4.1498,-4.1255,-4.1192,-4.1111,-4.0942,-4.0912,-4.0912,-4.0912,-4.0912,-4.0912,-4.0912,-4.0912,-4.0912,-4.0965,-4.1356,-4.1494,-4.1561,-4.199,-4.1821,-4.149,-4.1445,-4.1163,-4.0912,-4.0912,-4.0912,-4.0912,-4.0912,-4.0918,-4.0942,-4.1006,-4.1134,-4.1255,-4.1255,-4.1431,-4.1604,-4.1604,-4.1626,-4.1648,-4.1648,-4.167,-4.1758,-4.1934,-4.1805,-4.1762,-4.1917,-4.1784,-4.1762,-4.1934,-4.1938,-4.2061,-4.2287,-4.1976,-4.1224,-3.9948,-3.9629,-3.8901,-3.7649,-3.7613,-3.7649,-3.7703,-3.7721,-3.7792,-3.7916,-3.7899,-3.7934,0.0,0.0,0.0,0.0,0.0,0.0,0.0,0.0,0.0,0.0,0.0,0.0,0.0,0.0,0.0,0.0,0.0,0.0,0.0,0.0,0.0,0.0,0.0,0.0,0.0,0.0,0.0,0.0,0.0,-4.2308,-4.2308,-4.2308,-4.2308,-4.2308,-4.2308,-4.2308,-4.2308,-4.2308,-4.2308,-4.2308,-4.2434,-4.2313,-4.1895,-4.1909,-4.1762,-4.1525,-4.1565,-4.1363,-4.1018,-4.1018,-4.0989,-4.0912,-4.0912,-4.0912,-4.0912,-4.0912,-4.0912,-4.0912,-4.0912,-4.0912,-4.0965,-4.1356,-4.1494,-4.1539,-4.1756,-4.167,-4.1494,-4.1494,-4.1356,-4.1255,-4.1255,-4.1255,-4.1186,-4.0965,-4.0912,-4.0912,-4.0912,-4.0965,-4.1018,-4.1018,-4.1129,-4.1221,-4.1221,-4.1295,-4.1386,-4.1386,-4.1498,-4.1626,-4.1719,-4.1653,-4.1648,-4.1719,-4.1648,-4.1648,-4.1719,-4.1719,-4.1784,-4.1909,-4.1784,-4.1075,-3.9608,-3.9473,-3.881,-3.7464,-3.754,-3.7613,-3.7649,-3.7649,-3.7703,-3.7793,-3.7757,-3.7757,0.0,0.0,0.0,0.0,0.0,0.0,0.0,0.0,0.0,0.0,0.0,0.0,0.0,0.0,0.0,0.0,0.0,0.0,0.0,0.0,0.0,0.0,0.0,0.0,0.0,0.0,0.0,0.0,0.0,-4.2308,-4.2308,-4.2308,-4.2308,-4.2308,-4.2308,-4.2308,-4.2308,-4.2308,-4.2308,-4.2308,-4.2494,-4.2333,-4.1827,-4.1719,-4.1475,-4.1117,-4.1335,-4.1221,-4.0912,-4.0912,-4.0912,-4.0912,-4.0912,-4.0912,-4.0912,-4.0912,-4.0912,-4.0912,-4.0912,-4.0912,-4.0965,-4.1356,-4.1494,-4.1516,-4.1648,-4.1583,-4.1516,-4.1648,-4.1534,-4.1356,-4.1472,-4.1423,-4.1283,-4.0965,-4.0912,-4.0912,-4.0912,-4.0912,-4.0912,-4.0912,-4.0912,-4.0912,-4.0912,-4.1018,-4.1117,-4.1117,-4.1295,-4.1448,-4.1475,-4.1453,-4.1448,-4.1475,-4.1453,-4.1448,-4.1475,-4.1498,-4.1538,-4.1604,-4.1538,-4.0924,-3.9635,-3.9326,-3.8655,-3.7519,-3.7461,-3.7466,-3.7503,-3.7503,-3.754,-3.7613,-3.754,-3.754,0.0,0.0,0.0,0.0,0.0,0.0,0.0,0.0,0.0,0.0,0.0,0.0,0.0,0.0,0.0,0.0,0.0,0.0,0.0,0.0,0.0,0.0,0.0,0.0,0.0,0.0,0.0,0.0,0.0,-4.2308,-4.2308,-4.2308,-4.2308,-4.2308,-4.2308,-4.2308,-4.2308,-4.2308,-4.2308,-4.2308,-4.2308,-4.2061,-4.1626,-4.1805,-4.1542,-4.0935,-4.0918,-4.0918,-4.0912,-4.0912,-4.0912,-4.0912,-4.0912,-4.0912,-4.0912,-4.0912,-4.0912,-4.0912,-4.0912,-4.0912,-4.0965,-4.1356,-4.1494,-4.1583,-4.2032,-4.1864,-4.1583,-4.2032,-4.1574,-4.1018,-4.1401,-4.1232,-4.0918,-4.0894,-4.0912,-4.0912,-4.0912,-4.0912,-4.0912,-4.0912,-4.0912,-4.0912,-4.0912,-4.0912,-4.0935,-4.0935,-4.0918,-4.1012,-4.1209,-4.1041,-4.1012,-4.1209,-4.1041,-4.1012,-4.1209,-4.1232,-4.1323,-4.1582,-4.1363,-4.0956,-4.0367,-3.9438,-3.8653,-3.8058,-3.7378,-3.7124,-3.7316,-3.7316,-3.7316,-3.7316,-3.7316,-3.7316,0.0,0.0,0.0,0.0,0.0,0.0,0.0,0.0,0.0,0.0,0.0,0.0,0.0,0.0,0.0,0.0,0.0,0.0,0.0,0.0,0.0,0.0,0.0,0.0,0.0,0.0,0.0,0.0,0.0,0.0,-4.2308,-4.2308,-4.2308,-4.2308,-4.2308,-4.2308,-4.2308,-4.2308,-4.2308,-4.2308,-4.2308,-4.2058,-4.1604,-4.1653,-4.1408,-4.0912,-4.0912,-4.0912,-4.0912,-4.0912,-4.0912,-4.0912,-4.0912,-4.0912,-4.0912,-4.0912,-4.0912,-4.0912,-4.0912,-4.0912,-4.0918,-4.1065,-4.1117,-4.114,-4.1305,-4.1255,-4.1209,-4.1626,-4.1534,-4.1328,-4.1468,-4.1333,-4.1082,-4.0823,-4.0769,-4.0793,-4.0888,-4.0912,-4.0912,-4.0912,-4.0912,-4.0912,-4.0912,-4.0912,-4.0912,-4.0912,-4.0912,-4.0894,-4.0871,-4.0894,-4.0894,-4.0871,-4.0894,-4.0918,-4.0995,-4.1012,-4.1059,-4.1152,-4.1059,-4.0695,-3.9983,-3.9148,-3.8452,-3.792,-3.719,-3.6906,-3.7105,-3.7105,-3.7182,-3.7314,-3.7163,-3.7182,0.0,0.0,0.0,0.0,0.0,0.0,0.0,0.0,0.0,0.0,0.0,0.0,0.0,0.0,0.0,0.0,0.0,0.0,0.0,0.0,0.0,0.0,0.0,0.0,0.0,0.0,0.0,0.0,0.0,0.0,-4.1484,-4.1484,-4.1609,-4.1877,-4.1895,-4.2019,-4.2308,-4.2308,-4.2308,-4.2308,-4.2308,-4.2058,-4.1604,-4.1604,-4.1335,-4.0912,-4.0912,-4.0912,-4.0912,-4.0912,-4.0912,-4.0912,-4.0912,-4.0912,-4.0912,-4.0912,-4.0912,-4.0912,-4.0912,-4.0912,-4.0912,-4.0912,-4.0912,-4.0912,-4.0912,-4.0912,-4.1035,-4.1578,-4.1626,-4.1539,-4.1692,-4.145,-4.1082,-4.0776,-4.0697,-4.0721,-4.0817,-4.0864,-4.0912,-4.0912,-4.0912,-4.0888,-4.084,-4.084,-4.0817,-4.0776,-4.0776,-4.0728,-4.0631,-4.0745,-4.0793,-4.0648,-4.0769,-4.084,-4.084,-4.084,-4.0864,-4.0912,-4.0912,-4.067,-4.0112,-3.937,-3.8679,-3.8087,-3.7303,-3.6846,-3.6728,-3.6849,-3.6985,-3.7103,-3.6948,-3.7007,0.0,0.0,0.0,0.0,0.0,0.0,0.0,0.0,0.0,0.0,0.0,0.0,0.0,0.0,0.0,0.0,0.0,0.0,0.0,0.0,0.0,0.0,0.0,0.0,0.0,0.0,0.0,0.0,0.0,-3.9895,-3.9895,-3.9895,-4.0271,-4.1038,-4.1056,-4.1431,-4.2216,-4.2254,-4.2251,-4.2251,-4.2308,-4.2058,-4.1582,-4.1604,-4.1335,-4.0912,-4.0912,-4.0912,-4.0912,-4.0912,-4.0912,-4.0912,-4.0912,-4.0912,-4.0912,-4.0912,-4.0912,-4.0912,-4.0912,-4.0912,-4.0912,-4.0912,-4.0912,-4.0912,-4.0912,-4.0912,-4.1065,-4.1927,-4.1842,-4.1604,-4.2053,-4.1552,-4.0864,-4.0721,-4.0697,-4.0697,-4.0697,-4.0793,-4.0894,-4.0894,-4.0912,-4.0864,-4.0721,-4.0697,-4.0648,-4.0534,-4.051,-4.051,-4.0493,-4.0607,-4.0648,-4.051,-4.0607,-4.0697,-4.0697,-4.0697,-4.0745,-4.0888,-4.0894,-4.0894,-4.0894,-4.0112,-3.9353,-3.8594,-3.7743,-3.6942,-3.6187,-3.652,-3.6681,-3.6702,-3.6702,-3.6806,-3.5741,0.0,0.0,0.0,0.0,0.0,0.0,0.0,0.0,0.0,0.0,0.0,0.0,0.0,0.0,0.0,0.0,0.0,0.0,0.0,0.0,0.0,0.0,0.0,0.0,0.0,0.0,0.0,-3.9895,-3.9895,-3.9895,-3.9895,-3.9984,-4.0216,-4.0216,-4.0342,-4.0574,-4.1145,-4.135,-4.1224,-4.1958,-4.1956,-4.1323,-4.1498,-4.1335,-4.0912,-4.0912,-4.0912,-4.0912,-4.0912,-4.0912,-4.0912,-4.0912,-4.0912,-4.0912,-4.0912,-4.0912,-4.0912,-4.0912,-4.0912,-4.0912,-4.0912,-4.0912,-4.0912,-4.0912,-4.0912,-4.1012,-4.1556,-4.1578,-4.1401,-4.1338,-4.1151,-4.089,-4.0614,-4.0461,-4.0478,-4.0648,-4.0721,-4.0745,-4.0745,-4.084,-4.0864,-4.0721,-4.0697,-4.0648,-4.0534,-4.051,-4.0461,-4.0362,-4.0461,-4.051,-4.0362,-4.0461,-4.0558,-4.0558,-4.0558,-4.0607,-4.0745,-4.0745,-4.0745,-4.0745,-3.9989,-3.9169,-3.8322,-3.7564,-3.6789,-3.6058,-3.6251,-3.6416,-3.6544,-3.6643,-3.6623,0.0,0.0,0.0,0.0,0.0,0.0,0.0,-3.6623,0.0,0.0,0.0,0.0,0.0,0.0,0.0,0.0,0.0,0.0,0.0,0.0,0.0,0.0,0.0,0.0,0.0,0.0,0.0,-3.8933,-3.8933,-3.8933,-3.8933,-3.8933,-3.9093,-3.9431,-3.9431,-3.9591,-3.9895,-4.0378,-4.0511,-4.0309,-4.123,-4.135,-4.0756,-4.1206,-4.1226,-4.0912,-4.0912,-4.0912,-4.0912,-4.0912,-4.0912,-4.0912,-4.0912,-4.0912,-4.0912,-4.0912,-4.0912,-4.0912,-4.0912,-4.0912,-4.0912,-4.0912,-4.0912,-4.0912,-4.0912,-4.0912,-4.0995,-4.1556,-4.1666,-4.1512,-4.1071,-4.0896,-4.0741,-4.0485,-4.0355,-4.0355,-4.0502,-4.0527,-4.0576,-4.0673,-4.0769,-4.0752,-4.0631,-4.0576,-4.0502,-4.0345,-4.032,-4.0296,-4.0213,-4.0337,-4.0362,-4.0238,-4.0337,-4.0412,-4.0412,-4.0412,-4.0461,-4.0624,-4.0624,-4.0624,-4.0624,-4.0179,-3.9378,-3.823,-3.7757,-3.7001,-3.5927,-3.6058,-3.6187,-3.6297,-3.6437,-3.6377,0.0,0.0,0.0,0.0,0.0,0.0,-3.5837,-3.5907,-3.5972,0.0,0.0,0.0,0.0,0.0,0.0,0.0,0.0,0.0,0.0,0.0,0.0,0.0,0.0,0.0,0.0,-3.7595,-3.7595,-3.7595,-3.7595,-3.7595,-3.7595,-3.7595,-3.7934,-3.8647,-3.8683,-3.8986,-3.9646,-3.9716,-3.9655,-3.9436,-4.027,-4.0465,-4.009,-4.0774,-4.1001,-4.0912,-4.0912,-4.0912,-4.0912,-4.0912,-4.0912,-4.0912,-4.0912,-4.0912,-4.0912,-4.0912,-4.0912,-4.0912,-4.0912,-4.0912,-4.0912,-4.0912,-4.0912,-4.0912,-4.0912,-4.0912,-4.1041,-4.1778,-4.1969,-4.1799,-4.115,-4.0761,-4.0493,-4.0337,-4.0305,-4.028,-4.0305,-4.0305,-4.0379,-4.06,-4.0673,-4.0648,-4.051,-4.0387,-4.0238,-4.0138,-4.0096,-4.0096,-4.0096,-4.0213,-4.0238,-4.0096,-4.0213,-4.028,-4.028,-4.028,-4.0337,-4.0485,-4.0485,-4.0485,-4.0485,-4.0485,-3.9778,-3.8321,-3.8074,-3.7245,-3.5773,-3.591,-3.5975,-3.5997,-3.6122,-3.6122,0.0,0.0,0.0,0.0,0.0,0.0,-3.565,-3.5941,-3.6071,0.0,0.0,0.0,0.0,0.0,0.0,0.0,0.0,0.0,0.0,0.0,0.0,0.0,0.0,0.0,0.0,-3.7595,-3.7595,-3.7595,-3.7595,-3.7595,-3.7595,-3.7595,-3.7684,-3.7845,-3.7826,-3.7898,-3.8059,-3.8701,-3.8812,-3.84,-3.9378,-3.9817,-3.979,-4.0167,-4.0538,-4.0912,-4.0912,-4.0912,-4.0912,-4.0912,-4.0912,-4.0912,-4.0912,-4.0912,-4.0912,-4.0912,-4.0912,-4.0912,-4.0912,-4.0912,-4.0912,-4.0912,-4.0912,-4.0912,-4.0912,-4.0912,-4.1041,-4.1731,-4.2113,-4.2157,-4.1547,-4.1047,-4.0652,-4.0362,-4.0213,-4.0163,-4.028,-4.0305,-4.033,-4.0379,-4.0478,-4.051,-4.0362,-4.033,-4.0238,-4.0138,-4.0096,-4.0096,-4.0096,-4.0138,-4.0138,-4.0096,-4.0121,-4.0138,-4.0138,-4.0138,-4.0188,-4.033,-4.0337,-4.0337,-4.0337,-4.0337,-3.988,-3.8858,-3.7672,-3.6598,-3.5644,-3.5773,-3.5888,-3.5997,-3.6019,-3.6019,0.0,0.0,0.0,-3.56,0.0,0.0,0.0,-3.5728,-3.5795,0.0,0.0,0.0,0.0,0.0,0.0,0.0,0.0,0.0,0.0,0.0,0.0,0.0,0.0,0.0,0.0,-3.7111,-3.7355,-3.7577,-3.7595,-3.7595,-3.7595,-3.7595,-3.7595,-3.7595,-3.7595,-3.7595,-3.7595,-3.7987,-3.7977,-3.7549,-3.8443,-3.8758,-3.8634,-3.9507,-4.0037,-4.0325,-4.0739,-4.0912,-4.0912,-4.0912,-4.0912,-4.0912,-4.0912,-4.0912,-4.0912,-4.0912,-4.0912,-4.0912,-4.0912,-4.0912,-4.0912,-4.0912,-4.0912,-4.0912,-4.0912,-4.1134,-4.1418,-4.1529,-4.1735,-4.1825,-4.1298,-4.0784,-4.0402,-4.0238,-4.0163,-4.0138,-4.0188,-4.0188,-4.0188,-4.0188,-4.0246,-4.0313,-4.0288,-4.0238,-4.0188,-4.0096,-4.0096,-4.0096,-4.0096,-4.0096,-4.0096,-4.0096,-4.0096,-4.0096,-4.0096,-4.0096,-4.0138,-4.0188,-4.0188,-4.0188,-4.0188,-4.0188,-3.9824,-3.9005,-3.7557,-3.6609,-3.6197,-3.5853,-3.5734,-3.58,-3.5866,-3.5866,0.0,0.0,0.0,0.0,0.0,-3.5577,0.0,0.0,0.0,-3.5314,0.0,0.0,0.0,0.0,0.0,0.0,0.0,0.0,0.0,0.0,0.0,0.0,0.0,0.0,0.0,-3.6623,-3.7054,-3.743,-3.7558,-3.7595,-3.7595,-3.7595,-3.7595,-3.7595,-3.7595,-3.7595,-3.7595,-3.7595,-3.7411,-3.7066,-3.7622,-3.7766,-3.759,-3.8738,-3.9422,-3.9733,-4.0394,-4.0774,-4.0912,-4.0912,-4.0912,-4.0912,-4.0912,-4.0912,-4.0912,-4.0912,-4.0912,-4.0912,-4.0912,-4.0912,-4.0912,-4.0912,-4.0912,-4.0912,-4.0864,-4.1277,-4.1687,-4.1396,-4.1383,-4.1415,-4.1042,-4.0604,-4.0221,-4.0121,-4.0096,-4.0096,-4.0096,-4.0096,-4.0096,-4.0096,-4.0096,-4.0121,-4.0238,-4.0163,-4.0096,-4.0096,-4.0096,-4.0096,-4.0096,-4.0096,-4.0096,-4.0096,-4.0096,-4.0096,-4.0096,-4.0096,-4.0096,-4.0096,-4.0096,-4.0096,-4.0096,-4.0096,-3.9757,-3.9005,-3.7845,-3.7083,-3.6795,-3.6146,-3.5752,-3.56,-3.5711,-3.5689,0.0,0.0,0.0,0.0,-3.56,0.0,0.0,0.0,-3.5532,-3.5337,0.0,0.0,0.0,0.0,0.0,0.0,0.0,0.0,0.0,0.0,0.0,0.0,0.0,0.0,0.0,0.0,-3.6919,-3.6995,-3.7374,-3.7595,-3.7595,-3.7595,-3.7595,-3.7595,-3.7595,-3.7595,-3.7595,-3.7595,-3.7503,-3.7259,-3.7173,-3.7358,-3.777,-3.7755,-3.8456,-3.9698,-3.9802,-4.0233,-4.0912,-4.0912,-4.0912,-4.0912,-4.0912,-4.0912,-4.0912,-4.0912,-4.0912,-4.0912,-4.0912,-4.0912,-4.0912,-4.0912,-4.0912,-4.0888,-4.0769,-4.0971,-4.1328,-4.1578,-4.1565,-4.1481,-4.1437,-4.1071,-4.0628,-4.0196,-4.0096,-4.0096,-4.0096,-4.0096,-4.0096,-4.0096,-4.0096,-4.0096,-4.0138,-4.0096,-4.0096,-4.0096,-4.0096,-4.0096,-4.0096,-4.0096,-4.0096,-4.0096,-4.0096,-4.0096,-4.0096,-4.0096,-4.0096,-4.0096,-4.0096,-4.0096,-4.0096,-4.0096,-3.9757,-3.9005,-3.8836,-3.8115,-3.6795,-3.6711,-3.6299,-3.56,-3.5622,-3.5622,0.0,0.0,0.0,0.0,0.0,0.0,0.0,0.0,-3.552,0.0,0.0,0.0,0.0,0.0,0.0,0.0,0.0,0.0,0.0,0.0,0.0,0.0,0.0,0.0,0.0,0.0,0.0,0.0,0.0,-3.7595,-3.7595,-3.7595,-3.7595,-3.7595,-3.7595,-3.754,-3.7428,-3.7428,-3.7259,-3.6946,-3.6866,-3.6861,-3.6928,-3.7327,-3.8082,-3.9077,-3.9508,-4.0146,-4.0912,-4.0912,-4.0912,-4.0912,-4.0912,-4.0912,-4.0912,-4.0912,-4.0912,-4.0912,-4.0912,-4.0912,-4.0912,-4.0912,-4.084,-4.0769,-4.0721,-4.0877,-4.1105,-4.1248,-4.1202,-4.1094,-4.1094,-4.0754,-4.0353,-4.0146,-4.0096,-4.0096,-4.0096,-4.0096,-4.0096,-4.0096,-4.0096,-4.0096,-4.0096,-4.0096,-4.0096,-4.0096,-4.0096,-4.0096,-4.0096,-4.0096,-4.0096,-4.0096,-4.0096,-4.0096,-4.0096,-4.0096,-4.0096,-4.0096,-4.0096,-4.0096,-4.0096,-4.0096,-3.996,-3.9656,-3.9208,-3.8676,-3.7954,-3.7172,-3.658,-3.611,-3.5757,-3.56,-3.5802,0.0,0.0,0.0,0.0,0.0,0.0,0.0,0.0,0.0,0.0,0.0,0.0,0.0,0.0,0.0,0.0,0.0,0.0,0.0,0.0,0.0,0.0,0.0,0.0,0.0,0.0,-3.6664,-3.7131,-3.7449,-3.7595,-3.7595,-3.7595,-3.7595,-3.7558,-3.7447,-3.7297,-3.7239,-3.7066,-3.6786,-3.6722,-3.6602,-3.6419,-3.6947,-3.768,-3.8629,-3.9163,-3.9957,-4.0912,-4.0912,-4.0912,-4.0912,-4.0912,-4.0912,-4.0912,-4.0912,-4.0912,-4.0912,-4.0912,-4.0912,-4.0894,-4.0864,-4.0793,-4.0697,-4.0648,-4.0734,-4.0843,-4.0919,-4.0873,-4.0802,-4.0802,-4.0556,-4.0254,-4.0121,-4.0096,-4.0096,-4.0096,-4.0096,-4.0096,-4.0096,-4.0096,-4.0096,-4.0096,-4.0096,-4.0096,-4.0096,-4.0096,-4.0096,-4.0096,-4.0096,-4.0096,-4.0096,-4.0096,-4.0096,-4.0096,-4.0096,-4.0096,-4.0096,-4.0096,-4.0096,-4.0096,-4.0096,-4.0096,-4.0096,-3.9571,-3.9158,-3.8799,-3.7851,-3.7091,-3.6488,-3.5869,-3.56,0.0,0.0,0.0,-3.56,0.0,0.0,0.0,0.0,-3.5532,0.0,0.0,0.0,0.0,0.0,0.0,0.0,0.0,0.0,0.0,0.0,0.0,0.0,0.0,0.0,0.0,0.0,0.0,-3.6172,-3.6664,-3.7111,-3.7594,-3.7595,-3.7595,-3.7595,-3.741,-3.7297,-3.7297,-3.7105,-3.6989,-3.6987,-3.6786,-3.6702,-3.6681,-3.6457,-3.7163,-3.8594,-3.8634,-3.9514,-4.0912,-4.0912,-4.0912,-4.0912,-4.0912,-4.0912,-4.0912,-4.0912,-4.0912,-4.0912,-4.0912,-4.0912,-4.0888,-4.0745,-4.0697,-4.0673,-4.0558,-4.0412,-4.0387,-4.0724,-4.0802,-4.0802,-4.0802,-4.0778,-4.0659,-4.0221,-4.0096,-4.0096,-4.0096,-4.0096,-4.0096,-4.0096,-4.0096,-4.0096,-4.0096,-4.0096,-4.0096,-4.0096,-4.0096,-4.0096,-4.0096,-4.0096,-4.0096,-4.0096,-4.0096,-4.0096,-4.0096,-4.0096,-4.0096,-4.0096,-4.0096,-4.0096,-4.0096,-4.0096,-4.0096,-4.0096,-4.0079,-3.9648,-3.8799,-3.888,-3.8087,-3.6488,-3.5869,-3.56,0.0,0.0,-3.56,-3.56,0.0,0.0,0.0,0.0,0.0,0.0,0.0,0.0,0.0,0.0,0.0,0.0,0.0,0.0,0.0,0.0,0.0,0.0,0.0,0.0,0.0,0.0,0.0,-3.5798,-3.6062,-3.6437,-3.6915,-3.6995,-3.7073,-3.7203,-3.741,-3.7316,-3.6906,-3.6968,-3.6851,-3.653,-3.6464,-3.6423,-3.6423,-3.6343,-3.7129,-3.8594,-3.8594,-3.9457,-4.0912,-4.0912,-4.0912,-4.0912,-4.0912,-4.0912,-4.0912,-4.0912,-4.0912,-4.0888,-4.0793,-4.0769,-4.0745,-4.0607,-4.0527,-4.0429,-4.0387,-4.0263,-4.0188,-4.0303,-4.0328,-4.0328,-4.0328,-4.0328,-4.0303,-4.0146,-4.0096,-4.0096,-4.0096,-4.0096,-4.0096,-4.0096,-4.0096,-4.0096,-4.0096,-4.0096,-4.0096,-4.0096,-4.0096,-4.0096,-4.0096,-4.0096,-4.0096,-4.0096,-4.0096,-4.0096,-4.0096,-4.0096,-4.0096,-4.0096,-4.0096,-4.0096,-4.0096,-4.0096,-4.0062,-3.9961,-4.0062,-3.9817,-3.9265,-3.9009,-3.8513,-3.7852,-3.6361,-3.544,-3.7083,-3.6417,0.0,-3.5667,-3.56,0.0,-3.56,0.0,0.0,0.0,0.0,0.0,0.0,0.0,0.0,0.0,0.0,0.0,0.0,-3.4899,0.0,0.0,0.0,0.0,0.0,0.0,-3.5299,-3.5526,-3.5644,-3.5929,0.0,0.0,-3.6641,-3.6952,-3.7147,-3.7106,-3.6806,-3.6849,-3.669,-3.6301,-3.6301,-3.6301,-3.6301,-3.6301,-3.7129,-3.8594,-3.8594,-3.9457,-4.0912,-4.0912,-4.0912,-4.0912,-4.0912,-4.0912,-4.0912,-4.0912,-4.0864,-4.0817,-4.0721,-4.0697,-4.0697,-4.0583,-4.0485,-4.0362,-4.0362,-4.0238,-4.0096,-4.0096,-4.0096,-4.0096,-4.0096,-4.0096,-4.0096,-4.0096,-4.0096,-4.0096,-4.0096,-4.0096,-4.0096,-4.0096,-4.0096,-4.0096,-4.0096,-4.0096,-4.0096,-4.0096,-4.0096,-4.0096,-4.0096,-4.0096,-4.0096,-4.0096,-4.0096,-4.0096,-4.0096,-4.0096,-4.0096,-4.0096,-4.0096,-4.0096,-4.0096,-4.0062,-3.9986,-3.9901,-3.9935,-3.9807,-3.9501,-3.9011,-3.855,-3.8155,-3.6776,-3.5563]},{"header":{"parameterUnit":"m.s-1","parameterCategory":1,"la1":30.6,"la2":29.2853,"lo1":-89.7004,"lo2":-87.6739,"dy":0.0162,"dx":0.0183,"nx":112,"ny":82,"refTime":"2023-05-02T00:00:00:Z","depth":0,"parameterNumber":3,"parameterNumberName":"V-component_of_WINDS"},"data":[0.0,0.0,0.0,0.0,0.0,0.0,0.0,0.0,0.0,0.0,0.0,0.0,0.0,0.0,0.0,0.0,0.0,0.0,0.0,0.0,0.0,0.0,0.0,0.0,0.0,0.0,0.0,0.0,0.0,0.0,0.0,0.0,0.0,0.0,0.0,0.0,0.0,0.0,0.0,0.0,0.0,0.0,0.0,0.0,0.0,0.0,0.0,0.0,0.0,0.0,0.0,0.0,0.0,0.0,0.0,0.0,0.0,0.0,0.0,0.0,0.0,0.0,0.0,0.0,0.0,0.0,0.0,0.0,0.0,0.0,0.0,0.0,0.0,0.0,0.0,0.0,0.0,0.0,0.0,0.0,0.0,0.0,0.0,0.0,0.0,0.0,0.0,0.0,0.0,0.0,0.0,-0.5147,-0.4658,-0.4334,-0.43,-0.4028,-0.3859,-0.3792,0.0,0.0,0.0,0.0,0.0,0.0,0.0,0.0,0.0,0.0,0.0,0.0,0.0,0.0,0.0,0.0,0.0,0.0,0.0,0.0,0.0,0.0,0.0,0.0,0.0,0.0,0.0,0.0,0.0,0.0,0.0,0.0,0.0,0.0,0.0,0.0,0.0,0.0,0.0,0.0,0.0,0.0,0.0,0.0,0.0,0.0,0.0,0.0,0.0,0.0,0.0,0.0,0.0,0.0,0.0,0.0,0.0,0.0,0.0,0.0,0.0,0.0,0.0,0.0,0.0,0.0,0.0,0.0,0.0,0.0,0.0,0.0,0.0,0.0,0.0,0.0,0.0,0.0,0.0,0.0,0.0,0.0,0.0,0.0,0.0,0.0,0.0,0.0,0.0,0.0,0.0,0.0,0.0,0.0,0.0,0.0,0.0,0.0,0.0,0.0,0.0,0.0,0.0,0.0,-0.505,-0.4498,-0.4528,-0.4495,-0.43,-0.4267,-0.4097,-0.3825,0.0,0.0,0.0,0.0,0.0,0.0,0.0,0.0,0.0,0.0,0.0,0.0,0.0,0.0,0.0,0.0,0.0,0.0,0.0,0.0,0.0,0.0,0.0,0.0,0.0,0.0,0.0,0.0,0.0,0.0,0.0,0.0,0.0,0.0,0.0,0.0,0.0,0.0,0.0,0.0,0.0,0.0,0.0,0.0,0.0,0.0,0.0,0.0,0.0,0.0,0.0,0.0,0.0,0.0,0.0,0.0,0.0,0.0,0.0,0.0,0.0,0.0,0.0,0.0,0.0,0.0,0.0,0.0,0.0,0.0,0.0,0.0,0.0,0.0,0.0,0.0,0.0,0.0,0.0,0.0,0.0,0.0,0.0,0.0,0.0,0.0,0.0,0.0,0.0,0.0,0.0,0.0,0.0,0.0,0.0,0.0,0.0,0.0,0.0,0.0,0.0,0.0,0.0,-0.5439,-0.4945,-0.4466,-0.4597,-0.4631,-0.4427,-0.4165,-0.3961,-0.3825,-0.3426,0.0,0.0,0.0,0.0,0.0,0.0,0.0,0.0,0.0,0.0,0.0,0.0,0.0,0.0,0.0,0.0,0.0,0.0,0.0,0.0,0.0,0.0,0.0,0.0,0.0,0.0,0.0,0.0,0.0,0.0,0.0,0.0,0.0,0.0,0.0,0.0,0.0,0.0,0.0,0.0,0.0,0.0,0.0,0.0,0.0,0.0,0.0,0.0,0.0,0.0,0.0,0.0,0.0,0.0,0.0,0.0,0.0,0.0,0.0,0.0,0.0,0.0,0.0,0.0,0.0,0.0,0.0,0.0,0.0,0.0,0.0,0.0,0.0,0.0,0.0,0.0,0.0,0.0,0.0,0.0,0.0,0.0,0.0,0.0,0.0,0.0,0.0,0.0,0.0,0.0,0.0,0.0,0.0,0.0,0.0,0.0,0.0,0.0,0.0,0.0,0.0,0.0,-0.5202,-0.4872,-0.4593,-0.4728,-0.4763,-0.455,-0.413,-0.3874,-0.3866,-0.3486,0.0,0.0,0.0,0.0,0.0,0.0,0.0,0.0,0.0,0.0,0.0,0.0,0.0,0.0,0.0,0.0,0.0,0.0,0.0,0.0,0.0,0.0,0.0,0.0,0.0,0.0,0.0,0.0,0.0,0.0,0.0,0.0,0.0,0.0,0.0,0.0,0.0,0.0,0.0,0.0,0.0,0.0,0.0,0.0,0.0,0.0,0.0,0.0,0.0,0.0,0.0,0.0,0.0,0.0,0.0,0.0,0.0,0.0,0.0,0.0,0.0,0.0,0.0,0.0,0.0,0.0,0.0,0.0,0.0,0.0,0.0,0.0,0.0,0.0,0.0,0.0,0.0,0.0,0.0,0.0,0.0,0.0,0.0,0.0,0.0,0.0,0.0,0.0,0.0,0.0,0.0,0.0,0.0,0.0,0.0,0.0,0.0,0.0,0.0,0.0,0.0,0.0,-0.5297,-0.4834,-0.4715,-0.4823,-0.4823,-0.4712,-0.4355,-0.4162,-0.4085,-0.3701,0.0,0.0,0.0,0.0,0.0,0.0,0.0,0.0,0.0,0.0,0.0,0.0,0.0,0.0,0.0,0.0,0.0,0.0,0.0,0.0,0.0,0.0,0.0,0.0,0.0,0.0,0.0,0.0,0.0,0.0,0.0,0.0,0.0,0.0,0.0,0.0,0.0,0.0,0.0,0.0,0.0,0.0,0.0,0.0,0.0,0.0,0.0,0.0,0.0,0.0,0.0,0.0,0.0,0.0,0.0,0.0,0.0,0.0,0.0,0.0,0.0,0.0,0.0,0.0,0.0,0.0,0.0,0.0,0.0,0.0,0.0,0.0,0.0,0.0,0.0,0.0,0.0,0.0,0.0,0.0,0.0,0.0,0.0,0.0,0.0,0.0,0.0,0.0,0.0,0.0,0.0,0.0,0.0,0.0,0.0,0.0,0.0,0.0,0.0,0.0,0.0,0.0,-0.5837,-0.5037,0.0,-0.491,-0.495,-0.4765,-0.4367,-0.4283,-0.4645,0.0,0.0,0.0,0.0,0.0,0.0,0.0,0.0,0.0,0.0,0.0,0.0,0.0,0.0,0.0,0.0,0.0,0.0,0.0,0.0,0.0,0.0,0.0,0.0,0.0,0.0,0.0,0.0,0.0,0.0,0.0,0.0,0.0,0.0,0.0,0.0,0.0,0.0,0.0,0.0,0.0,0.0,0.0,0.0,0.0,0.0,0.0,0.0,0.0,0.0,0.0,0.0,0.0,0.0,0.0,0.0,0.0,0.0,0.0,0.0,0.0,0.0,0.0,0.0,0.0,0.0,0.0,0.0,0.0,0.0,0.0,0.0,0.0,0.0,0.0,0.0,0.0,0.0,0.0,0.0,0.0,0.0,0.0,0.0,0.0,0.0,0.0,0.0,0.0,0.0,0.0,0.0,0.0,0.0,0.0,0.0,0.0,0.0,0.0,0.0,0.0,0.0,-0.7356,-0.6106,-0.5134,0.0,-0.5001,-0.5001,-0.4893,-0.445,-0.4433,-0.5055,0.0,0.0,0.0,0.0,0.0,0.0,0.0,0.0,0.0,0.0,0.0,0.0,0.0,0.0,0.0,0.0,0.0,0.0,0.0,0.0,0.0,0.0,0.0,0.0,0.0,0.0,0.0,0.0,0.0,0.0,0.0,0.0,0.0,0.0,0.0,0.0,0.0,0.0,0.0,0.0,0.0,0.0,0.0,0.0,0.0,0.0,0.0,0.0,0.0,0.0,0.0,0.0,0.0,0.0,0.0,0.0,0.0,0.0,0.0,0.0,0.0,0.0,0.0,0.0,0.0,0.0,0.0,0.0,0.0,0.0,0.0,0.0,0.0,0.0,0.0,0.0,0.0,0.0,0.0,0.0,0.0,0.0,0.0,0.0,0.0,0.0,0.0,0.0,0.0,0.0,0.0,0.0,0.0,0.0,0.0,0.0,0.0,0.0,0.0,0.0,0.0,0.0,-0.7477,-0.6051,-0.5018,-0.5018,-0.5018,-0.5018,-0.4979,-0.4566,-0.4584,0.0,0.0,0.0,0.0,0.0,0.0,0.0,0.0,0.0,0.0,0.0,0.0,0.0,0.0,0.0,0.0,0.0,0.0,0.0,0.0,0.0,0.0,0.0,0.0,0.0,0.0,0.0,0.0,0.0,0.0,0.0,0.0,0.0,0.0,0.0,0.0,0.0,0.0,0.0,0.0,0.0,0.0,0.0,0.0,0.0,0.0,0.0,0.0,0.0,0.0,0.0,0.0,0.0,0.0,0.0,0.0,0.0,0.0,0.0,0.0,0.0,0.0,0.0,0.0,0.0,0.0,0.0,0.0,0.0,0.0,0.0,0.0,0.0,0.0,0.0,0.0,0.0,0.0,0.0,0.0,0.0,0.0,0.0,0.0,0.0,0.0,0.0,0.0,0.0,0.0,0.0,0.0,0.0,0.0,0.0,0.0,0.0,0.0,0.0,0.0,0.0,0.0,0.0,-0.7494,-0.6051,-0.5018,-0.5018,-0.5018,-0.4937,-0.4818,-0.4941,-0.5203,-0.5705,0.0,0.0,0.0,0.0,0.0,0.0,0.0,0.0,0.0,0.0,0.0,0.0,0.0,0.0,0.0,0.0,0.0,0.0,0.0,0.0,0.0,0.0,0.0,0.0,0.0,0.0,0.0,0.0,0.0,0.0,0.0,0.0,0.0,0.0,0.0,0.0,0.0,0.0,0.0,0.0,0.0,0.0,0.0,0.0,0.0,0.0,0.0,0.0,0.0,0.0,0.0,0.0,0.0,0.0,0.0,0.0,0.0,0.0,0.0,0.0,0.0,0.0,0.0,0.0,0.0,0.0,0.0,0.0,0.0,0.0,0.0,0.0,0.0,0.0,0.0,0.0,0.0,0.0,0.0,0.0,0.0,0.0,0.0,0.0,0.0,0.0,0.0,0.0,0.0,0.0,0.0,0.0,0.0,0.0,0.0,0.0,0.0,0.0,0.0,0.0,0.0,0.0,-0.7502,-0.6051,-0.5018,-0.5018,-0.5018,-0.5015,-0.5051,-0.5204,-0.5589,-0.6247,0.0,0.0,0.0,0.0,0.0,0.0,0.0,0.0,0.0,0.0,0.0,0.0,0.0,0.0,0.0,0.0,0.0,0.0,0.0,0.0,0.0,0.0,0.0,0.0,0.0,0.0,0.0,0.0,0.0,0.0,0.0,0.0,0.0,0.0,0.0,0.0,0.0,0.0,0.0,0.0,0.0,0.0,0.0,0.0,0.0,0.0,0.0,0.0,0.0,0.0,0.0,0.0,0.0,0.0,0.0,0.0,0.0,0.0,0.0,0.0,0.0,0.0,0.0,0.0,0.0,0.0,0.0,0.0,0.0,0.0,0.0,0.0,0.0,0.0,0.0,0.0,0.0,0.0,0.0,0.0,0.0,0.0,0.0,0.0,0.0,0.0,0.0,0.0,0.0,0.0,0.0,0.0,0.0,0.0,0.0,0.0,0.0,0.0,0.0,0.0,0.0,0.0,-0.7502,-0.6051,-0.5018,-0.5018,-0.5015,-0.5212,-0.5559,-0.5476,-0.586,-0.6826,0.0,0.0,0.0,0.0,0.0,0.0,0.0,0.0,0.0,0.0,0.0,0.0,0.0,0.0,0.0,0.0,0.0,0.0,0.0,0.0,0.0,0.0,0.0,0.0,0.0,0.0,0.0,0.0,0.0,0.0,0.0,0.0,0.0,0.0,0.0,0.0,0.0,0.0,0.0,0.0,0.0,0.0,0.0,0.0,0.0,0.0,0.0,0.0,0.0,0.0,0.0,0.0,0.0,0.0,0.0,0.0,0.0,0.0,0.0,0.0,0.7428,0.0,0.0,0.0,0.0,0.0,0.0,0.0,0.0,0.0,0.0,0.0,0.0,0.0,0.0,0.0,0.0,0.0,0.0,0.0,0.0,0.0,0.0,0.0,0.0,0.0,0.0,0.0,0.0,0.0,0.0,0.0,0.0,0.0,0.0,0.0,0.0,0.0,0.0,0.0,0.0,0.0,-0.7502,-0.6051,-0.5018,-0.5018,-0.5287,-0.5443,-0.5359,-0.6093,-0.6595,-0.6676,0.0,0.0,0.0,0.0,0.0,0.0,0.0,0.0,0.0,0.0,0.0,0.0,0.0,0.0,0.0,0.0,0.0,0.0,0.0,0.0,0.0,0.0,0.0,0.0,0.0,0.0,0.0,0.0,0.0,0.0,0.0,0.0,0.0,0.0,0.0,0.0,0.0,0.0,0.0,0.0,0.0,0.0,0.0,0.0,0.0,0.0,0.0,0.0,0.0,0.0,0.0,0.0,0.0,0.0,0.0,0.0,0.0,0.0,0.0,0.0,0.0,0.7712,0.0,0.0,0.0,0.0,0.0,0.0,0.0,0.0,0.0,0.0,0.0,0.0,0.0,0.0,0.0,0.0,0.0,0.0,0.0,0.0,0.0,0.0,0.0,0.0,0.0,0.0,0.0,0.0,0.0,0.0,0.0,0.0,0.0,0.0,0.0,0.0,0.0,0.0,0.0,0.0,-0.7502,-0.6051,-0.5132,-0.5553,-0.5595,-0.5789,-0.6325,-0.671,-0.6942,-0.7022,-0.7215,0.0,0.0,0.0,0.0,0.0,0.0,0.0,0.0,0.0,0.0,0.0,0.0,0.0,0.0,0.0,0.0,0.0,0.0,0.0,0.0,0.0,0.0,0.0,0.0,0.0,0.0,0.0,0.0,0.0,0.0,0.0,0.0,0.0,0.0,0.0,0.0,0.0,0.0,0.0,0.0,0.0,0.0,0.0,0.0,0.0,0.0,0.0,0.0,0.0,0.0,0.0,0.0,0.0,0.9869,0.9869,0.9869,0.9869,0.9799,0.9691,0.9538,0.9058,0.8393,0.0,0.0,0.0,0.0,0.0,0.0,0.0,0.0,0.0,0.0,0.0,0.0,0.0,0.0,0.0,0.0,0.0,0.0,0.0,0.0,0.0,0.0,0.0,0.0,0.0,-0.1726,-0.1948,0.0,0.0,0.0,0.0,0.0,0.0,0.0,0.0,0.0,0.0,0.0,0.0,-0.723,-0.5973,-0.5401,-0.6125,-0.598,-0.6289,-0.7407,-0.7211,-0.7134,-0.748,-0.7484,-0.7229,0.0,0.0,0.0,0.0,0.0,0.0,0.0,0.0,0.0,0.0,0.0,0.0,0.0,0.0,0.0,0.0,0.0,0.0,0.0,0.0,0.0,0.0,0.0,0.0,0.0,0.0,0.0,0.0,0.0,0.0,0.0,0.0,1.3455,1.3346,0.0,0.0,0.0,0.0,0.0,0.0,0.0,0.0,0.0,0.0,0.0,0.0,0.0,1.2056,1.1905,1.1743,1.1536,1.1334,1.1334,1.1334,1.1334,1.1334,1.1303,1.1303,1.1272,0.0,0.9148,0.9148,0.0,0.0,0.0,0.0,0.0,0.0,0.0,0.0,0.0,0.0,0.0,0.0,0.0,0.0,0.0,0.0,0.0,0.0,0.0,0.0,0.0,0.0,-0.1283,-0.1688,-0.1772,-0.201,0.0,-0.3021,-0.3013,-0.3051,-0.3455,0.0,0.0,0.0,0.0,0.0,0.0,0.0,-0.6115,-0.5783,-0.5712,-0.6167,-0.6514,-0.6942,-0.7446,-0.7446,-0.7446,-0.7484,-0.733,-0.713,-0.6873,-0.6543,0.0,0.0,0.0,0.0,0.0,0.0,0.0,0.0,0.0,0.0,0.0,0.0,0.0,0.0,0.0,0.0,0.0,0.0,0.0,0.0,0.0,0.0,0.0,0.0,0.0,0.0,0.0,0.0,0.0,1.3492,1.3492,1.3492,1.3492,1.3477,0.0,0.0,0.0,0.0,0.0,0.0,0.0,0.0,0.0,1.2627,1.2661,1.2594,1.2413,1.234,1.2207,1.2102,1.2102,1.2102,1.2102,1.2102,1.2102,1.2102,1.2102,1.1727,1.1028,1.0283,0.9474,0.8731,0.0,0.0,0.0,0.0,0.6999,0.6548,0.6313,0.6042,0.0,0.0,0.0,0.0,0.0,0.0,0.0,0.0,0.0,0.0,0.0,0.0,0.0,-0.1466,-0.1701,-0.1975,-0.2348,-0.2762,-0.3128,0.0,-0.362,-0.3882,-0.4079,0.0,0.0,0.0,0.0,0.0,-0.6083,-0.5512,-0.5321,-0.5967,-0.6205,-0.6591,-0.7284,-0.7442,-0.7484,-0.7484,-0.7407,-0.7292,-0.7061,-0.6794,-0.6486,0.0,0.0,0.0,0.0,0.0,0.0,0.0,0.0,0.0,0.0,0.0,0.0,0.0,0.0,0.0,0.0,0.0,0.0,0.0,0.0,0.0,0.0,0.0,0.0,0.0,0.0,0.0,0.0,1.3492,1.3492,1.3492,1.3492,1.3572,0.0,0.0,0.0,0.0,0.0,0.0,1.3424,1.3254,1.3043,1.2905,1.3016,1.2944,1.2719,1.2643,1.2565,1.2485,1.2485,1.2485,1.2485,1.2485,1.2485,1.2485,1.2485,1.2485,1.2415,1.1414,1.0529,0.9803,0.9803,0.915,0.82,0.82,0.7679,0.6957,0.7062,0.6785,0.6273,0.5329,0.0,0.3532,0.2914,0.0,0.0,0.0,0.0,-0.0269,-0.1094,-0.1296,-0.1335,-0.1414,-0.1765,-0.2078,-0.2195,-0.2785,-0.3335,0.0,-0.3724,-0.388,-0.4116,0.0,0.0,0.0,0.0,-0.5857,-0.5819,-0.5279,-0.5162,-0.5848,-0.5896,-0.6247,-0.7126,-0.7249,-0.733,-0.7484,-0.7484,-0.7407,-0.7223,-0.7061,-0.6809,-0.6457,0.0,0.0,0.0,0.0,0.0,0.0,0.0,0.0,0.0,0.0,0.0,0.0,0.0,0.0,0.0,0.0,0.0,0.0,0.0,0.0,0.0,0.0,0.0,0.0,0.0,0.0,0.0,0.0,0.0,1.3492,1.3492,0.0,0.0,0.0,0.0,1.3535,1.3666,1.3768,1.3768,1.3954,1.404,1.4004,1.3839,1.3588,1.3274,1.3057,1.2833,1.2485,1.2485,1.2485,1.2485,1.2485,1.2485,1.2485,1.2485,1.2485,1.2485,1.2422,1.1886,1.1118,1.1118,1.0157,0.8744,0.8744,0.8263,0.7571,0.7571,0.7425,0.6986,0.5412,0.3827,0.2497,0.2518,0.2499,0.0,0.0,0.0588,0.0274,-0.0982,-0.1296,-0.1414,-0.1764,-0.2195,-0.2589,-0.2943,-0.3413,-0.3645,0.0,-0.3491,-0.3919,-0.4307,0.0,-0.454,-0.4737,-0.4935,-0.4976,-0.4815,-0.5246,-0.5631,-0.5886,-0.5896,-0.6247,-0.7126,-0.6865,-0.6907,-0.7446,-0.7484,-0.7407,-0.7223,-0.718,-0.7096,-0.6888,-0.6471,0.0,0.0,0.0,0.0,0.0,0.0,0.0,0.0,0.0,0.0,0.0,0.0,0.0,0.0,0.0,0.0,0.0,0.0,0.0,0.0,0.0,0.0,0.0,0.0,0.0,0.0,0.0,0.0,1.3492,1.3492,0.0,0.0,1.3681,1.3754,1.3884,1.3956,1.3928,1.3797,1.4197,1.4311,1.4022,1.4276,1.4297,1.4066,1.3983,1.3924,1.3777,1.3777,1.3777,1.377,1.3558,1.3462,1.3448,1.3243,1.3148,1.3148,1.3148,1.2717,1.203,1.203,1.141,1.0469,0.9956,0.916,0.8221,0.7699,0.7415,0.6996,0.5466,0.4341,0.3413,0.2725,0.2511,0.2314,0.149,0.0942,0.0393,-0.0432,-0.1178,-0.1726,-0.1882,-0.2392,-0.2943,-0.3062,-0.3452,-0.3765,-0.3569,-0.3686,-0.388,-0.4155,-0.4309,-0.4462,-0.4659,-0.4859,-0.4976,-0.4898,-0.4973,-0.5049,-0.5121,-0.5356,-0.5589,-0.5774,-0.6398,-0.6826,-0.6907,-0.7292,-0.7484,-0.7407,-0.7257,-0.718,-0.7099,-0.6698,-0.6352,0.0,0.0,0.0,0.0,0.0,0.0,0.0,0.0,0.0,0.0,0.0,0.0,0.0,0.0,0.0,0.0,0.0,0.0,0.0,0.0,0.0,0.0,0.0,0.0,0.0,0.0,1.3492,1.3492,1.3492,1.3609,1.394,1.3918,1.4036,1.4393,1.4438,1.4408,1.4342,1.4735,1.4812,1.4486,1.4696,1.4808,1.4699,1.4589,1.4543,1.4613,1.4543,1.4511,1.4496,1.4284,1.4181,1.4174,1.3916,1.3821,1.3814,1.3704,1.3404,1.3001,1.2892,1.2389,1.1675,1.0858,0.9933,0.8975,0.8116,0.7528,0.6992,0.572,0.4806,0.3984,0.3004,0.2589,0.2392,0.1763,0.1099,0.0471,-0.0157,-0.1098,-0.1882,-0.1882,-0.2511,-0.3102,-0.3102,-0.3452,-0.3802,-0.3802,-0.3802,-0.3882,-0.4079,-0.4194,-0.4387,-0.4659,-0.4818,-0.4937,-0.4979,-0.4898,-0.4779,-0.4701,-0.4932,-0.5085,-0.5082,-0.5857,-0.6363,-0.6367,-0.6753,-0.6942,-0.6861,-0.6749,-0.6676,-0.6676,-0.6131,-0.5701,-0.5339,0.0,0.0,0.0,0.0,0.0,0.0,0.0,0.0,0.0,0.0,0.0,0.0,0.0,0.0,0.0,0.0,0.0,0.0,0.0,0.0,0.0,0.0,0.0,1.3558,1.3514,1.3514,1.3506,1.3514,1.3748,1.4276,1.414,1.4311,1.5049,1.5111,1.5196,1.5358,1.5582,1.5582,1.5374,1.5219,1.5103,1.5103,1.4729,1.465,1.4823,1.4604,1.4533,1.4533,1.4526,1.4526,1.4526,1.4511,1.4511,1.4482,1.4166,1.4034,1.3967,1.3623,1.301,1.2224,1.1446,1.0625,0.9728,0.8746,0.7897,0.7084,0.6195,0.5112,0.4029,0.3335,0.2826,0.2392,0.1803,0.1138,0.051,-0.0118,-0.1059,-0.1882,-0.1921,-0.2511,-0.3102,-0.3102,-0.3491,-0.3802,-0.3802,-0.3802,-0.3882,-0.404,-0.4079,-0.4235,-0.4623,-0.4701,0.0,-0.4976,-0.4979,-0.4937,-0.474,-0.4701,-0.4854,-0.5243,-0.5282,-0.5476,-0.5864,-0.5899,-0.5822,-0.5622,-0.5583,-0.5583,-0.5583,-0.481,-0.4226,-0.383,0.0,0.0,0.0,0.0,0.0,0.0,0.0,0.0,0.0,0.0,0.0,0.0,0.0,0.0,0.0,0.0,0.0,0.0,0.0,0.0,0.0,0.0,1.4262,1.3894,1.385,1.3918,1.4052,1.4305,1.4484,1.4643,1.4866,1.4911,1.4691,1.508,1.5157,1.4777,1.5104,1.5272,1.5048,1.5238,1.5323,1.5323,1.5201,1.516,1.5242,1.516,1.5167,1.516,1.4878,1.4769,1.4761,1.4567,1.4511,1.4496,1.4408,1.4372,1.432,1.3718,1.3346,1.3083,1.2268,1.0987,0.9528,0.8513,0.8025,0.7633,0.6311,0.5693,0.5112,0.3567,0.3023,0.2826,0.2392,0.1803,0.1176,0.051,-0.0392,-0.1371,-0.2156,-0.2746,-0.318,-0.353,-0.3724,-0.3802,-0.3802,-0.3802,-0.3802,-0.3882,-0.3999,-0.4157,-0.4235,-0.4506,0.0,-0.4779,-0.4898,-0.4979,-0.4937,-0.4898,-0.4896,-0.4854,-0.5285,-0.5437,-0.5276,-0.5667,-0.5822,-0.5622,-0.5583,-0.5547,-0.5395,-0.4885,-0.4496,0.0,0.0,0.0,0.0,0.0,0.0,0.0,0.0,0.0,0.0,0.0,0.0,0.0,0.0,0.0,0.0,0.0,0.0,0.0,0.0,0.0,0.0,1.467,1.4636,1.4562,1.4344,1.4294,1.4508,1.4604,1.4905,1.5461,1.546,1.5541,1.5855,1.6042,1.6034,1.5878,1.6136,1.6236,1.6118,1.6104,1.6159,1.6252,1.5954,1.5795,1.5747,1.5628,1.552,1.5382,1.5192,1.5104,0.0,1.4948,1.4874,1.486,1.4721,1.467,0.0,0.0,0.0,0.0,0.0,1.0919,0.9604,0.8665,0.8365,0.8169,0.7046,0.6388,0.5735,0.4226,0.345,0.3023,0.2628,0.2078,0.1528,0.1138,0.0078,-0.0979,-0.1371,-0.2314,-0.31,-0.3132,-0.3487,-0.3802,-0.3802,-0.3802,0.0,-0.3802,-0.3882,-0.3999,-0.4079,-0.4314,-0.4467,-0.4582,-0.4659,-0.4779,-0.4859,-0.4859,-0.4859,-0.4818,-0.5132,0.0,0.0,0.0,-0.5162,-0.4849,-0.4849,0.0,0.0,0.0,-0.3679,-0.3485,0.0,0.0,0.0,-0.1663,-0.1903,0.0,0.0,0.0,0.0,0.0,0.0,0.0,0.0,0.0,0.0,0.0,0.0,0.0,0.0,0.0,0.0,1.4958,1.5047,1.5319,1.4961,1.4729,1.4913,1.4833,1.5228,1.6423,1.5986,1.6192,1.7549,1.7291,1.7247,1.764,0.0,0.0,0.0,0.0,1.7115,1.7298,1.6676,1.6359,1.6201,1.6043,1.5796,1.5447,1.5447,1.5425,1.5389,1.5389,1.5389,1.5367,1.5075,1.4958,1.4922,1.4611,1.4328,1.3807,1.1891,1.075,0.9997,0.9076,0.0,0.0,0.8051,0.7157,0.6106,0.5079,0.4031,0.31,0.2668,0.2156,0.1685,0.1607,0.0509,-0.0509,-0.0117,-0.141,-0.2627,-0.2151,-0.2818,-0.3487,-0.3526,-0.3606,-0.3645,-0.3645,-0.3724,-0.3843,-0.404,-0.4079,-0.4155,-0.4345,-0.4384,-0.4462,-0.4659,0.0,0.0,-0.4937,-0.4979,-0.4818,-0.4423,-0.4345,-0.419,-0.3802,-0.3802,-0.3763,-0.3724,-0.2902,-0.2392,-0.2156,-0.1374,-0.0982,-0.1021,-0.1372,-0.1744,0.0,0.0,0.0,0.0,0.0,0.0,0.0,0.0,0.0,0.0,0.0,0.0,0.0,0.0,0.0,1.5294,1.5294,1.5431,1.5729,1.5672,1.5659,1.5837,1.605,1.6334,1.6633,1.6888,1.6934,1.6712,1.6727,1.6771,1.6676,1.6676,0.0,1.6676,1.6588,1.6544,1.6588,1.6455,1.6382,1.6367,0.0,0.0,1.5783,1.5783,1.5679,1.5389,1.5389,1.5389,1.5382,1.5316,1.5294,1.5236,1.4699,1.4467,1.4207,1.2393,1.1666,1.1305,0.9717,0.9204,0.9056,0.8299,0.7573,0.6788,0.5572,0.4457,0.0,0.31,0.2668,0.2196,0.1724,0.1371,0.094,0.0196,-0.0313,-0.0705,-0.1057,-0.1331,-0.1528,-0.1723,-0.2313,-0.2744,-0.2744,-0.3333,-0.3802,-0.3843,-0.3999,-0.4118,-0.4155,-0.4309,-0.4423,-0.4462,-0.4621,-0.4701,-0.474,-0.4898,-0.4818,-0.4423,-0.4112,-0.388,-0.3802,-0.3802,-0.3608,-0.3258,-0.2746,-0.2314,-0.196,-0.161,-0.1531,-0.1686,-0.1256,-0.1175,0.0,0.0,0.0,0.0,0.0,0.0,0.0,0.0,0.0,0.0,0.0,1.5389,0.0,0.0,1.544,1.5608,1.563,1.5782,1.6234,1.6227,1.6212,1.6392,1.6477,1.6659,1.7122,1.7153,1.7176,1.7251,1.7221,1.7228,1.7259,1.7259,1.7259,1.7259,1.713,1.7039,1.7039,1.6941,1.6769,1.6653,1.6653,1.6492,1.614,1.614,1.5972,1.563,1.563,1.5577,1.5389,1.5389,1.5389,1.5352,1.5072,1.4853,1.4526,1.3114,1.2295,1.1736,1.0449,0.9689,0.9227,0.8725,0.8124,0.7373,0.5956,0.4894,0.4055,0.3169,0.2765,0.252,0.2234,0.1909,0.1583,0.138,0.0684,0.004,0.004,-0.0434,-0.094,-0.1058,-0.1528,-0.1882,-0.1882,-0.2272,-0.2821,-0.3684,-0.3882,-0.396,-0.396,-0.4036,-0.4153,-0.4231,-0.435,-0.4467,-0.4698,-0.4701,-0.4582,-0.427,-0.3958,-0.3802,-0.3802,-0.3802,-0.3489,-0.2826,-0.2314,-0.1724,-0.1097,-0.0706,-0.0589,-0.0784,-0.0471,-0.0785,0.0,0.0,0.0,0.0,0.0,0.0,0.0,0.0,1.5389,1.5389,1.5389,1.5389,1.5389,1.544,1.5571,1.587,1.5965,1.6154,1.6691,1.6603,1.6573,1.6773,1.6677,1.6818,1.7462,1.7272,1.7285,1.7924,1.7761,1.7714,1.7939,1.7939,1.7939,1.7939,1.7714,1.7628,1.7628,1.7426,1.7201,1.6991,1.6991,1.6822,1.6507,1.6507,1.6294,1.6001,1.5943,1.5767,1.5476,1.5411,1.5389,1.5389,1.5389,1.5228,1.4885,1.3849,1.2866,1.1925,1.1118,1.0223,0.9399,0.9197,0.8689,0.7932,0.6354,0.5349,0.4522,0.3193,0.2776,0.2692,0.2692,0.2313,0.2018,0.2566,0.1616,0.0735,0.1185,0.0483,-0.0278,-0.0395,-0.071,-0.0985,-0.1019,-0.1175,-0.1802,-0.3331,-0.3528,-0.3606,-0.3763,-0.3802,-0.3882,-0.404,-0.4079,-0.4233,-0.4623,-0.4501,-0.4229,-0.3882,-0.3645,-0.3489,-0.3331,-0.3331,-0.2938,-0.2156,-0.1607,-0.0979,-0.0196,0.0275,0.0392,0.0196,0.0196,-0.0392,1.5173,1.5389,1.5389,1.5389,1.5389,1.5389,0.0,0.0,1.5389,1.5389,1.5389,1.5389,1.5389,1.5622,1.5877,1.5913,1.614,1.6477,1.6845,1.6844,1.6954,1.7186,1.7157,1.7159,1.7338,1.7522,1.7537,1.7419,1.738,1.738,1.738,1.738,1.738,1.738,1.738,1.7333,1.7333,1.7333,1.7264,1.7274,1.7274,1.7106,1.6844,1.6844,1.6668,1.6345,1.603,1.5899,1.584,1.5506,1.5389,1.5389,1.5389,1.5367,1.5247,1.4351,1.3403,1.2463,1.154,1.0651,0.9895,0.963,0.9105,0.835,0.693,0.5806,0.4812,0.3566,0.2985,0.2692,0.2692,0.265,0.2608,0.2692,0.2561,0.2387,0.2262,0.2132,0.1908,0.1505,0.0769,0.012,-0.0118,-0.0784,-0.1607,-0.251,-0.2628,-0.2942,-0.3684,-0.3802,-0.3802,-0.3841,-0.3999,-0.4194,-0.4423,-0.4423,-0.3992,-0.3013,-0.2743,-0.2313,-0.1606,-0.1567,-0.1332,-0.0823,-0.0587,-0.0235,0.0236,0.0118,-0.0039,-0.0235,-0.0235,-0.0118,1.5298,1.5389,0.0,0.0,1.5389,1.5389,1.5389,1.5389,1.5389,1.5389,1.5389,1.5447,1.5679,1.5826,1.6038,0.0,1.6617,1.6807,1.7084,1.7128,1.7179,1.7311,1.7262,1.7279,1.7311,1.738,1.7426,1.7333,1.7279,1.7279,1.7279,1.7279,1.7279,1.7279,1.7279,1.7279,1.7279,1.7279,1.7279,1.7279,1.7279,1.726,1.7128,1.7128,1.6952,1.6683,1.6316,1.6177,1.6155,1.584,1.5673,1.5652,1.5462,1.5389,1.5347,1.4999,1.3922,1.2632,1.2254,1.1187,0.9937,0.9679,0.9436,0.8987,0.7694,0.6552,0.5475,0.4353,0.3448,0.2798,0.2798,0.2798,0.2798,0.2798,0.2771,0.2745,0.266,0.2505,0.2349,0.2161,0.1575,0.1111,0.1005,0.0561,-0.008,-0.0903,-0.1489,-0.192,-0.2311,-0.235,-0.235,-0.235,-0.2508,-0.2624,-0.2584,-0.2701,-0.2545,-0.1958,-0.1841,-0.1646,-0.1332,-0.1293,-0.0979,-0.0274,-0.0039,0.0392,0.1061,0.1099,0.1059,0.0981,0.0863,0.0942,1.5389,0.0,0.0,1.5389,1.5389,1.5389,1.5389,1.5389,1.5411,1.5506,1.552,1.5657,1.5979,1.6111,0.0,1.6829,1.6976,1.7062,1.725,1.7279,1.7279,1.7279,1.7279,1.7279,1.7279,1.7279,1.7279,1.7279,1.7279,1.7279,1.7279,1.7279,1.7279,1.7279,1.7279,1.7279,1.7279,1.7279,1.7279,1.7279,1.7279,1.7279,1.7279,1.7279,1.7201,1.6967,1.669,1.6551,1.6521,1.617,1.6038,1.6016,1.5782,1.5687,1.5679,1.5557,1.4509,1.3063,1.2802,1.1655,1.0294,0.9864,0.9689,0.9467,0.8273,0.7302,0.6331,0.5312,0.4162,0.3275,0.3275,0.3097,0.292,0.292,0.2885,0.2808,0.2808,0.2686,0.2524,0.2422,0.2164,0.1854,0.1732,0.1553,0.1173,0.0476,-0.0197,-0.0745,-0.1254,-0.1293,-0.1293,-0.1293,-0.1489,-0.1528,-0.1332,-0.1489,-0.1411,-0.0979,-0.094,-0.0823,-0.0588,-0.0588,-0.0274,0.0353,0.0549,0.098,0.1611,0.1808,0.1887,0.1808,0.165,0.165,0.0,0.0,1.5389,1.5389,1.5389,1.5389,1.5389,1.5389,1.5476,1.5833,1.5899,1.5994,1.6345,1.6653,1.6881,1.6895,1.7113,1.7271,1.7279,1.7279,1.7279,1.7279,1.7279,1.7279,0.0,1.7279,1.7279,1.7279,1.7279,1.7279,1.7279,1.7279,1.7279,1.7279,1.7279,1.7279,1.7279,1.7279,1.7279,1.7279,1.7279,1.7279,1.7279,1.7279,1.7279,1.725,1.702,1.6881,1.6859,1.6536,1.6397,1.6397,1.6389,1.6382,1.6345,1.6009,1.5127,1.3922,1.3021,1.2083,1.1111,1.0255,0.9994,0.9772,0.8532,0.7962,0.7522,0.6378,0.5184,0.4255,0.4255,0.3587,0.292,0.292,0.2918,0.2915,0.2915,0.2869,0.2806,0.2529,0.2476,0.2328,0.177,0.1692,0.1587,0.1301,0.1236,0.0628,-0.1097,-0.1293,-0.1293,-0.1293,-0.1489,-0.1528,-0.1332,-0.1489,-0.1136,-0.0117,-0.0039,0.0353,0.1178,0.1218,0.1218,0.1257,0.1454,0.1572,0.1611,0.1808,0.1808,0.1611,0.1611,0.1493,0.0,0.0,1.5389,1.5389,1.5389,1.5447,1.5701,1.571,1.584,1.6148,1.6213,1.6316,1.6675,1.6829,1.6969,1.7135,1.726,1.7279,1.7279,1.7279,1.7279,1.7279,1.7279,0.0,0.0,0.0,0.0,1.7279,1.7279,1.7279,1.7279,1.7279,1.7279,1.7279,1.7279,1.7279,1.7279,1.7279,1.7279,1.7279,1.7279,1.7279,1.7279,1.7279,1.7279,1.7271,1.7216,1.7172,1.7143,1.6866,1.6734,1.6712,1.6499,1.6411,1.6404,1.625,1.5966,1.5366,1.3401,1.2083,1.1154,1.0294,0.9994,0.9907,0.9288,0.8496,0.7702,0.7177,0.616,0.5099,0.4476,0.4076,0.3676,0.3053,0.292,0.292,0.292,0.292,0.2868,0.2803,0.262,0.2426,0.2243,0.1966,0.1642,0.135,0.1317,0.11,0.051,0.0432,0.0432,0.0432,0.0353,0.0353,0.0432,0.0353,0.0471,0.0824,0.0863,0.0982,0.1296,0.1296,0.1296,0.1296,0.1375,0.1415,0.1415,0.1454,0.1533,0.1611,0.1454,0.1454,1.5443,1.5564,1.5628,1.5738,1.5767,1.5818,1.603,1.6074,1.6162,1.6521,1.6587,1.6683,1.7013,1.7026,1.7091,1.725,1.7279,1.7279,1.7279,1.7279,1.7279,1.7279,1.7279,0.0,0.0,0.0,0.0,1.7279,1.7279,1.7279,1.7279,1.7279,1.7279,1.7279,1.7279,1.7279,1.7279,1.7279,1.7279,1.7279,1.7279,1.7279,1.7279,1.7279,1.7279,1.7279,1.7279,1.7279,1.7311,1.7106,1.7026,1.7004,1.6791,1.6711,1.6696,1.6624,1.6587,1.624,1.3818,1.2578,1.1882,1.0613,1.017,1.0064,0.9893,0.9169,0.8408,0.8193,0.7268,0.6163,0.5497,0.5053,0.4654,0.4032,0.3631,0.3409,0.3409,0.3142,0.292,0.292,0.2694,0.2458,0.2424,0.1966,0.1589,0.1326,0.1586,0.1721,0.1338,0.1296,0.1296,0.1296,0.1296,0.1296,0.1296,0.1296,0.1414,0.1728,0.1727,0.1884,0.2195,0.2195,0.2195,0.2195,0.2195,0.2195,0.2195,0.1884,0.1805,0.1924,0.1492,0.1375,1.5433,1.5792,1.5922,1.625,1.6367,1.6419,1.6433,1.6441,1.6529,1.6859,1.6925,1.7013,0.0,0.0,1.7279,1.7279,1.7279,1.7279,1.7279,1.7279,1.7279,0.0,0.0,0.0,0.0,0.0,0.0,1.7279,0.0,1.7279,1.7279,1.7279,1.7279,1.7279,1.7279,1.7279,1.7279,1.7279,1.7279,1.7279,1.7279,1.7279,1.7279,1.7279,1.7279,1.7279,1.7279,1.7279,1.7279,1.7279,1.7279,1.7279,1.7279,1.7279,1.7296,1.6989,1.6925,1.6601,1.4391,1.3598,1.3257,1.1303,1.0534,1.0376,1.0286,0.9967,0.959,0.9376,0.8484,0.7503,0.7194,0.6479,0.5764,0.5719,0.501,0.4389,0.4389,0.3676,0.3053,0.3053,0.2827,0.2602,0.2378,0.1897,0.1555,0.1481,0.2273,0.2483,0.1425,0.1338,0.1377,0.1375,0.1375,0.1375,0.1414,0.1414,0.1766,0.251,0.2549,0.2938,0.3752,0.3791,0.3791,0.3791,0.3791,0.3791,0.3791,0.2978,0.2549,0.247,0.1728,0.1335,1.3642,1.4386,1.5096,1.5209,1.5821,1.6477,1.6719,1.6778,1.6866,1.7143,1.7208,1.723,0.0,0.0,0.0,1.7279,1.7279,0.0,1.7279,1.7279,0.0,0.0,0.0,1.7279,1.7279,1.7279,0.0,0.0,1.7279,1.7279,1.7279,1.7279,1.7279,1.7279,1.7279,1.7279,1.7279,1.7279,1.7279,1.7279,1.7279,1.7279,1.7279,1.7279,1.7279,1.7279,1.7279,1.7279,1.7279,1.7279,1.7279,1.7279,1.7279,1.7279,1.7271,1.7238,1.7208,1.7008,1.5698,1.4969,1.4295,1.2341,1.167,1.144,1.0494,1.0141,1.0008,0.9825,0.9265,0.8608,0.784,0.7173,0.6564,0.5852,0.5497,0.5364,0.5364,0.5144,0.4966,0.4966,0.4828,0.4603,0.4334,0.4005,0.3699,0.349,0.3692,0.3214,0.1501,0.1893,0.2318,0.2201,0.2198,0.247,0.3091,0.3169,0.3248,0.3443,0.3482,0.356,0.3791,0.3791,0.3791,0.3791,0.3791,0.3791,0.3791,0.356,0.3132,0.2511,0.2276,0.1962,1.4064,1.4756,1.5182,1.5727,1.6368,1.6835,1.7018,1.7062,1.7113,1.7296,1.7279,0.0,0.0,0.0,0.0,0.0,0.0,0.0,1.7279,1.7279,1.7279,0.0,1.7279,0.0,1.7279,1.7279,1.7279,0.0,1.7279,1.7279,1.7279,1.7279,1.7279,1.7279,1.7279,1.7279,1.7279,1.7279,1.7279,1.7279,1.7279,1.7279,1.7279,1.7279,1.7279,1.7279,0.0,1.7279,1.7279,1.7279,1.7279,1.7279,1.7279,1.7279,1.7279,1.7279,1.7279,1.7232,1.6662,1.6244,1.5631,1.317,1.231,1.1997,1.0847,1.0464,1.0343,1.0116,0.9846,0.9483,0.888,0.8447,0.7997,0.7382,0.6828,0.6409,0.6352,0.5985,0.5675,0.5583,0.5494,0.527,0.4912,0.4692,0.4539,0.4395,0.4736,0.4465,0.2938,0.3106,0.3306,0.319,0.3144,0.3326,0.3756,0.3791,0.3947,0.43,0.4338,0.4494,0.4885,0.4885,0.4885,0.4885,0.4885,0.4885,0.4885,0.4494,0.4066,0.3563,0.2862,0.2315,1.5072,1.5617,1.5663,1.6825,1.7185,1.7279,1.7279,1.7279,1.7279,1.7279,0.0,0.0,1.7279,0.0,1.7279,1.7279,0.0,1.7279,1.7279,1.7279,1.7279,1.7279,1.7279,1.7279,1.7279,1.7279,1.7279,1.7279,1.7279,1.7279,1.7279,1.7326,1.7333,1.7279,1.7279,1.7279,1.7279,1.7279,1.7279,1.7279,1.7279,1.7279,1.7279,1.7279,1.7279,1.7279,0.0,0.0,1.7279,1.7279,1.7279,1.7279,1.7279,1.7279,1.7279,1.7279,1.7279,1.7279,1.7279,1.7279,1.6803,1.3878,1.2784,1.2436,1.1311,1.0806,1.0608,1.0422,1.031,1.0199,1.0017,0.9766,0.952,0.9349,0.8485,0.7619,0.7423,0.6707,0.603,0.5849,0.5802,0.5625,0.5181,0.5048,0.5048,0.5048,0.5758,0.6028,0.514,0.4692,0.4384,0.4202,0.4191,0.4196,0.4189,0.4169,0.4438,0.5143,0.5168,0.5512,0.6261,0.63,0.63,0.63,0.63,0.63,0.63,0.5553,0.5121,0.4963,0.3524,0.2744,1.2689,1.4244,1.5779,1.6021,1.6702,1.7279,1.7279,1.7279,0.0,0.0,0.0,1.7279,1.7279,1.7279,0.0,1.7279,0.0,0.0,0.0,0.0,1.7279,0.0,0.0,0.0,0.0,0.0,0.0,0.0,0.0,1.7279,1.7279,1.7527,1.7527,1.7333,1.7279,1.7279,1.7279,1.7279,1.7279,1.7279,1.7279,1.7279,1.7279,1.7279,1.7279,1.7279,1.7279,0.0,1.7279,1.7279,1.7279,1.7279,1.7279,1.7279,1.7279,1.7279,1.7279,1.7279,1.7279,1.7279,1.6943,1.4746,1.3998,1.3628,1.1721,1.1118,1.109,1.1036,1.0727,1.0459,1.0412,1.0101,0.9828,0.9793,0.9461,0.9087,0.8898,0.8435,0.8076,0.8032,0.7848,0.7665,0.7577,0.7448,0.7319,0.7319,0.7496,0.7533,0.7369,0.6359,0.5582,0.5256,0.5242,0.5485,0.6128,0.6099,0.6112,0.6231,0.6126,0.6141,0.63,0.63,0.63,0.63,0.63,0.63,0.63,0.6141,0.5709,0.5004,0.4693,0.391,1.33,1.4228,1.5136,1.6284,1.6822,1.7084,1.7084,0.0,0.0,0.0,0.0,1.7279,1.7279,0.0,0.0,0.0,0.0,0.0,0.0,0.0,0.0,0.0,0.0,0.0,0.0,0.0,0.0,0.0,0.0,1.7613,1.7326,1.7426,1.7426,1.7279,1.7279,1.7279,1.7279,1.7279,1.7279,1.7279,1.7279,1.7279,1.7279,1.7279,1.7279,1.7279,1.7279,0.0,1.7279,1.7279,1.7279,1.7279,1.7279,1.7279,1.7279,1.7279,1.7279,1.7279,1.7279,1.7279,1.7037,1.5555,1.508,1.4692,1.2587,1.196,1.1868,1.134,1.103,1.0858,1.0858,1.064,1.0348,1.0249,0.9959,0.9599,0.9265,0.9069,0.8852,0.8629,0.8476,0.838,0.8245,0.8113,0.8072,0.8072,0.8072,0.8072,0.8072,0.7512,0.697,0.6486,0.6304,0.636,0.6664,0.6634,0.659,0.659,0.6525,0.6494,0.6412,0.6409,0.6375,0.6303,0.63,0.63,0.63,0.63,0.6103,0.567,0.5198,0.4613,1.4142,1.4417,1.4679,1.664,1.6938,1.6793,1.6793,1.6793,0.0,0.0,1.7055,1.7252,1.7271,0.0,0.0,0.0,0.0,0.0,0.0,0.0,0.0,0.0,0.0,0.0,0.0,0.0,0.0,0.0,0.0,0.0,1.7567,1.7426,1.738,1.738,1.7326,1.7279,1.7279,1.7279,1.7279,1.7279,1.7185,1.7185,1.7279,1.7185,1.7185,1.7279,1.7279,0.0,0.0,1.7279,1.7279,1.7279,1.7279,1.7279,1.7279,1.7279,1.7279,1.7279,1.7279,1.7279,1.7185,1.6372,1.5988,1.546,1.359,1.3017,1.2823,1.1819,1.1531,1.1482,1.1243,1.1047,1.0814,1.061,1.0281,0.9906,0.9421,0.9312,0.9145,0.8742,0.8621,0.8561,0.834,0.8292,0.8292,0.8292,0.8292,0.8292,0.8292,0.8245,0.8019,0.7544,0.7232,0.6972,0.6891,0.6811,0.6749,0.6749,0.6719,0.6647,0.6566,0.6562,0.6508,0.6399,0.6361,0.6344,0.6344,0.6313,0.63,0.63,0.5592,0.516,1.3329,1.4116,1.5156,1.6225,1.6477,1.6455,1.6455,0.0,0.0,1.6837,1.6925,1.7027,1.7274,1.7279,0.0,0.0,0.0,0.0,0.0,0.0,0.0,0.0,0.0,0.0,0.0,0.0,0.0,0.0,0.0,0.0,1.8388,1.7916,1.7675,1.7675,1.7426,1.7279,1.7279,1.7279,1.7279,1.7279,1.6864,1.6911,1.7286,1.6864,1.6911,1.7279,1.7279,0.0,0.0,1.7279,1.7279,1.7279,1.7279,1.7279,1.7279,1.7279,1.7279,1.7279,1.7279,1.7279,1.7279,1.7185,1.656,1.5602,1.4507,1.4172,1.3932,1.2872,1.2538,1.2349,1.1433,1.1194,1.1096,1.0828,1.058,1.0335,0.9832,0.9605,0.9338,0.8877,0.8796,0.8747,0.8593,0.8564,0.8564,0.8564,0.8564,0.8564,0.8564,0.8336,0.8193,0.8133,0.7698,0.7434,0.742,0.7073,0.6866,0.6866,0.6776,0.6695,0.6678,0.6678,0.6675,0.6661,0.6562,0.6494,0.6494,0.6364,0.63,0.63,0.6222,0.5747,1.3909,1.4307,1.4974,1.6139,1.6235,1.6096,1.6096,0.0,0.0,1.6265,1.6631,1.6939,1.7018,1.7201,1.7279,0.0,0.0,0.0,0.0,0.0,0.0,0.0,0.0,0.0,0.0,0.0,0.0,0.0,0.0,0.0,1.8651,1.8234,1.7947,1.7947,1.7667,1.7527,1.7527,1.738,1.7145,1.6864,1.6958,1.6958,1.6864,1.6958,1.7099,1.7279,1.7279,0.0,0.0,1.7279,1.7279,1.7279,1.7279,1.7279,1.7333,1.7473,1.7527,1.7574,1.7714,1.7667,1.7527,1.7527,1.7145,1.6513,1.5514,1.5222,1.4984,1.3926,1.321,1.2635,1.2204,1.1629,1.1145,1.1047,1.0991,1.0801,1.0341,1.0165,0.9909,0.9343,0.9125,0.8976,0.8775,0.8633,0.8612,0.8612,0.8612,0.8784,0.9301,0.9292,0.9419,1.0024,0.8679,0.7724,0.7724,0.7964,0.8095,0.8095,0.8451,0.8318,0.767,0.7666,0.737,0.6702,0.6641,0.661,0.661,0.6501,0.6469,0.6587,0.6379,0.6177,1.4167,1.4312,1.4674,1.5814,1.5928,1.5732,0.0,0.0,1.5796,1.5899,1.6265,1.6675,1.6866,1.7033,1.7216,1.7311,0.0,0.0,0.0,0.0,0.0,0.0,0.0,0.0,0.0,0.0,0.0,0.0,0.0,0.0,0.0,1.8504,1.8272,1.8234,1.7955,1.7815,1.7815,1.7239,1.6904,1.6723,1.6527,1.6386,1.6393,1.681,1.7044,1.7232,0.0,0.0,0.0,1.7473,1.7426,1.7426,1.7326,1.7279,1.7326,1.7527,1.7628,1.7721,1.7854,1.7854,1.7815,1.7721,1.7621,1.7372,1.6615,1.6325,1.6035,1.5032,1.3734,1.2678,1.2678,1.1965,1.1194,1.1194,1.1194,1.1107,1.0676,1.0601,1.0398,0.9815,0.9528,0.9325,0.9138,0.9155,0.9168,0.9168,0.9376,0.9728,1.0246,1.0289,1.0549,1.1241,0.985,0.8894,0.8807,0.9192,0.9405,0.9405,0.9836,0.977,0.9029,0.8943,0.8416,0.7379,0.7244,0.7055,0.6766,0.6614,0.664,0.6798,0.6573,0.6493,1.3711,1.388,1.4314,1.518,1.5396,1.5389,0.0,0.0,1.5484,1.5848,1.5921,1.6118,1.6785,1.6903,1.7005,1.7274,1.7279,0.0,0.0,0.0,0.0,0.0,0.0,0.0,0.0,0.0,0.0,0.0,0.0,0.0,0.0,1.8781,1.8697,1.8481,1.8234,1.8087,1.8087,1.685,1.6473,1.699,1.5194,1.4873,1.5825,1.6103,1.652,0.0,0.0,0.0,0.0,1.7815,1.7675,1.7675,1.738,1.7279,1.7279,1.7279,1.7481,1.7675,1.738,1.766,1.804,1.7768,1.7861,1.804,1.7768,1.7481,1.7091,1.6082,1.431,1.2678,1.2678,1.1965,1.1194,1.1194,1.1194,1.1145,1.085,1.0801,1.064,1.0193,0.9918,0.9815,0.9868,1.0204,1.0503,1.0552,1.1194,1.1569,1.1322,1.1278,1.1278,1.1284,1.1284,1.1187,1.0961,1.074,1.0567,1.0567,1.0611,1.0611,1.0562,1.0394,0.9836,0.8886,0.849,0.7808,0.6883,0.6773,0.6747,0.6802,0.6798,0.6716,1.4349,1.4566,1.4873,1.5131,1.5298,1.5389,1.5389,0.0,1.5418,1.552,1.5717,1.5979,1.6177,1.6609,1.6932,1.6989,1.7186,0.0,0.0,0.0,0.0,0.0,0.0,0.0,0.0,0.0,0.0,0.0,0.0,0.0,0.0,1.8781,1.8781,1.8697,1.8473,1.8381,1.8381,1.78,1.7419,1.7185,1.6473,1.6379,1.681,1.6756,0.0,0.0,0.0,0.0,0.0,1.7994,1.7947,1.7947,1.79,1.7846,1.7846,1.8048,1.8195,1.8241,1.8319,1.8373,1.8381,1.8288,1.8187,1.7994,1.738,1.7387,1.7333,1.6129,1.5317,1.4644,1.398,1.3017,1.2252,1.2252,1.1722,1.1198,1.1096,1.1047,1.0979,1.0622,1.1024,1.1323,1.1155,1.1738,1.222,1.222,1.2231,1.238,1.2778,1.2617,1.2644,1.3173,1.3222,1.24,1.0414,1.0631,1.0587,0.9941,1.0928,1.0966,0.9705,1.0193,1.0062,0.9104,0.8404,0.8158,0.8455,0.756,0.7017,0.6802,0.7074,0.7061,0.0,1.4782,1.4939,1.5054,1.5257,0.0,0.0,0.0,1.5389,1.5389,1.5549,1.5767,1.5891,1.6235,1.6624,1.6866,1.7018,0.0,0.0,0.0,0.0,0.0,0.0,0.0,0.0,0.0,0.0,0.0,0.0,0.0,0.0,1.8781,1.8781,1.8781,1.8697,1.8612,1.8612,1.7986,1.7419,1.7044,1.6709,1.6426,1.619,1.6943,0.0,0.0,0.0,0.0,0.0,1.828,1.8234,1.8234,1.8133,1.8087,1.8133,1.828,1.8427,1.8481,1.8512,1.8558,1.8612,1.8527,1.8381,1.8187,1.7714,1.7527,1.7286,1.6709,1.6231,1.5798,1.5032,1.4076,1.3307,1.3307,1.2829,1.2349,1.2349,1.2349,1.2301,1.2155,1.247,1.2749,1.2691,1.3275,1.3707,1.3765,1.3803,1.3938,1.4298,1.3957,1.3874,1.437,1.4233,1.3264,1.1154,1.1714,1.1929,1.1327,1.2235,1.2095,1.0577,1.1015,1.0669,0.9366,0.8719,0.8504,0.8715,0.79,0.7421,0.7222,0.7456,0.7371,0.0,1.4667,0.0,0.0,0.0,0.0,0.0,0.0,0.0,1.5389,1.5389,1.5484,1.5826,1.5899,1.6104,1.6734,1.6873,0.0,0.0,0.0,0.0,0.0,0.0,0.0,0.0,0.0,0.0,0.0,0.0,0.0,0.0,1.8781,1.8781,1.8781,1.8781,1.8781,1.8781,1.7645,1.6943,1.677,1.6143,1.5378,1.4627,1.6608,0.0,0.0,0.0,0.0,0.0,1.8612,1.8527,1.8481,1.8226,1.8133,1.8133,1.8133,1.8326,1.8481,1.8234,1.8458,1.8781,1.8574,1.8481,1.8435,1.8527,1.7854,1.7185,1.7628,1.7052,1.6237,1.5988,1.5175,1.4459,1.4459,1.4364,1.4316,1.4316,1.4316,1.4316,1.4316,1.4166,1.4118,1.4364,1.4763,1.5101,1.5133,1.5669,1.5974,1.5789,1.5295,1.4971,1.4971,1.4496,1.3812,1.2948,1.358,1.3962,1.3913,1.3955,1.3568,1.2619,1.2406,1.1494,0.9753,0.9492,0.889,0.794,0.8006,0.8006,0.7901,0.7869,0.7697,1.4557,0.0,1.4631,1.4703,1.5076,0.0,0.0,0.0,0.0,0.0,0.0,0.0,0.0,1.5752,1.5965,1.6111,0.0,0.0,0.0,0.0,0.0,0.0,0.0,0.0,0.0,0.0,0.0,0.0,0.0,0.0,0.0,1.8781,1.8781,1.8781,1.8781,1.8781,1.8781,1.8496,1.8311,1.8265,1.6998,1.6567,1.6889,1.6231,0.0,0.0,0.0,0.0,1.8781,1.8735,1.8743,1.8743,1.8643,1.8643,1.8643,1.8643,1.8689,1.8743,1.8643,1.8689,1.8781,1.8743,1.8365,1.7978,1.855,1.8319,1.7846,1.7947,1.7667,1.734,1.7293,1.652,1.5758,1.5758,1.5134,1.4555,1.4555,1.4411,1.4316,1.4316,1.4889,1.5365,1.546,1.6169,1.6736,1.6743,1.6716,1.6612,1.6347,1.5979,1.5692,1.5515,1.5019,1.4618,1.4396,1.3555,1.2705,1.2015,1.2619,1.2619,1.1666,1.1585,1.1365,1.0933,1.0847,0.9937,0.8113,0.8987,0.8893,0.7909,0.808,0.802,1.4518,1.4482,1.4438,1.4574,1.5018,1.5389,0.0,0.0,0.0,0.0,0.0,0.0,0.0,0.0,0.0,0.0,0.0,0.0,0.0,0.0,0.0,0.0,0.0,0.0,0.0,0.0,0.0,0.0,0.0,0.0,0.0,1.8781,1.8781,1.8781,1.8781,1.8781,1.8781,1.8781,1.8458,1.78,1.7326,1.6756,1.6136,1.6001,1.6197,0.0,0.0,0.0,1.8303,1.8303,1.8496,1.8781,1.8781,1.8781,1.8781,1.8781,1.8781,1.8781,1.8781,1.8781,1.8781,1.8781,1.8542,1.8257,1.8681,1.8596,1.8411,1.8326,1.7908,1.7481,1.738,1.6716,1.6103,1.6473,1.6136,1.5798,1.6129,1.6035,1.5704,1.5276,1.5893,1.6325,1.5893,1.6608,1.7279,1.7279,1.7179,1.7031,1.6892,1.6481,1.6197,1.6062,1.5602,1.5182,1.4907,1.4183,1.339,1.2625,1.3052,1.2918,1.1972,1.1537,1.0895,1.0077,1.0077,0.9515,0.8384,0.8995,0.8943,0.8202,0.8286,0.8142,1.4511,1.4233,1.4073,1.446,1.4945,1.533,1.5374,0.0,0.0,0.0,0.0,0.0,0.0,0.0,0.0,0.0,0.0,0.0,0.0,0.0,0.0,0.0,0.0,0.0,0.0,0.0,0.0,0.0,0.0,0.0,0.0,1.8781,1.8781,1.8781,1.8781,1.8781,1.8781,1.8781,1.8172,1.6958,1.7466,1.6655,1.4675,1.5872,1.6062,0.0,0.0,0.0,1.7692,1.7692,1.8118,1.8781,1.8781,1.8781,1.8781,1.8781,1.8781,1.8781,1.8781,1.8781,1.8781,1.8781,1.8781,1.8781,1.8781,1.8781,1.8781,1.8566,1.8048,1.7426,1.7279,1.6716,1.6393,1.7091,1.7232,1.7419,1.804,1.7955,1.7481,1.6622,1.6951,1.7091,1.6177,1.6756,1.7279,1.7279,1.7279,1.7279,1.7279,1.6914,1.6617,1.6617,1.615,1.563,1.5189,1.5035,1.4747,1.4296,1.4151,1.3695,1.2747,1.18,1.0506,0.8828,0.8784,0.8784,0.8784,0.8784,0.8784,0.878,0.8492,0.8231,1.4511,1.3758,1.3278,1.4262,1.4739,1.5046,0.0,0.0,0.0,0.0,0.0,0.0,0.0,0.0,0.0,0.0,0.0,0.0,0.0,0.0,0.0,0.0,0.0,0.0,0.0,0.0,0.0,0.0,0.0,0.0,0.0,1.8781,1.8781,1.8781,1.8781,1.8781,1.8781,1.8781,1.8689,1.8458,1.7932,1.7178,1.6251,1.5771,1.5534,0.0,0.0,1.6379,1.7692,1.7692,1.8118,1.8781,1.8781,1.8781,1.8781,1.8781,1.8781,1.8781,1.8781,1.8781,1.8781,1.8781,1.8781,1.8781,1.8781,1.8781,1.8781,1.8781,1.8558,1.8288,1.8288,1.8195,1.8102,1.8241,1.8288,1.8288,1.8427,1.8234,1.7947,1.7527,1.7581,1.7527,1.7138,1.7185,1.7279,1.7279,1.7279,1.7279,1.7279,1.7242,1.7166,1.7166,1.6706,1.6323,1.6266,1.5599,1.5138,1.5054,1.4428,1.3695,1.2747,1.18,1.0809,0.9733,0.9685,0.9685,0.9685,0.9685,0.9685,0.9685,0.8925,0.8426,1.4511,1.387,1.3224,1.3502,1.3565,1.3605,0.0,0.0,0.0,0.0,0.0,0.0,0.0,0.0,0.0,0.0,0.0,0.0,0.0,0.0,0.0,0.0,0.0,0.0,0.0,0.0,0.0,0.0,0.0,0.0,0.0,0.0,1.8781,1.8781,1.8781,1.8781,1.8781,1.8781,1.8589,1.821,1.7466,1.6716,1.5913,1.5153,1.4819,1.4819,0.0,1.6048,1.7138,1.7552,1.8118,1.8781,1.8781,1.8781,1.8781,1.8781,1.8781,1.8781,1.8781,1.8781,1.8781,1.8781,1.8781,1.8781,1.8781,1.8781,1.8781,1.8781,1.8458,1.8087,1.8087,1.7761,1.7574,1.7994,1.8087,1.8179,1.8558,1.8465,1.8094,1.7279,1.7426,1.7488,1.681,1.7044,1.7333,1.7481,1.738,1.7279,1.7279,1.7279,1.7279,1.7279,1.7062,1.6817,1.6514,1.6145,1.5622,1.4979,1.4607,1.3935,1.2899,1.2467,1.1746,1.0679,1.0164,1.0159,1.0636,0.9689,0.9428,0.9859,0.8999,0.851,1.4416,1.3818,1.3124,1.2824,1.2811,0.0,0.0,0.0,0.0,0.0,0.0,0.0,0.0,0.0,0.0,0.0,0.0,0.0,0.0,0.0,0.0,0.0,0.0,0.0,0.0,0.0,0.0,0.0,0.0,0.0,0.0,0.0,1.8781,1.8781,1.8781,1.8735,1.8542,1.8542,1.8357,1.7971,1.7232,1.6433,1.5676,1.4914,1.4436,1.4346,1.5057,1.5866,1.6676,1.7412,1.8118,1.8781,1.8781,1.8781,1.8781,1.8781,1.8781,1.8781,1.8781,1.8781,1.8781,1.8781,1.8781,1.8781,1.8781,1.8781,1.8781,1.8781,1.8404,1.7978,1.7978,1.7559,1.7286,1.7839,1.7978,1.8118,1.8681,1.8697,1.828,1.7225,1.752,1.7628,1.681,1.7091,1.752,1.7675,1.7527,1.738,1.7333,1.7279,1.7279,1.7279,1.7279,1.7108,1.662,1.6591,1.612,1.5029,1.4818,1.4307,1.3444,1.3184,1.2638,1.1703,1.0587,1.0544,1.1628,0.9607,0.9174,1.0202,0.9087,0.8535,1.4137,1.3227,1.2409,1.2576,1.3484,0.0,1.375,1.382,0.0,1.4097,0.0,0.0,0.0,0.0,0.0,0.0,0.0,0.0,0.0,0.0,0.0,0.0,0.0,0.0,0.0,0.0,0.0,0.0,0.0,0.0,0.0,0.0,0.0,1.8781,1.8781,1.845,1.7785,1.7785,1.8118,1.8735,1.7978,1.7225,1.6487,1.5676,1.4962,1.4346,1.5057,1.5866,1.6676,1.7412,1.8118,1.8781,1.8781,1.8781,1.8781,1.8781,1.8781,1.8781,1.8781,1.8781,1.8781,1.8781,1.8781,1.8781,1.8781,1.8781,1.8781,1.8781,1.8781,1.8735,1.8735,1.8689,1.8643,1.8735,1.8735,1.8735,1.8781,1.8781,1.8697,1.8427,1.8435,1.8334,1.804,1.7986,1.7947,1.7721,1.7675,1.7574,1.7326,1.7279,1.7279,1.7279,1.7279,1.7201,1.6887,1.6857,1.6579,1.5878,1.5113,1.465,1.4559,1.3789,1.3233,1.2887,1.1171,1.1052,1.2577,0.9907,0.9515,1.1154,0.9432,0.8604,1.407,1.3175,1.2325,1.2394,1.3101,0.0,0.0,1.2577,1.3063,1.2473,0.0,0.0,0.0,0.0,0.0,0.0,0.0,0.0,0.0,0.0,0.0,0.0,0.0,0.0,0.0,0.0,0.0,0.0,0.0,0.0,0.0,0.0,0.0,1.8781,1.8781,1.8689,1.8404,1.8396,1.8303,1.811,1.6842,1.6386,1.6581,1.5771,1.5534,1.5778,1.6513,1.6983,1.7326,1.8071,1.8542,1.8781,1.8781,1.8781,1.8781,1.8781,1.8781,1.8781,1.8781,1.8781,1.8781,1.8781,1.8781,1.8781,1.8781,1.8781,1.8781,1.8781,1.8781,1.8781,1.8781,1.8781,1.8781,1.8781,1.8781,1.8781,1.8781,1.8781,1.8743,1.8527,1.8481,1.8481,1.8381,1.8234,1.8133,1.8195,1.8048,1.79,1.78,1.78,1.7714,1.7574,1.738,1.7282,1.7157,1.7013,1.6712,1.6221,1.5727,1.529,1.4964,1.4615,1.4307,1.4048,1.2157,1.2035,1.376,1.0847,1.0077,1.1284,0.999,0.913,1.3916,1.3283,1.2673,1.2673,0.0,0.0,1.1716,1.229,1.2978,0.0,0.0,0.0,0.0,0.0,0.0,0.0,0.0,0.0,0.0,0.0,0.0,0.0,0.0,0.0,0.0,0.0,0.0,0.0,0.0,0.0,0.0,0.0,0.0,0.0,1.8781,1.8689,1.845,1.845,1.8071,1.7318,1.6048,1.5818,1.6581,1.5771,1.5818,1.6629,1.7372,1.7692,1.7738,1.8496,1.8781,1.8781,1.8781,1.8781,1.8781,1.8781,1.8781,1.8781,1.8781,1.8781,1.8781,1.8781,1.8781,1.8781,1.8781,1.8781,1.8781,1.8781,1.8781,1.8781,1.8781,1.8781,1.8781,1.8781,1.8781,1.8781,1.8781,1.8781,1.8743,1.8612,1.8566,1.8566,1.8566,1.8465,1.8365,1.8481,1.8334,1.8187,1.8087,1.8087,1.7994,1.7721,1.7527,1.738,1.7333,1.7128,1.6865,1.6587,1.6228,1.5784,1.5236,1.5173,1.5082,1.4824,1.319,1.3063,1.4482,1.1869,1.1058,1.1918,1.0717,0.9772,1.3587,1.3492,1.3492,0.0,0.0,0.0,1.2808,1.3373,1.4104,0.0,0.0,0.0,0.0,0.0,0.0,0.0,0.0,0.0,0.0,0.0,0.0,0.0,0.0,0.0,0.0,0.0,0.0,0.0,0.0,0.0,0.0,0.0,0.0,0.0,1.8781,1.845,1.7738,1.7692,1.7318,1.6588,1.5818,1.5818,1.6581,1.5771,1.5866,1.6676,1.7365,1.7692,1.7785,1.8496,1.8781,1.8781,1.8827,1.8827,1.8827,1.8827,1.8827,1.8827,1.8827,1.8827,1.8827,1.8781,1.8781,1.8827,1.8827,1.8827,1.8827,1.8827,1.8827,1.8827,1.8781,1.8781,1.8827,1.8781,1.8781,1.8781,1.8781,1.8781,1.8781,1.8781,1.8781,1.8781,1.8781,1.8781,1.8743,1.8527,1.8481,1.8427,1.8133,1.8087,1.7994,1.7721,1.7729,1.7621,1.7326,1.7333,1.7194,1.6917,1.6595,1.6089,1.5418,1.5389,1.5305,1.509,1.4181,1.4048,1.4692,1.2887,1.2504,1.3366,1.1488,1.0501,1.3587,1.3083,0.0,0.0,0.0,0.0,0.0,1.3788,0.0,0.0,0.0,0.0,0.0,0.0,0.0,0.0,0.0,0.0,0.0,0.0,0.0,0.0,0.0,0.0,0.0,0.0,0.0,0.0,0.0,0.0,0.0,0.0,0.0,0.0,1.8781,1.8689,1.8496,1.845,1.8118,1.7365,1.7131,1.7131,1.7365,1.6574,1.6951,1.8172,1.8404,1.845,1.8542,1.9142,1.9142,1.8827,1.9234,1.9371,1.9371,1.9371,1.9554,1.9791,1.9463,1.9371,1.9279,1.892,1.905,1.9371,1.9371,1.96,1.9791,1.9463,1.9371,1.9279,1.892,1.9096,1.9279,1.8874,1.8781,1.8781,1.8781,1.8781,1.8781,1.8781,1.8781,1.8781,1.8781,1.8781,1.8781,1.8743,1.8697,1.8697,1.8596,1.8465,1.8334,1.8288,1.8094,1.7947,1.7846,1.7846,1.7711,1.7417,1.6959,1.6417,1.5789,1.5513,1.5389,1.5305,1.4265,1.4132,1.4999,1.362,1.3148,1.3366,1.2137,1.1192,1.355,0.0,0.0,0.0,0.0,0.0,0.0,0.0,0.0,0.0,0.0,0.0,0.0,0.0,0.0,0.0,0.0,0.0,0.0,0.0,0.0,0.0,0.0,0.0,0.0,0.0,0.0,0.0,0.0,0.0,0.0,0.0,0.0,0.0,1.8781,1.8781,1.8781,1.8781,1.8589,1.8118,1.7831,1.7831,1.8118,1.7372,1.7699,1.8781,1.8781,1.8781,1.8827,1.9371,1.9417,1.9188,1.9691,1.9874,1.9874,1.9874,2.0056,2.0246,1.9965,1.9874,1.9828,1.9509,1.96,1.9874,1.9874,2.0065,2.0246,1.9965,1.9874,1.9783,1.9471,1.9646,1.9691,1.8966,1.8966,1.905,1.8827,1.8781,1.8781,1.8781,1.8781,1.8781,1.8781,1.8781,1.8781,1.8781,1.8781,1.8781,1.8781,1.8697,1.8566,1.8527,1.8381,1.8234,1.8087,1.8087,1.7995,1.7797,1.7257,1.6777,1.64,1.5826,1.5499,1.5499,1.4852,1.4768,1.5333,1.4566,1.4181,1.4181,1.3245,1.226,1.3492,0.0,0.0,0.0,0.0,0.0,0.0,0.0,0.0,0.0,0.0,0.0,0.0,0.0,0.0,0.0,0.0,0.0,0.0,0.0,0.0,0.0,0.0,0.0,0.0,0.0,0.0,0.0,0.0,0.0,0.0,0.0,0.0,1.8781,1.8781,1.8781,1.8781,1.8781,1.8781,0.0,1.8118,1.8164,1.8781,1.8025,1.811,1.8781,1.8781,1.8827,1.892,1.9463,1.9637,1.9729,2.0192,2.0374,2.0374,2.0374,2.0382,2.0428,2.0382,2.0374,2.0382,2.0292,2.0337,2.0374,2.0374,2.0382,2.0428,2.0382,2.0374,2.0337,2.0292,2.0337,2.011,1.915,1.9279,1.9463,1.9012,1.892,1.8874,1.8874,1.8874,1.8874,1.8827,1.8781,1.8781,1.8781,1.8781,1.8781,1.8781,1.8781,1.8743,1.8574,1.8527,1.8427,1.8179,1.8179,1.8179,1.8179,1.7566,1.7146,1.7159,1.6254,1.5733,1.5733,1.5733,1.5733,1.5692,1.5499,1.5431,1.5389,1.4531,1.3493,0.0,1.3492,0.0,0.0,0.0,0.0,0.0,0.0,0.0,0.0,0.0,0.0,0.0,0.0,0.0,0.0,0.0,0.0,0.0,0.0,0.0,0.0,0.0,0.0,0.0,0.0,0.0,0.0,0.0,0.0,0.0,0.0,0.0,1.8781,1.8781,1.8781,1.8781,1.8781,1.8781,0.0,1.8643,1.8643,1.8781,1.8025,1.811,1.8781,1.8781,1.905,1.9463,1.9965,2.0147,2.0201,2.069,2.0862,2.0862,2.0862,2.1096,2.1329,2.1006,2.0862,2.0772,2.0419,2.0555,2.0862,2.0862,2.1096,2.1329,2.0952,2.0862,2.0772,2.0382,2.0555,2.0682,2.011,1.9783,1.9691,1.992,1.9691,1.9417,1.9417,1.9417,1.9279,1.8874,1.8781,1.8781,1.8781,1.8781,1.8781,1.8781,1.8781,1.8781,1.8743,1.8743,1.8697,1.8643,1.8643,1.8643,1.8643,1.8121,1.7681,1.7409,1.653,1.5997,1.5997,1.5997,1.5914,1.5692,1.5658,1.5541,1.5389,1.4531,1.3971,0.0,0.0,0.0,0.0,0.0,0.0,0.0,0.0,0.0,0.0,0.0,0.0,0.0,0.0,0.0,0.0,0.0,0.0,0.0,0.0,0.0,0.0,0.0,0.0,0.0,0.0,0.0,0.0,0.0,0.0,0.0,1.8781,1.8781,1.8781,1.8781,1.8781,1.8781,1.8781,1.8635,1.8257,1.8635,1.8781,1.8781,1.8396,1.8581,1.9188,1.9188,1.9463,1.9965,2.0464,2.0645,2.069,2.1141,2.132,2.132,2.132,2.1508,2.1687,2.141,2.132,2.123,2.0546,2.0447,2.0664,2.0664,2.0853,2.1087,2.1275,2.132,2.1275,2.1015,2.1141,2.1275,2.1015,2.06,2.0275,2.0292,2.0102,1.992,1.992,1.992,1.9828,1.9563,1.9325,1.9188,1.9188,1.8966,1.8781,1.8781,1.8781,1.8781,1.8781,1.8781,1.8781,1.8781,1.8781,1.8781,1.8781,1.8366,1.7974,1.7672,1.7024,1.6539,1.6245,1.6237,1.6154,1.6023,1.5948,1.5782,1.5541,1.52,1.4776,0.0,0.0,0.0,0.0,0.0,0.0,0.0,0.0,0.0,0.0,0.0,0.0,0.0,0.0,0.0,0.0,0.0,0.0,0.0,0.0,0.0,0.0,0.0,0.0,0.0,0.0,0.0,0.0,0.0,0.0,1.8781,1.8781,1.8781,1.8781,1.8781,1.8781,1.8781,1.8781,1.8496,1.7878,1.8496,1.8827,1.8912,1.8827,1.9096,1.9592,1.9683,2.0011,2.0464,2.0817,2.1042,2.1177,2.1553,2.1696,2.1696,2.1696,2.1696,2.1696,2.1696,2.1696,2.1553,2.0619,2.0294,2.0257,2.0068,2.0158,2.0484,2.123,2.1597,2.1696,2.1696,2.1696,2.1696,2.1696,2.141,2.0997,2.0654,2.0473,2.0419,2.0419,2.0382,2.0292,2.0292,1.9965,1.9737,1.9737,1.9325,1.9012,1.8966,1.9012,1.9012,1.8966,1.9012,1.9012,1.892,1.892,1.892,1.8827,1.864,1.8297,1.783,1.7594,1.7159,1.6484,1.6435,1.6435,1.6394,1.6245,1.6038,1.5782,1.6004,1.5582,0.0,0.0,0.0,0.0,0.0,0.0,0.0,0.0,0.0,0.0,0.0,0.0,0.0,0.0,0.0,0.0,0.0,0.0,0.0,0.0,0.0,0.0,0.0,0.0,0.0,0.0,0.0,0.0,0.0,0.0,1.8781,1.8781,1.8781,1.8781,1.8781,1.8781,1.8781,1.8781,1.8735,1.8635,1.8735,1.905,1.9463,1.9004,1.9096,1.9637,2.0011,2.0464,2.0907,2.0988,2.123,2.1597,2.1696,2.1696,2.1696,2.1696,2.1696,2.1696,2.1696,2.1696,2.1553,2.0619,2.0294,2.0158,1.9247,1.9613,2.0348,2.0439,2.1087,2.1696,2.1696,2.1696,2.1696,2.1696,2.1642,2.1597,2.1517,2.1186,2.0907,2.0907,2.06,2.0292,2.0292,2.0246,2.0201,2.0201,2.0155,1.9973,1.9554,1.9828,1.992,1.9546,1.9874,1.992,1.9554,1.95,1.9279,1.8827,1.9185,1.895,1.7838,1.8164,1.7831,1.6664,1.6648,1.6566,1.6394,1.6353,1.6237,1.6046,1.6087,1.6004,0.0,0.0,0.0,0.0,0.0,0.0,0.0,0.0,0.0,0.0,0.0,0.0,0.0,0.0,0.0,0.0,0.0,0.0,0.0,0.0,0.0,0.0,0.0,0.0,0.0,0.0,0.0,0.0,0.0,1.8781,1.8781,1.8781,1.8781,1.8781,1.8781,1.8781,1.8781,1.8781,1.8781,1.8781,1.8396,1.8673,1.9592,1.9654,1.992,2.0365,2.0329,2.0736,2.141,2.141,2.1508,2.1696,2.1696,2.1696,2.1696,2.1696,2.1696,2.1696,2.1696,2.1696,2.1553,2.0619,2.0294,2.0204,1.9749,1.9931,2.0294,2.0294,2.0619,2.0907,2.0907,2.0907,2.1042,2.1553,2.1696,2.1696,2.1696,2.1553,2.141,2.141,2.1239,2.106,2.106,2.0871,2.069,2.069,2.0464,2.0246,2.0011,2.0147,2.0201,2.0011,2.0201,2.0201,2.0011,2.0011,1.9874,1.9654,1.9874,1.9592,1.8627,1.8775,1.8304,1.7123,1.6812,1.6648,1.6566,1.6566,1.6443,1.6286,1.6368,1.6368,0.0,0.0,0.0,0.0,0.0,0.0,0.0,0.0,0.0,0.0,0.0,0.0,0.0,0.0,0.0,0.0,0.0,0.0,0.0,0.0,0.0,0.0,0.0,0.0,0.0,0.0,0.0,0.0,0.0,1.8781,1.8781,1.8781,1.8781,1.8781,1.8781,1.8781,1.8781,1.8781,1.8781,1.8781,1.8257,1.8627,1.9783,2.0011,2.051,2.1177,2.0835,2.106,2.1696,2.1696,2.1696,2.1696,2.1696,2.1696,2.1696,2.1696,2.1696,2.1696,2.1696,2.1696,2.1553,2.0619,2.0294,2.0249,1.9977,2.0113,2.0249,1.9977,2.0257,2.0619,2.0339,2.0484,2.0808,2.1553,2.1696,2.1696,2.1696,2.1696,2.1696,2.1696,2.1696,2.1696,2.1696,2.141,2.1177,2.1177,2.0871,2.0609,2.051,2.0555,2.0609,2.051,2.0555,2.0609,2.051,2.0464,2.0428,2.0292,2.0428,2.0126,1.9385,1.9393,1.8853,1.7745,1.727,1.6976,1.6894,1.6894,1.6812,1.6648,1.6812,1.6812,0.0,0.0,0.0,0.0,0.0,0.0,0.0,0.0,0.0,0.0,0.0,0.0,0.0,0.0,0.0,0.0,0.0,0.0,0.0,0.0,0.0,0.0,0.0,0.0,0.0,0.0,0.0,0.0,0.0,1.8781,1.8781,1.8781,1.8781,1.8781,1.8781,1.8781,1.8781,1.8781,1.8781,1.8781,1.8781,1.9279,2.0246,1.9828,2.0374,2.1651,2.1642,2.1642,2.1696,2.1696,2.1696,2.1696,2.1696,2.1696,2.1696,2.1696,2.1696,2.1696,2.1696,2.1696,2.1553,2.0619,2.0294,2.0113,1.9155,1.9521,2.0113,1.9155,2.0221,2.141,2.0529,2.0952,2.1642,2.1687,2.1696,2.1696,2.1696,2.1696,2.1696,2.1696,2.1696,2.1696,2.1696,2.1696,2.1651,2.1651,2.1642,2.1463,2.0997,2.1365,2.1463,2.0997,2.1365,2.1463,2.0997,2.0952,2.0772,2.0337,2.0736,2.0588,1.9798,1.9825,1.943,1.8562,1.813,1.7757,1.7351,1.7351,1.7351,1.7351,1.7351,1.7351,0.0,0.0,0.0,0.0,0.0,0.0,0.0,0.0,0.0,0.0,0.0,0.0,0.0,0.0,0.0,0.0,0.0,0.0,0.0,0.0,0.0,0.0,0.0,0.0,0.0,0.0,0.0,0.0,0.0,0.0,1.8781,1.8781,1.8781,1.8781,1.8781,1.8781,1.8781,1.8781,1.8781,1.8781,1.8781,1.9333,2.0292,2.0147,2.0645,2.1696,2.1696,2.1696,2.1696,2.1696,2.1696,2.1696,2.1696,2.1696,2.1696,2.1696,2.1696,2.1696,2.1696,2.1696,2.1642,2.132,2.1177,2.1132,2.0763,2.0907,2.0997,2.0022,2.0257,2.0718,2.0393,2.0664,2.1159,2.182,2.1963,2.1919,2.1741,2.1696,2.1696,2.1696,2.1696,2.1696,2.1696,2.1696,2.1696,2.1696,2.1696,2.1687,2.1731,2.1687,2.1687,2.1731,2.1687,2.1642,2.1454,2.1463,2.1374,2.1195,2.1374,2.1184,2.0648,2.0434,1.991,1.9061,1.8644,1.825,1.7797,1.7797,1.7635,1.74,1.7676,1.7635,0.0,0.0,0.0,0.0,0.0,0.0,0.0,0.0,0.0,0.0,0.0,0.0,0.0,0.0,0.0,0.0,0.0,0.0,0.0,0.0,0.0,0.0,0.0,0.0,0.0,0.0,0.0,0.0,0.0,0.0,1.847,1.847,1.8526,1.8645,1.8653,1.8708,1.8781,1.8781,1.8781,1.8781,1.8781,1.9333,2.0292,2.0292,2.0835,2.1696,2.1696,2.1696,2.1696,2.1696,2.1696,2.1696,2.1696,2.1696,2.1696,2.1696,2.1696,2.1696,2.1696,2.1696,2.1696,2.1696,2.1696,2.1696,2.1696,2.1696,2.1419,2.0167,2.0022,2.0204,1.9886,2.0385,2.1159,2.1909,2.2097,2.2052,2.1874,2.1785,2.1696,2.1696,2.1696,2.1741,2.183,2.183,2.1874,2.1909,2.1909,2.1998,2.2176,2.2008,2.1919,2.2185,2.1963,2.183,2.183,2.183,2.1785,2.1696,2.1696,2.1568,2.1328,2.0934,2.0404,1.9722,1.9367,1.8977,1.8563,1.8322,1.8089,1.7846,1.8121,1.8,0.0,0.0,0.0,0.0,0.0,0.0,0.0,0.0,0.0,0.0,0.0,0.0,0.0,0.0,0.0,0.0,0.0,0.0,0.0,0.0,0.0,0.0,0.0,0.0,0.0,0.0,0.0,0.0,0.0,1.7814,1.7814,1.7814,1.793,1.8271,1.8279,1.8446,1.8796,1.8758,1.8812,1.8812,1.8781,1.9333,2.0337,2.0292,2.0835,2.1696,2.1696,2.1696,2.1696,2.1696,2.1696,2.1696,2.1696,2.1696,2.1696,2.1696,2.1696,2.1696,2.1696,2.1696,2.1696,2.1696,2.1696,2.1696,2.1696,2.1696,2.132,1.9384,1.9567,2.0068,1.9109,2.0266,2.1785,2.2052,2.2097,2.2097,2.2097,2.1919,2.1687,2.1687,2.1696,2.1785,2.2052,2.2097,2.2185,2.2353,2.2397,2.2397,2.2388,2.222,2.2185,2.2397,2.222,2.2097,2.2097,2.2097,2.2008,2.1741,2.1687,2.1687,2.1687,2.1328,2.0924,2.0521,2.0333,2.0006,1.9597,1.9011,1.874,1.87,1.87,1.8451,1.9761,0.0,0.0,0.0,0.0,0.0,0.0,0.0,0.0,0.0,0.0,0.0,0.0,0.0,0.0,0.0,0.0,0.0,0.0,0.0,0.0,0.0,0.0,0.0,0.0,0.0,0.0,0.0,1.7814,1.7814,1.7814,1.7814,1.7854,1.7958,1.7958,1.7962,1.8065,1.8319,1.8627,1.895,1.8846,1.9509,2.0772,2.0464,2.0835,2.1696,2.1696,2.1696,2.1696,2.1696,2.1696,2.1696,2.1696,2.1696,2.1696,2.1696,2.1696,2.1696,2.1696,2.1696,2.1696,2.1696,2.1696,2.1696,2.1696,2.1696,2.1463,2.0212,2.0167,2.0529,2.061,2.1024,2.157,2.2167,2.2485,2.2495,2.2185,2.2052,2.2008,2.2008,2.183,2.1785,2.2052,2.2097,2.2185,2.2353,2.2397,2.2485,2.2662,2.2485,2.2397,2.2662,2.2485,2.2309,2.2309,2.2309,2.222,2.2008,2.2008,2.2008,2.2008,2.1599,2.1267,2.1024,2.0661,2.0287,1.9833,1.9478,1.921,1.8922,1.8772,1.8812,0.0,0.0,0.0,0.0,0.0,0.0,0.0,1.851,0.0,0.0,0.0,0.0,0.0,0.0,0.0,0.0,0.0,0.0,0.0,0.0,0.0,0.0,0.0,0.0,0.0,0.0,0.0,1.7334,1.7334,1.7334,1.7334,1.7334,1.7405,1.7607,1.7607,1.7679,1.7814,1.7977,1.8302,1.8743,1.8844,1.9557,2.0766,2.0657,2.1006,2.1696,2.1696,2.1696,2.1696,2.1696,2.1696,2.1696,2.1696,2.1696,2.1696,2.1696,2.1696,2.1696,2.1696,2.1696,2.1696,2.1696,2.1696,2.1696,2.1696,2.1696,2.1454,2.0212,1.9985,2.0303,2.1096,2.1516,2.1891,2.2441,2.2715,2.2715,2.2451,2.2407,2.2318,2.2141,2.1963,2.1954,2.2176,2.2318,2.2451,2.2652,2.2696,2.274,2.2925,2.2706,2.2662,2.2882,2.2706,2.2574,2.2574,2.2574,2.2485,2.223,2.223,2.223,2.223,2.1986,2.1659,2.1191,2.1037,2.0669,2.0069,1.9833,1.9597,1.935,1.917,1.924,0.0,0.0,0.0,0.0,0.0,0.0,2.007,1.9904,1.9786,0.0,0.0,0.0,0.0,0.0,0.0,0.0,0.0,0.0,0.0,0.0,0.0,0.0,0.0,0.0,0.0,1.6689,1.6689,1.6689,1.6689,1.6689,1.6689,1.6689,1.684,1.7207,1.7223,1.7358,1.7652,1.7735,1.7967,1.8442,1.8778,1.9463,2.0482,2.0775,2.123,2.1696,2.1696,2.1696,2.1696,2.1696,2.1696,2.1696,2.1696,2.1696,2.1696,2.1696,2.1696,2.1696,2.1696,2.1696,2.1696,2.1696,2.1696,2.1696,2.1696,2.1696,2.1365,1.9704,1.9293,1.9658,2.0854,2.173,2.2388,2.2706,2.2803,2.2847,2.2803,2.2803,2.2671,2.2274,2.2141,2.2185,2.2397,2.2618,2.2882,2.3057,2.3091,2.3091,2.3091,2.2925,2.2882,2.3091,2.2925,2.2847,2.2847,2.2847,2.2706,2.2441,2.2441,2.2441,2.2441,2.2441,2.2106,2.1351,2.1432,2.1072,2.0342,2.0059,1.9942,1.9902,1.9715,1.9715,0.0,0.0,0.0,0.0,0.0,0.0,2.0479,1.9923,1.9687,0.0,0.0,0.0,0.0,0.0,0.0,0.0,0.0,0.0,0.0,0.0,0.0,0.0,0.0,0.0,0.0,1.6689,1.6689,1.6689,1.6689,1.6689,1.6689,1.6689,1.6729,1.68,1.6841,1.6873,1.6895,1.7231,1.779,1.8574,1.8519,1.9366,2.0934,2.0632,2.0935,2.1696,2.1696,2.1696,2.1696,2.1696,2.1696,2.1696,2.1696,2.1696,2.1696,2.1696,2.1696,2.1696,2.1696,2.1696,2.1696,2.1696,2.1696,2.1696,2.1696,2.1696,2.1365,1.9849,1.9026,1.888,2.0096,2.1141,2.2015,2.2662,2.2925,2.3013,2.2847,2.2803,2.2759,2.2671,2.2495,2.2397,2.2662,2.2759,2.2882,2.3057,2.3091,2.3091,2.3091,2.3057,2.3057,2.3091,2.3047,2.3057,2.3057,2.3057,2.2969,2.2759,2.2706,2.2706,2.2706,2.2706,2.2563,2.2265,2.1586,2.1024,2.0527,2.0342,2.0098,1.9902,1.9863,1.9863,0.0,0.0,0.0,2.0605,0.0,0.0,0.0,2.042,2.0303,0.0,0.0,0.0,0.0,0.0,0.0,0.0,0.0,0.0,0.0,0.0,0.0,0.0,0.0,0.0,0.0,1.7602,1.7172,1.673,1.6689,1.6689,1.6689,1.6689,1.6689,1.6689,1.6689,1.6689,1.6689,1.6913,1.7457,1.8314,1.8439,1.9219,2.0488,2.0675,2.1009,2.1385,2.1604,2.1696,2.1696,2.1696,2.1696,2.1696,2.1696,2.1696,2.1696,2.1696,2.1696,2.1696,2.1696,2.1696,2.1696,2.1696,2.1696,2.1696,2.1696,2.1186,2.0538,2.0311,1.9795,1.9559,2.0647,2.1686,2.2511,2.2882,2.3013,2.3057,2.2969,2.2969,2.2969,2.2969,2.2828,2.275,2.2794,2.2882,2.2969,2.3091,2.3091,2.3091,2.3091,2.3091,2.3091,2.3091,2.3091,2.3091,2.3091,2.3091,2.3057,2.2969,2.2969,2.2969,2.2969,2.2969,2.2819,2.2519,2.1629,2.1083,2.0898,2.0596,2.0372,2.0255,2.0137,2.0137,0.0,0.0,0.0,0.0,0.0,2.0644,0.0,0.0,0.0,2.1167,0.0,0.0,0.0,0.0,0.0,0.0,0.0,0.0,0.0,0.0,0.0,0.0,0.0,0.0,0.0,1.851,1.7723,1.7009,1.6771,1.6689,1.6689,1.6689,1.6689,1.6689,1.6689,1.6689,1.6689,1.6689,1.7098,1.7878,1.8299,1.8933,1.983,2.0543,2.0961,2.1126,2.1421,2.1623,2.1696,2.1696,2.1696,2.1696,2.1696,2.1696,2.1696,2.1696,2.1696,2.1696,2.1696,2.1696,2.1696,2.1696,2.1696,2.1696,2.1785,2.0862,1.994,2.0583,2.052,2.0367,2.1195,2.2104,2.2872,2.3047,2.3091,2.3091,2.3091,2.3091,2.3091,2.3091,2.3091,2.3047,2.2882,2.3013,2.3091,2.3091,2.3091,2.3091,2.3091,2.3091,2.3091,2.3091,2.3091,2.3091,2.3091,2.3091,2.3091,2.3091,2.3091,2.3091,2.3091,2.3091,2.2896,2.2519,2.1795,2.1356,2.119,2.0869,2.0693,2.0605,2.0411,2.045,0.0,0.0,0.0,0.0,2.0605,0.0,0.0,0.0,2.0722,2.1128,0.0,0.0,0.0,0.0,0.0,0.0,0.0,0.0,0.0,0.0,0.0,0.0,0.0,0.0,0.0,0.0,1.7957,1.7844,1.7131,1.6689,1.6689,1.6689,1.6689,1.6689,1.6689,1.6689,1.6689,1.6689,1.6943,1.7473,1.788,1.8525,1.9401,1.9811,2.0448,2.1108,2.1163,2.1392,2.1696,2.1696,2.1696,2.1696,2.1696,2.1696,2.1696,2.1696,2.1696,2.1696,2.1696,2.1696,2.1696,2.1696,2.1696,2.1741,2.1963,2.1499,2.0718,2.0167,2.0104,2.0232,2.0322,2.1096,2.2059,2.2916,2.3091,2.3091,2.3091,2.3091,2.3091,2.3091,2.3091,2.3091,2.3057,2.3091,2.3091,2.3091,2.3091,2.3091,2.3091,2.3091,2.3091,2.3091,2.3091,2.3091,2.3091,2.3091,2.3091,2.3091,2.3091,2.3091,2.3091,2.3091,2.2896,2.2519,2.2422,2.1951,2.119,2.1142,2.0957,2.0605,2.0566,2.0566,0.0,0.0,0.0,0.0,0.0,0.0,0.0,0.0,2.0819,0.0,0.0,0.0,0.0,0.0,0.0,0.0,0.0,0.0,0.0,0.0,0.0,0.0,0.0,0.0,0.0,0.0,0.0,0.0,0.0,1.6689,1.6689,1.6689,1.6689,1.6689,1.6689,1.6812,1.7106,1.7106,1.7473,1.817,1.8331,1.8731,1.9326,1.9743,2.0195,2.0778,2.1007,2.1346,2.1696,2.1696,2.1696,2.1696,2.1696,2.1696,2.1696,2.1696,2.1696,2.1696,2.1696,2.1696,2.1696,2.1696,2.183,2.1963,2.2052,2.1678,2.1114,2.0791,2.0881,2.1051,2.1051,2.1784,2.2599,2.3003,2.3091,2.3091,2.3091,2.3091,2.3091,2.3091,2.3091,2.3091,2.3091,2.3091,2.3091,2.3091,2.3091,2.3091,2.3091,2.3091,2.3091,2.3091,2.3091,2.3091,2.3091,2.3091,2.3091,2.3091,2.3091,2.3091,2.3091,2.3091,2.3013,2.2838,2.2637,2.2386,2.219,2.1515,2.1173,2.1164,2.0801,2.0605,2.0723,0.0,0.0,0.0,0.0,0.0,0.0,0.0,0.0,0.0,0.0,0.0,0.0,0.0,0.0,0.0,0.0,0.0,0.0,0.0,0.0,0.0,0.0,0.0,0.0,0.0,0.0,1.843,1.7561,1.6968,1.6689,1.6689,1.6689,1.6689,1.682,1.7066,1.7392,1.7514,1.7878,1.8491,1.866,1.8851,1.9161,1.9542,2.0035,2.0539,2.0824,2.1245,2.1696,2.1696,2.1696,2.1696,2.1696,2.1696,2.1696,2.1696,2.1696,2.1696,2.1696,2.1696,2.1687,2.1785,2.1919,2.2097,2.2185,2.1945,2.1659,2.1472,2.1561,2.1695,2.1695,2.2192,2.2775,2.3047,2.3091,2.3091,2.3091,2.3091,2.3091,2.3091,2.3091,2.3091,2.3091,2.3091,2.3091,2.3091,2.3091,2.3091,2.3091,2.3091,2.3091,2.3091,2.3091,2.3091,2.3091,2.3091,2.3091,2.3091,2.3091,2.3091,2.3091,2.3091,2.3091,2.3091,2.2789,2.2722,2.2911,2.2018,2.1577,2.16,2.0918,2.0605,0.0,0.0,0.0,2.0605,0.0,0.0,0.0,0.0,2.0722,0.0,0.0,0.0,0.0,0.0,0.0,0.0,0.0,0.0,0.0,0.0,0.0,0.0,0.0,0.0,0.0,0.0,0.0,1.9335,1.843,1.7602,1.6738,1.6689,1.6689,1.6689,1.7147,1.7392,1.7392,1.7797,1.7991,1.804,1.8491,1.87,1.874,1.913,1.976,2.0521,2.0488,2.0955,2.1696,2.1696,2.1696,2.1696,2.1696,2.1696,2.1696,2.1696,2.1696,2.1696,2.1696,2.1696,2.1741,2.2008,2.2097,2.2141,2.2309,2.2574,2.2618,2.1882,2.1695,2.1695,2.1695,2.1739,2.1961,2.2872,2.3091,2.3091,2.3091,2.3091,2.3091,2.3091,2.3091,2.3091,2.3091,2.3091,2.3091,2.3091,2.3091,2.3091,2.3091,2.3091,2.3091,2.3091,2.3091,2.3091,2.3091,2.3091,2.3091,2.3091,2.3091,2.3091,2.3091,2.3091,2.3091,2.3091,2.3081,2.3006,2.2911,2.2618,2.2156,2.16,2.0918,2.0605,0.0,0.0,2.0605,2.0605,0.0,0.0,0.0,0.0,0.0,0.0,0.0,0.0,0.0,0.0,0.0,0.0,0.0,0.0,0.0,0.0,0.0,0.0,0.0,0.0,0.0,0.0,0.0,2.0099,1.958,1.8917,1.8055,1.7844,1.7683,1.7546,1.7147,1.7351,1.825,1.808,1.8273,1.8865,1.9033,1.9112,1.9112,1.9222,1.9742,2.0521,2.0521,2.0979,2.1696,2.1696,2.1696,2.1696,2.1696,2.1696,2.1696,2.1696,2.1696,2.1741,2.1919,2.1963,2.2008,2.222,2.2407,2.2583,2.2618,2.2838,2.2969,2.2687,2.2643,2.2643,2.2643,2.2643,2.2687,2.3003,2.3091,2.3091,2.3091,2.3091,2.3091,2.3091,2.3091,2.3091,2.3091,2.3091,2.3091,2.3091,2.3091,2.3091,2.3091,2.3091,2.3091,2.3091,2.3091,2.3091,2.3091,2.3091,2.3091,2.3091,2.3091,2.3091,2.3091,2.3091,2.3188,2.3363,2.3188,2.3337,2.3768,2.3093,2.2742,2.2631,2.2228,2.1824,2.1356,2.1025,0.0,2.0644,2.0605,0.0,2.0605,0.0,0.0,0.0,0.0,0.0,0.0,0.0,0.0,0.0,0.0,0.0,0.0,2.1807,0.0,0.0,0.0,0.0,0.0,0.0,2.1001,2.0615,2.0372,1.9864,0.0,0.0,1.8519,1.8023,1.7619,1.7749,1.8451,1.8322,1.8594,1.9301,1.9301,1.9301,1.9301,1.9301,1.9742,2.0521,2.0521,2.0979,2.1696,2.1696,2.1696,2.1696,2.1696,2.1696,2.1696,2.1696,2.1785,2.1874,2.2052,2.2097,2.2097,2.2264,2.2441,2.2662,2.2662,2.2882,2.3091,2.3091,2.3091,2.3091,2.3091,2.3091,2.3091,2.3091,2.3091,2.3091,2.3091,2.3091,2.3091,2.3091,2.3091,2.3091,2.3091,2.3091,2.3091,2.3091,2.3091,2.3091,2.3091,2.3091,2.3091,2.3091,2.3091,2.3091,2.3091,2.3091,2.3091,2.3091,2.3091,2.3091,2.3091,2.3188,2.3319,2.3503,2.3406,2.3624,2.4206,2.3847,2.3739,2.3784,2.3769,2.3483]}]]